[[{"header":{"parameterUnit":"m.s-1","parameterCategory":1,"la1":30.6,"la2":28.766,"lo1":-90.7593,"lo2":-88.6598,"dy":0.0162,"dx":0.0183,"nx":116,"ny":114,"refTime":"2023-07-04T12:00:00:Z","depth":0,"parameterNumber":2,"parameterNumberName":"U-component_of_WINDS"},"data":[0.0,0.0,0.0,0.0,0.0,0.0,0.0,0.0,0.0,0.0,0.0,0.0,0.0,0.0,0.0,0.0,0.0,0.0,0.0,0.0,0.0,0.0,0.0,0.0,0.0,0.0,0.0,0.0,0.0,0.0,0.0,0.0,0.0,0.0,0.0,0.0,0.0,0.0,0.0,0.0,0.0,0.0,0.0,0.0,0.0,0.0,0.0,0.0,0.0,0.0,0.0,0.0,0.0,0.0,0.0,0.0,0.0,0.0,0.0,0.0,0.0,0.0,0.0,0.0,0.0,0.0,0.0,0.0,0.0,0.0,0.0,0.0,0.0,0.0,0.0,0.0,0.0,0.0,0.0,0.0,0.0,0.0,0.0,0.0,0.0,0.0,0.0,0.0,0.0,0.0,0.0,0.0,0.0,0.0,0.0,0.0,0.0,0.0,0.0,0.0,0.0,0.0,0.0,0.0,0.0,0.0,0.0,0.0,0.0,0.0,0.0,0.0,0.0,0.0,0.0,0.0,0.0,0.0,0.0,0.0,0.0,0.0,0.0,0.0,0.0,0.0,0.0,0.0,0.0,0.0,0.0,0.0,0.0,0.0,0.0,0.0,0.0,0.0,0.0,0.0,0.0,0.0,0.0,0.0,0.0,0.0,0.0,0.0,0.0,0.0,0.0,0.0,0.0,0.0,0.0,0.0,0.0,0.0,0.0,0.0,0.0,0.0,0.0,0.0,0.0,0.0,0.0,0.0,0.0,0.0,0.0,0.0,0.0,0.0,0.0,0.0,0.0,0.0,0.0,0.0,0.0,0.0,0.0,0.0,0.0,0.0,0.0,0.0,0.0,0.0,0.0,0.0,0.0,0.0,0.0,0.0,0.0,0.0,0.0,0.0,0.0,0.0,0.0,0.0,0.0,0.0,0.0,0.0,0.0,0.0,0.0,0.0,0.0,0.0,0.0,0.0,0.0,0.0,0.0,0.0,0.0,0.0,0.0,0.0,0.0,0.0,0.0,0.0,0.0,0.0,0.0,0.0,0.0,0.0,0.0,0.0,0.0,0.0,0.0,0.0,0.0,0.0,0.0,0.0,0.0,0.0,0.0,0.0,0.0,0.0,0.0,0.0,0.0,0.0,0.0,0.0,0.0,0.0,0.0,0.0,0.0,0.0,0.0,0.0,0.0,0.0,0.0,0.0,0.0,0.0,0.0,0.0,0.0,0.0,0.0,0.0,0.0,0.0,0.0,0.0,0.0,0.0,0.0,0.0,0.0,0.0,0.0,0.0,0.0,0.0,0.0,0.0,0.0,0.0,0.0,0.0,0.0,0.0,0.0,0.0,0.0,0.0,0.0,0.0,0.0,0.0,0.0,0.0,0.0,0.0,0.0,0.0,0.0,0.0,0.0,0.0,0.0,0.0,0.0,0.0,0.0,0.0,0.0,0.0,0.0,0.0,0.0,0.0,0.0,0.0,0.0,0.0,0.0,0.0,0.0,0.0,0.0,0.0,0.0,0.0,0.0,0.0,0.0,0.0,0.0,0.0,0.0,0.0,0.0,0.0,0.0,0.0,0.0,0.0,0.0,0.0,0.0,0.0,0.0,0.0,0.0,0.0,0.0,0.0,0.0,0.0,0.0,0.0,0.0,0.0,0.0,0.0,0.0,0.0,0.0,0.0,0.0,0.0,0.0,0.0,0.0,0.0,0.0,0.0,0.0,0.0,0.0,0.0,0.0,0.0,0.0,0.0,0.0,0.0,0.0,0.0,0.0,0.0,0.0,0.0,0.0,0.0,0.0,0.0,0.0,0.0,0.0,0.0,0.0,0.0,0.0,0.0,0.0,0.0,0.0,0.0,0.0,0.0,0.0,0.0,0.0,0.0,0.0,0.0,0.0,0.0,0.0,0.0,0.0,0.0,0.0,0.0,0.0,0.0,0.0,0.0,0.0,0.0,0.0,0.0,0.0,0.0,0.0,0.0,0.0,0.0,0.0,0.0,0.0,0.0,0.0,0.0,0.0,0.0,0.0,0.0,0.0,0.0,0.0,0.0,0.0,0.0,0.0,0.0,0.0,0.0,0.0,0.0,0.0,0.0,0.0,0.0,0.0,0.0,0.0,0.0,0.0,0.0,0.0,0.0,0.0,0.0,0.0,0.0,0.0,0.0,0.0,0.0,0.0,0.0,0.0,0.0,0.0,0.0,0.0,0.0,0.0,0.0,0.0,0.0,0.0,0.0,0.0,0.0,0.0,0.0,0.0,0.0,0.0,0.0,0.0,0.0,0.0,0.0,0.0,0.0,0.0,0.0,0.0,0.0,0.0,0.0,0.0,0.0,0.0,0.0,0.0,0.0,0.0,0.0,0.0,0.0,0.0,0.0,0.0,0.0,0.0,0.0,0.0,0.0,0.0,0.0,0.0,0.0,0.0,0.0,0.0,0.0,0.0,0.0,0.0,0.0,0.0,0.0,0.0,0.0,0.0,0.0,0.0,0.0,0.0,0.0,0.0,0.0,0.0,0.0,0.0,0.0,0.0,0.0,0.0,0.0,0.0,0.0,0.0,0.0,0.0,0.0,0.0,0.0,0.0,0.0,0.0,0.0,0.0,0.0,0.0,0.0,0.0,0.0,0.0,0.0,0.0,0.0,0.0,0.0,0.0,0.0,0.0,0.0,0.0,0.0,0.0,0.0,0.0,0.0,0.0,0.0,0.0,0.0,0.0,0.0,0.0,0.0,0.0,0.0,0.0,0.0,0.0,0.0,0.0,0.0,0.0,0.0,0.0,0.0,0.0,0.0,0.0,0.0,0.0,0.0,0.0,0.0,0.0,0.0,0.0,0.0,0.0,0.0,0.0,0.0,0.0,0.0,0.0,0.0,0.0,0.0,0.0,0.0,0.0,0.0,0.0,0.0,0.0,0.0,0.0,0.0,0.0,0.0,0.0,0.0,0.0,0.0,0.0,0.0,0.0,0.0,0.0,0.0,0.0,0.0,0.0,0.0,0.0,0.0,0.0,0.0,0.0,0.0,0.0,0.0,0.0,0.0,0.0,0.0,0.0,0.0,0.0,0.0,0.0,0.0,0.0,0.0,0.0,0.0,0.0,0.0,0.0,0.0,0.0,0.0,0.0,0.0,0.0,0.0,0.0,0.0,0.0,0.0,0.0,0.0,0.0,0.0,0.0,0.0,0.0,0.0,0.0,0.0,0.0,0.0,0.0,0.0,0.0,0.0,0.0,0.0,0.0,0.0,0.0,0.0,0.0,0.0,0.0,0.0,0.0,0.0,0.0,0.0,0.0,0.0,0.0,0.0,0.0,0.0,0.0,0.0,0.0,0.0,0.0,0.0,0.0,0.0,0.0,0.0,0.0,0.0,0.0,0.0,0.0,0.0,0.0,0.0,0.0,0.0,0.0,0.0,0.0,0.0,0.0,0.0,0.0,0.0,0.0,0.0,0.0,0.0,0.0,0.0,0.0,0.0,0.0,0.0,0.0,0.0,0.0,0.0,0.0,0.0,0.0,0.0,0.0,0.0,0.0,0.0,0.0,0.0,0.0,0.0,0.0,0.0,0.0,0.0,0.0,0.0,0.0,0.0,0.0,0.0,0.0,0.0,0.0,0.0,0.0,0.0,0.0,0.0,0.0,0.0,0.0,0.0,0.0,0.0,0.0,0.0,0.0,0.0,0.0,0.0,0.0,0.0,0.0,0.0,0.0,0.0,0.0,0.0,0.0,0.0,0.0,0.0,0.0,0.0,0.0,0.0,0.0,0.0,0.0,0.0,0.0,0.0,0.0,0.0,0.0,0.0,0.0,0.0,0.0,0.0,0.0,0.0,0.0,0.0,0.0,0.0,0.0,0.0,0.0,0.0,0.0,0.0,0.0,0.0,0.0,0.0,0.0,0.0,0.0,0.0,0.0,0.0,0.0,0.0,0.0,0.0,0.0,0.0,0.0,0.0,0.0,0.0,0.0,0.0,0.0,0.0,0.0,0.0,0.0,0.0,0.0,0.0,0.0,0.0,0.0,0.0,0.0,0.0,0.0,0.0,0.0,0.0,0.0,0.0,0.0,0.0,0.0,0.0,0.0,0.0,0.0,0.0,0.0,0.0,0.0,0.0,0.0,0.0,0.0,0.0,0.0,0.0,0.0,0.0,0.0,0.0,0.0,0.0,0.0,0.0,0.0,0.0,0.0,0.0,0.0,0.0,0.0,0.0,0.0,0.0,0.0,0.0,0.0,0.0,0.0,0.0,0.0,0.0,0.0,0.0,0.0,0.0,0.0,0.0,0.0,0.0,0.0,0.0,0.0,0.0,0.0,0.0,0.0,0.0,0.0,0.0,0.0,0.0,0.0,0.0,0.0,0.0,0.0,0.0,0.0,0.0,0.0,0.0,0.0,0.0,0.0,0.0,0.0,0.0,0.0,0.0,0.0,0.0,0.0,0.0,0.0,0.0,0.0,0.0,0.0,0.0,0.0,0.0,0.0,0.0,0.0,0.0,0.0,0.0,0.0,0.0,0.0,0.0,0.0,0.0,0.0,0.0,0.0,0.0,0.0,0.0,0.0,0.0,0.0,0.0,0.0,0.0,0.0,0.0,0.0,0.0,0.0,0.0,0.0,0.0,0.0,0.0,0.0,0.0,0.0,0.0,0.0,0.0,0.0,0.0,0.0,0.0,0.0,0.0,0.0,0.0,0.0,0.0,0.0,0.0,0.0,0.0,0.0,0.0,0.0,0.0,0.0,0.0,0.0,0.0,0.0,0.0,0.0,0.0,0.0,0.0,0.0,0.0,0.0,0.0,0.0,0.0,0.0,0.0,0.0,0.0,0.0,0.0,0.0,0.0,0.0,0.0,0.0,0.0,0.0,0.0,0.0,0.0,0.0,0.0,0.0,0.0,0.0,0.0,0.0,0.0,0.0,0.0,0.0,0.0,0.0,0.0,0.0,0.0,0.0,0.0,0.0,0.0,0.0,0.0,0.0,0.0,0.0,0.0,0.0,0.0,0.0,0.0,0.0,0.0,0.0,0.0,0.0,0.0,0.0,0.0,0.0,0.0,0.0,0.0,0.0,0.0,0.0,0.0,0.0,0.0,0.0,0.0,0.0,0.0,0.0,0.0,0.0,0.0,0.0,0.0,0.0,0.0,0.0,0.0,0.0,0.0,0.0,0.0,0.0,0.0,0.0,0.0,0.0,0.0,0.0,0.0,0.0,0.0,0.0,0.0,0.0,0.0,0.0,0.0,0.0,0.0,0.0,0.0,0.0,0.0,0.0,0.0,0.0,0.0,0.0,0.0,0.0,0.0,0.0,0.0,0.0,0.0,0.0,0.0,0.0,0.0,0.0,0.0,0.0,0.0,0.0,0.0,0.0,0.0,0.0,0.0,0.0,0.0,0.0,0.0,0.0,0.0,0.0,0.0,0.0,0.0,0.0,0.0,0.0,0.0,0.0,0.0,0.0,0.0,0.0,0.0,0.0,0.0,0.0,0.0,0.0,0.0,0.0,0.0,0.0,0.0,0.0,0.0,0.0,0.0,0.0,0.0,0.0,0.0,0.0,0.0,0.0,0.0,0.0,0.0,0.0,0.0,0.0,0.0,0.0,0.0,0.0,0.0,0.0,0.0,0.0,0.0,0.0,0.0,0.0,0.0,0.0,0.0,0.0,0.0,0.0,0.0,0.0,0.0,0.0,0.0,0.0,0.0,0.0,0.0,0.0,0.0,0.0,0.0,0.0,0.0,0.0,0.0,0.0,0.0,0.0,0.0,0.0,0.0,0.0,0.0,0.0,0.0,0.0,0.0,0.0,0.0,0.0,0.0,0.0,0.0,0.0,0.0,0.0,0.0,0.0,0.0,0.0,0.0,0.0,0.0,0.0,0.0,0.0,0.0,0.0,0.0,0.0,0.0,0.0,0.0,0.0,0.0,0.0,0.0,0.0,0.0,0.0,0.0,0.0,0.0,0.0,0.0,0.0,0.0,0.0,0.0,0.0,0.0,0.0,0.0,0.0,0.0,0.0,0.0,0.0,0.0,0.0,0.0,0.0,0.0,0.0,0.0,0.0,0.0,0.0,0.0,0.0,0.0,0.0,0.0,0.0,0.0,0.0,0.0,0.0,0.0,0.0,0.0,-3.3124,0.0,0.0,0.0,0.0,0.0,0.0,0.0,0.0,0.0,0.0,0.0,0.0,0.0,0.0,0.0,0.0,0.0,0.0,0.0,0.0,0.0,0.0,0.0,0.0,0.0,0.0,0.0,0.0,0.0,0.0,0.0,0.0,0.0,0.0,0.0,0.0,0.0,0.0,0.0,0.0,0.0,0.0,0.0,0.0,0.0,0.0,0.0,0.0,0.0,0.0,0.0,0.0,0.0,0.0,0.0,0.0,0.0,0.0,0.0,0.0,0.0,0.0,0.0,0.0,0.0,0.0,0.0,0.0,0.0,0.0,0.0,0.0,0.0,0.0,0.0,0.0,0.0,0.0,0.0,0.0,0.0,0.0,0.0,0.0,0.0,0.0,0.0,0.0,0.0,0.0,0.0,0.0,0.0,0.0,0.0,0.0,0.0,0.0,0.0,0.0,0.0,0.0,0.0,0.0,0.0,0.0,0.0,0.0,0.0,0.0,0.0,0.0,0.0,0.0,0.0,0.0,-3.347,0.0,0.0,0.0,0.0,0.0,0.0,0.0,0.0,0.0,0.0,0.0,0.0,0.0,0.0,0.0,0.0,0.0,0.0,0.0,0.0,0.0,0.0,0.0,0.0,0.0,0.0,0.0,0.0,0.0,0.0,0.0,0.0,0.0,0.0,0.0,0.0,0.0,0.0,0.0,0.0,0.0,0.0,0.0,0.0,0.0,0.0,0.0,0.0,0.0,0.0,0.0,0.0,0.0,0.0,0.0,0.0,0.0,0.0,0.0,0.0,0.0,0.0,0.0,0.0,0.0,0.0,0.0,0.0,0.0,0.0,0.0,0.0,0.0,0.0,0.0,0.0,0.0,0.0,0.0,0.0,0.0,0.0,0.0,0.0,0.0,0.0,0.0,0.0,0.0,0.0,0.0,0.0,0.0,0.0,0.0,0.0,0.0,0.0,0.0,0.0,0.0,0.0,0.0,0.0,0.0,0.0,0.0,0.0,-3.4035,-3.4274,-3.468,-3.468,-3.468,-3.4655,-3.4349,-3.4135,-3.4073,-3.4537,0.0,0.0,0.0,0.0,0.0,0.0,0.0,0.0,0.0,0.0,0.0,0.0,0.0,0.0,0.0,0.0,0.0,0.0,0.0,0.0,0.0,0.0,0.0,0.0,0.0,0.0,0.0,0.0,0.0,0.0,0.0,0.0,0.0,0.0,0.0,0.0,0.0,0.0,0.0,0.0,0.0,0.0,0.0,0.0,0.0,0.0,0.0,0.0,0.0,0.0,0.0,0.0,0.0,0.0,0.0,0.0,0.0,0.0,0.0,0.0,0.0,0.0,0.0,0.0,0.0,0.0,0.0,0.0,0.0,0.0,0.0,0.0,0.0,0.0,0.0,0.0,0.0,0.0,0.0,0.0,0.0,0.0,0.0,0.0,0.0,0.0,-3.575,-3.5277,0.0,0.0,0.0,0.0,0.0,0.0,0.0,0.0,0.0,0.0,0.0,0.0,0.0,-3.4022,-3.45,-3.4512,-3.4537,-3.4568,-3.4568,-3.465,-3.468,-3.468,-3.468,-3.4705,-3.5107,0.0,-3.4625,-3.4688,0.0,0.0,0.0,0.0,0.0,0.0,0.0,0.0,0.0,0.0,0.0,0.0,0.0,0.0,0.0,0.0,0.0,0.0,0.0,0.0,0.0,0.0,0.0,0.0,0.0,0.0,0.0,0.0,0.0,0.0,0.0,0.0,0.0,0.0,0.0,0.0,0.0,0.0,0.0,0.0,0.0,0.0,0.0,0.0,0.0,0.0,0.0,0.0,0.0,0.0,0.0,0.0,0.0,0.0,0.0,0.0,0.0,0.0,0.0,0.0,0.0,0.0,0.0,0.0,0.0,0.0,0.0,0.0,0.0,0.0,0.0,0.0,0.0,0.0,0.0,0.0,0.0,0.0,0.0,0.0,0.0,0.0,0.0,0.0,0.0,-3.5615,-3.5018,-3.4729,-3.4314,-3.3937,0.0,0.0,0.0,0.0,0.0,0.0,0.0,0.0,0.0,-3.4349,-3.4361,-3.4474,-3.468,-3.468,-3.4831,-3.5144,-3.5144,-3.5353,-3.5642,-3.5642,-3.5642,-3.5655,-3.5893,-3.5868,-3.5642,-3.5642,-3.5642,-3.5642,0.0,0.0,0.0,0.0,-3.6157,-3.6405,0.0,0.0,0.0,0.0,0.0,0.0,0.0,0.0,0.0,0.0,0.0,0.0,0.0,0.0,0.0,0.0,0.0,0.0,0.0,0.0,0.0,0.0,0.0,0.0,0.0,0.0,0.0,0.0,0.0,0.0,0.0,0.0,0.0,0.0,0.0,0.0,0.0,0.0,0.0,0.0,0.0,0.0,0.0,0.0,0.0,0.0,0.0,0.0,0.0,0.0,0.0,0.0,0.0,0.0,0.0,0.0,0.0,0.0,0.0,0.0,0.0,0.0,0.0,0.0,0.0,0.0,0.0,0.0,0.0,0.0,0.0,0.0,0.0,0.0,0.0,0.0,0.0,-3.4922,-3.4509,-3.4189,-3.3852,-3.3607,0.0,0.0,0.0,0.0,0.0,0.0,-3.411,-3.45,-3.4743,-3.4881,-3.4893,-3.5019,-3.5353,-3.5353,-3.5629,-3.6122,-3.6122,-3.6383,-3.6832,-3.6832,-3.6832,-3.6832,-3.6832,-3.6832,-3.6807,-3.6518,-3.6405,-3.6405,-3.6405,-3.6405,-3.643,-3.6568,-3.6619,-3.6631,0.0,0.0,0.0,0.0,0.0,0.0,0.0,0.0,0.0,0.0,0.0,0.0,0.0,0.0,0.0,0.0,0.0,0.0,0.0,0.0,0.0,0.0,0.0,0.0,0.0,0.0,0.0,0.0,0.0,0.0,0.0,0.0,0.0,0.0,0.0,0.0,0.0,0.0,0.0,0.0,0.0,0.0,0.0,0.0,0.0,0.0,0.0,0.0,0.0,0.0,0.0,0.0,0.0,0.0,0.0,0.0,0.0,0.0,0.0,0.0,0.0,0.0,0.0,0.0,0.0,0.0,0.0,0.0,0.0,0.0,0.0,0.0,0.0,0.0,0.0,0.0,0.0,0.0,0.0,-3.3526,-3.3441,0.0,0.0,0.0,0.0,-3.46,-3.4618,-3.4675,-3.4675,-3.4713,-3.4919,-3.5445,-3.5458,-3.5959,-3.7048,-3.7061,-3.7337,-3.7877,-3.7877,-3.7902,-3.7927,-3.7927,-3.7927,-3.7927,-3.7927,-3.7927,-3.7839,-3.6845,-3.6405,-3.6405,-3.6405,-3.6405,-3.6468,-3.6996,-3.7149,-3.7211,0.0,0.0,0.0,0.0,0.0,0.0,0.0,0.0,0.0,0.0,0.0,0.0,0.0,0.0,0.0,0.0,0.0,0.0,0.0,0.0,0.0,0.0,0.0,0.0,0.0,0.0,0.0,0.0,0.0,0.0,0.0,0.0,0.0,0.0,0.0,0.0,0.0,0.0,0.0,0.0,0.0,0.0,0.0,0.0,0.0,0.0,0.0,0.0,0.0,0.0,0.0,0.0,0.0,0.0,0.0,0.0,0.0,0.0,0.0,0.0,0.0,0.0,0.0,0.0,0.0,0.0,0.0,0.0,0.0,0.0,0.0,0.0,0.0,0.0,0.0,0.0,0.0,0.0,0.0,-3.3893,-3.3813,0.0,-3.4374,-3.4424,-3.4512,-3.4713,-3.5006,-3.5207,-3.5207,-3.5918,-3.6395,-3.6596,-3.6948,-3.7312,-3.7713,-3.7713,-3.7814,-3.8002,-3.8002,-3.8002,-3.8002,-3.8002,-3.8002,-3.8002,-3.8002,-3.8002,-3.7977,-3.7575,-3.7425,-3.7425,-3.7425,-3.7425,-3.745,-3.7638,-3.7713,-3.7739,0.0,0.0,0.0,0.0,0.0,0.0,0.0,0.0,0.0,0.0,0.0,0.0,0.0,0.0,0.0,0.0,0.0,0.0,0.0,0.0,0.0,0.0,0.0,0.0,0.0,0.0,0.0,0.0,0.0,0.0,0.0,0.0,0.0,0.0,0.0,0.0,0.0,0.0,0.0,0.0,0.0,0.0,-3.9388,0.0,0.0,0.0,0.0,0.0,0.0,0.0,0.0,0.0,0.0,0.0,0.0,0.0,0.0,0.0,0.0,0.0,0.0,0.0,0.0,0.0,0.0,0.0,0.0,0.0,0.0,0.0,0.0,0.0,0.0,0.0,0.0,0.0,0.0,0.0,-3.4065,-3.4344,-3.4262,-3.4399,-3.4906,-3.4956,-3.5107,-3.5529,-3.5893,-3.6135,-3.6323,-3.7061,-3.7462,-3.7462,-3.7814,-3.8103,-3.8304,-3.8304,-3.8391,-3.8567,-3.8567,-3.8668,-3.8856,-3.8856,-3.8956,-3.9132,-3.9132,-3.9132,-3.9132,-3.9132,-3.9019,-3.8793,-3.8228,-3.8002,-3.8027,-3.8228,-3.8304,-3.8329,0.0,0.0,0.0,0.0,0.0,0.0,0.0,0.0,0.0,0.0,0.0,0.0,0.0,0.0,0.0,0.0,0.0,0.0,0.0,0.0,0.0,0.0,0.0,0.0,0.0,0.0,0.0,0.0,0.0,0.0,0.0,0.0,0.0,0.0,0.0,0.0,0.0,0.0,0.0,0.0,0.0,0.0,-3.9388,0.0,0.0,0.0,0.0,0.0,0.0,0.0,0.0,0.0,0.0,0.0,0.0,0.0,0.0,0.0,0.0,0.0,0.0,0.0,0.0,0.0,0.0,0.0,0.0,0.0,0.0,0.0,0.0,0.0,0.0,0.0,0.0,0.0,-3.4756,-3.4889,-3.5008,-3.4751,-3.4705,-3.4919,-3.5495,-3.5545,-3.5997,-3.7123,-3.7211,-3.7437,-3.7977,-3.8027,-3.804,-3.804,-3.8065,-3.8354,-3.8919,-3.8994,-3.922,-3.9747,-3.9747,-4.0023,-4.0538,-4.0538,-4.0786,-4.1288,-4.1288,-4.1288,-4.1288,-4.1288,-4.0974,-4.0375,-3.873,-3.8078,-3.8128,-3.8693,-3.8944,-3.902,0.0,0.0,0.0,0.0,0.0,0.0,0.0,0.0,0.0,0.0,0.0,0.0,0.0,0.0,0.0,0.0,0.0,0.0,0.0,0.0,0.0,0.0,0.0,0.0,0.0,0.0,0.0,0.0,0.0,0.0,0.0,0.0,0.0,0.0,0.0,0.0,0.0,0.0,0.0,0.0,0.0,0.0,-3.9388,0.0,0.0,0.0,0.0,0.0,0.0,0.0,0.0,0.0,0.0,0.0,0.0,0.0,0.0,0.0,0.0,0.0,0.0,0.0,0.0,0.0,0.0,0.0,0.0,0.0,0.0,0.0,0.0,0.0,0.0,0.0,0.0,-3.5942,-3.5289,-3.4984,-3.4921,-3.5219,-3.527,-3.5646,-3.6646,-3.6734,-3.7023,-3.7726,-3.7789,-3.7852,-3.8002,-3.8404,-3.863,-3.863,-3.9408,-3.9898,-4.0061,-4.0463,-4.0739,-4.0837,-4.0837,-4.0912,-4.1062,-4.1062,-4.115,-4.1288,-4.1288,-4.1288,-4.1288,-4.1288,-4.12,-4.0974,-4.0162,-3.9584,-3.9245,-3.9408,-3.9471,-3.9484,0.0,0.0,0.0,0.0,0.0,0.0,0.0,0.0,0.0,0.0,0.0,0.0,0.0,0.0,0.0,0.0,0.0,0.0,0.0,0.0,0.0,0.0,0.0,0.0,0.0,0.0,0.0,0.0,0.0,0.0,0.0,0.0,0.0,0.0,0.0,0.0,0.0,0.0,0.0,0.0,0.0,0.0,-3.9388,-3.9388,-3.9388,-3.9388,-3.9388,-3.9388,-3.9388,-3.9388,0.0,0.0,0.0,0.0,0.0,0.0,0.0,0.0,0.0,0.0,0.0,0.0,0.0,0.0,0.0,0.0,0.0,0.0,0.0,0.0,0.0,0.0,0.0,0.0,-3.6735,-3.646,-3.5991,-3.5633,-3.5617,-3.6169,-3.6232,-3.6571,-3.745,-3.7525,-3.7764,-3.8329,-3.8366,-3.8567,-3.9032,-3.9383,-3.9672,-3.9898,-4.0526,-4.0865,-4.0865,-4.1125,-4.1288,-4.1288,-4.1288,-4.1401,-4.1681,-4.1681,-4.1806,0.0,-4.2032,-4.2032,-4.2032,-4.2032,-4.1894,0.0,0.0,0.0,0.0,0.0,-4.0388,-4.0388,0.0,0.0,0.0,0.0,0.0,0.0,0.0,0.0,0.0,0.0,0.0,0.0,0.0,0.0,0.0,0.0,0.0,0.0,0.0,0.0,0.0,0.0,0.0,0.0,0.0,0.0,0.0,0.0,0.0,0.0,0.0,0.0,0.0,0.0,0.0,0.0,0.0,0.0,0.0,0.0,0.0,0.0,-3.9388,-3.9388,-3.9388,-3.9388,-3.9388,-3.9388,-3.9388,-3.9388,0.0,0.0,0.0,0.0,0.0,0.0,0.0,0.0,0.0,0.0,0.0,0.0,0.0,0.0,0.0,0.0,0.0,0.0,0.0,0.0,0.0,0.0,0.0,0.0,-3.7438,-3.7105,-3.681,-3.6638,-3.6757,-3.7136,-3.7236,-3.75,-3.8052,-3.8103,-3.8366,-3.9007,-3.9057,-3.9509,-4.0563,0.0,0.0,0.0,0.0,-4.1376,-4.1376,-4.1438,-4.1463,-4.1463,-4.1463,-4.1781,-4.2301,-4.2301,-4.2577,-4.2974,-4.2974,-4.2974,-4.2974,-4.2974,-4.274,-4.2238,-4.158,-4.1288,-4.1288,-4.1288,-4.1288,-4.1288,0.0,0.0,0.0,0.0,0.0,0.0,0.0,0.0,0.0,0.0,0.0,0.0,0.0,0.0,0.0,0.0,0.0,0.0,0.0,0.0,0.0,0.0,0.0,0.0,0.0,0.0,0.0,0.0,0.0,0.0,0.0,0.0,0.0,0.0,0.0,0.0,0.0,0.0,0.0,0.0,0.0,0.0,-3.9388,-3.9388,-3.9388,-3.9388,-3.9388,-3.9388,-3.9388,-3.9388,-3.9388,-3.9388,-3.9388,0.0,0.0,0.0,0.0,0.0,0.0,0.0,0.0,0.0,0.0,0.0,0.0,0.0,0.0,0.0,0.0,0.0,0.0,0.0,0.0,-3.7374,-3.754,-3.7597,-3.7167,-3.7448,-3.7563,-3.7224,-3.7575,-3.8078,-3.8642,-3.8705,-3.912,-4.0124,-4.0199,-4.0488,-4.1087,-4.1125,-4.1175,-4.1288,-4.1769,-4.2049,-4.2049,-4.2434,-4.266,-4.266,0.0,0.0,-4.2879,-4.2879,-4.2873,-4.2974,-4.2974,-4.2974,-4.2974,-4.2974,-4.2911,-4.2723,-4.1731,-4.1288,-4.1288,-4.1288,-4.1288,-4.1288,0.0,0.0,0.0,0.0,0.0,0.0,0.0,0.0,0.0,0.0,0.0,0.0,0.0,0.0,0.0,0.0,0.0,0.0,0.0,0.0,0.0,0.0,0.0,0.0,0.0,0.0,0.0,0.0,0.0,0.0,0.0,0.0,0.0,0.0,0.0,0.0,0.0,0.0,0.0,0.0,0.0,0.0,-3.9388,-3.9388,-3.9388,-3.9388,-3.9388,-3.9388,-3.9388,-3.9388,-3.9388,-3.9388,-3.9388,-3.9388,-3.9388,0.0,0.0,0.0,0.0,0.0,0.0,0.0,0.0,0.0,0.0,0.0,0.0,0.0,0.0,-4.0167,0.0,0.0,-3.8578,-3.7994,-3.8058,-3.8056,-3.7806,-3.8288,-3.8491,-3.8114,-3.8278,-3.8655,-3.9233,-3.9534,-3.9923,-4.0475,-4.0777,-4.1166,-4.1718,-4.1743,-4.1869,-4.2145,-4.2421,-4.2627,-4.2627,-4.2891,-4.2974,-4.2974,-4.2974,-4.2974,-4.2974,-4.2974,-4.2974,-4.2974,-4.2974,-4.2974,-4.2974,-4.2974,-4.2974,-4.2924,-4.2371,-4.2158,-4.2158,-4.2158,-4.2158,-4.2158,0.0,0.0,0.0,0.0,0.0,0.0,0.0,0.0,0.0,0.0,0.0,0.0,0.0,0.0,0.0,0.0,0.0,0.0,0.0,0.0,0.0,0.0,0.0,0.0,0.0,0.0,0.0,0.0,0.0,0.0,0.0,0.0,0.0,0.0,0.0,0.0,0.0,0.0,0.0,0.0,0.0,0.0,-3.9388,-3.9388,-3.9388,-3.9388,-3.9388,-3.9388,-3.9388,-3.9388,-3.9388,-3.9388,-3.9388,-3.9388,-3.9388,-3.9388,-3.9388,0.0,0.0,0.0,0.0,0.0,0.0,0.0,0.0,0.0,-4.1934,-4.2068,-4.1492,-4.0731,-3.9911,-3.9404,-3.9109,-3.8912,-3.8812,-3.879,-3.8756,-3.9181,-3.9487,-3.9386,-3.9297,-3.9371,-3.981,-4.035,-4.0714,-4.0827,-4.1241,-4.1731,-4.2338,-4.2363,-4.2577,-4.2961,-4.2974,-4.2974,-4.2974,-4.2974,-4.2974,-4.2974,-4.2974,-4.2974,-4.2974,-4.2974,-4.2974,-4.2974,-4.2974,-4.2974,-4.2974,-4.2974,-4.2974,-4.2974,-4.2974,-4.2974,-4.2974,-4.2974,-4.2974,-4.2974,0.0,0.0,0.0,0.0,0.0,0.0,0.0,0.0,0.0,0.0,0.0,0.0,0.0,0.0,0.0,0.0,0.0,0.0,0.0,0.0,0.0,0.0,0.0,0.0,0.0,0.0,0.0,0.0,0.0,0.0,0.0,0.0,0.0,0.0,0.0,0.0,0.0,0.0,0.0,0.0,0.0,0.0,-3.9388,-3.9388,-3.9388,-3.9388,-3.9388,-3.9388,-3.9388,-3.9388,-3.9388,-3.9388,-3.9388,-3.9388,-3.9388,-3.9388,0.0,-3.9388,-3.9388,-3.9843,-4.0591,-4.1871,-4.2231,-4.247,0.0,0.0,-4.2519,-4.2404,-4.1646,-4.0816,-4.0301,-4.0145,-3.9924,-3.9501,-3.986,-4.0106,-3.9925,-4.0143,-4.0543,-4.1042,-4.0638,-4.0362,-4.0413,-4.0927,-4.1442,-4.1986,-4.2087,-4.2363,-4.2848,-4.2886,-4.2911,-4.2974,-4.2974,-4.2974,-4.2974,-4.2974,-4.2974,-4.2974,-4.2974,-4.2974,-4.2974,-4.2974,-4.2974,-4.2974,-4.2974,-4.2974,-4.2974,-4.2974,-4.2974,-4.2974,-4.2974,-4.2974,-4.2974,-4.2974,-4.2974,-4.2974,0.0,0.0,0.0,0.0,0.0,0.0,0.0,0.0,0.0,0.0,0.0,0.0,0.0,0.0,0.0,0.0,0.0,0.0,0.0,0.0,0.0,0.0,0.0,0.0,0.0,0.0,0.0,0.0,0.0,0.0,0.0,0.0,0.0,0.0,0.0,0.0,0.0,0.0,0.0,0.0,0.0,0.0,-3.9388,-3.9388,-3.9388,-3.9388,-3.9388,-3.9388,0.0,0.0,-3.9388,-3.9388,-3.9388,-3.9388,-3.9388,-3.9388,-3.9388,0.0,-3.9888,-4.0756,-4.1707,0.0,-4.2641,-4.3,-4.323,-4.309,-4.2769,-4.2474,-4.1951,-4.1453,-4.1137,-4.0935,-4.0917,0.0,-4.1132,-4.1126,-4.1274,-4.1091,-4.1116,-4.1518,-4.1514,-4.1415,-4.1269,-4.16,-4.1907,-4.2187,-4.2502,-4.2791,-4.2974,-4.2974,-4.2974,-4.2974,-4.2974,-4.2974,-4.2974,-4.2974,-4.2974,-4.2974,-4.2974,-4.2974,-4.2974,-4.2974,-4.2974,-4.2974,-4.2974,-4.2974,-4.2974,-4.2974,-4.2974,-4.2974,-4.2974,-4.2974,-4.2974,-4.2974,-4.2974,-4.2974,0.0,0.0,0.0,0.0,0.0,0.0,0.0,0.0,0.0,0.0,0.0,0.0,0.0,0.0,0.0,0.0,0.0,0.0,0.0,0.0,0.0,0.0,0.0,0.0,0.0,0.0,0.0,0.0,0.0,0.0,0.0,0.0,0.0,0.0,0.0,0.0,0.0,0.0,0.0,0.0,0.0,0.0,-3.9481,-3.9481,-3.946,-3.9388,-3.9388,-3.9388,0.0,0.0,-3.9388,-3.9388,-3.9388,-3.9388,-3.9388,-3.9388,-3.9544,-3.9828,-4.0487,0.0,0.0,-4.262,-4.2985,-4.329,-4.329,-4.3155,-4.2915,-4.2622,-4.224,-4.1987,-4.1966,-4.1829,-4.1951,-4.2657,-4.2432,-4.2262,-4.2501,-4.2126,-4.2008,-4.2355,-4.2632,-4.273,-4.259,-4.2649,-4.2604,-4.2536,-4.2914,-4.3085,-4.2974,-4.2974,-4.2974,-4.2974,-4.2974,-4.2974,-4.2974,-4.2974,-4.2974,-4.2974,-4.2974,-4.2974,-4.2974,-4.2974,-4.2974,-4.2974,-4.2974,-4.2974,-4.2974,-4.2974,-4.2974,-4.2974,-4.2974,-4.2974,-4.2974,-4.2974,-4.2974,-4.2974,0.0,0.0,0.0,0.0,0.0,0.0,0.0,0.0,0.0,0.0,0.0,0.0,0.0,0.0,0.0,0.0,0.0,0.0,0.0,0.0,0.0,0.0,0.0,0.0,0.0,0.0,0.0,0.0,0.0,0.0,0.0,0.0,0.0,0.0,0.0,0.0,0.0,0.0,0.0,0.0,0.0,0.0,-3.9681,-3.9681,-3.9589,-3.9388,-3.9388,0.0,0.0,0.0,-3.9388,-3.9388,-3.9388,-3.9388,0.0,-3.9388,-3.9873,-4.0516,0.0,0.0,-4.2545,-4.315,-4.329,-4.329,-4.329,-4.3155,-4.2981,-4.2981,-4.247,-4.2196,-4.2834,-4.2897,-4.3024,-4.3675,-4.3608,-4.3539,-4.3553,-4.3411,-4.351,-4.4074,-4.4199,-4.4322,0.0,-4.4177,-4.3683,-4.3368,-4.3381,-4.3295,-4.303,-4.2974,-4.2974,-4.2974,-4.2974,-4.2974,-4.2974,-4.2974,-4.2974,-4.2974,-4.2974,-4.2974,-4.2974,-4.2974,-4.2974,-4.2974,-4.2974,-4.2974,-4.2974,-4.2974,-4.2974,-4.2974,-4.2974,-4.2974,-4.2974,-4.2974,-4.2974,-4.2974,0.0,0.0,0.0,0.0,0.0,0.0,0.0,0.0,0.0,0.0,0.0,0.0,0.0,0.0,0.0,0.0,0.0,0.0,0.0,0.0,0.0,0.0,0.0,0.0,0.0,0.0,0.0,0.0,0.0,0.0,0.0,0.0,0.0,0.0,0.0,0.0,0.0,0.0,0.0,0.0,0.0,0.0,-4.0021,-3.9945,-3.9768,-3.9589,0.0,0.0,0.0,0.0,0.0,0.0,-3.9388,0.0,0.0,-3.9948,-4.0531,-4.119,-4.1886,0.0,-4.306,-4.3245,-4.329,-4.329,-4.329,-4.325,-4.3155,-4.3036,-4.319,-4.346,-4.3812,-4.4052,-4.4379,-4.4846,-4.4627,-4.4397,-4.4397,-4.4235,-4.4354,-4.492,-4.5115,0.0,0.0,0.0,0.0,-4.3764,-4.3708,-4.3708,-4.3611,-4.3611,-4.3487,-4.3295,-4.3295,-4.3184,-4.2974,-4.2974,-4.2974,-4.2974,-4.2974,-4.2974,-4.2974,-4.2974,-4.2974,-4.2974,-4.2974,-4.2974,-4.2974,-4.2974,-4.2974,-4.2974,-4.2974,-4.2974,-4.2974,-4.2974,-4.2974,-4.2974,0.0,0.0,0.0,0.0,0.0,0.0,0.0,0.0,0.0,0.0,0.0,0.0,0.0,0.0,0.0,0.0,0.0,0.0,0.0,0.0,0.0,0.0,0.0,0.0,0.0,0.0,0.0,0.0,0.0,0.0,0.0,0.0,0.0,0.0,0.0,0.0,0.0,0.0,0.0,0.0,0.0,0.0,-4.0509,-4.0261,-4.0036,0.0,0.0,0.0,0.0,0.0,0.0,0.0,0.0,-3.9388,-3.9508,-4.0202,-4.0861,-4.1572,-4.2216,-4.2836,-4.329,-4.329,-4.329,-4.329,-4.329,-4.329,-4.325,-4.3115,-4.3571,-4.4131,-4.4474,-4.4892,-4.5317,-4.5809,-4.5549,-4.529,-4.5198,-4.5303,-4.5483,-4.579,-4.6219,-4.6473,0.0,0.0,0.0,-4.4435,-4.438,-4.4271,-4.4052,-4.4052,-4.3874,-4.3585,-4.3585,-4.3474,-4.3321,-4.3321,-4.3265,-4.3129,-4.303,-4.2974,-4.2974,-4.2974,-4.2974,-4.2974,-4.2974,-4.2974,-4.2974,-4.2974,-4.2974,-4.2974,-4.2974,-4.2974,-4.2974,-4.2974,-4.2974,-4.2974,0.0,0.0,0.0,0.0,0.0,0.0,0.0,0.0,0.0,0.0,0.0,0.0,0.0,0.0,0.0,0.0,0.0,0.0,0.0,0.0,0.0,0.0,0.0,0.0,0.0,0.0,0.0,0.0,0.0,0.0,0.0,0.0,0.0,0.0,0.0,0.0,0.0,0.0,0.0,0.0,0.0,0.0,-4.1104,-4.0696,0.0,0.0,0.0,0.0,0.0,0.0,0.0,0.0,0.0,0.0,-3.9559,-4.0247,-4.0891,-4.1572,-4.2261,-4.2865,-4.329,-4.329,-4.329,-4.329,-4.329,-4.329,-4.3305,-4.3334,-4.3711,-4.4258,0.0,0.0,-4.5886,-4.6491,-4.6403,-4.6135,-4.597,-4.6566,-4.6976,0.0,0.0,0.0,0.0,0.0,0.0,-4.5448,0.0,-4.5018,-4.4422,-4.4367,-4.4271,-4.3955,-4.3955,-4.3955,-4.3899,-4.3899,-4.3708,-4.3394,-4.3197,-4.303,-4.303,-4.303,-4.303,-4.303,-4.303,-4.303,-4.2974,-4.2974,-4.2974,-4.2974,-4.2974,-4.2974,-4.2974,-4.2974,-4.2974,-4.2974,0.0,0.0,0.0,0.0,0.0,0.0,0.0,0.0,0.0,0.0,0.0,0.0,0.0,0.0,0.0,0.0,0.0,0.0,0.0,0.0,0.0,0.0,0.0,0.0,0.0,0.0,0.0,0.0,0.0,0.0,0.0,0.0,0.0,0.0,0.0,0.0,0.0,0.0,0.0,0.0,0.0,0.0,-4.1785,0.0,0.0,0.0,0.0,0.0,0.0,0.0,0.0,0.0,0.0,-3.9388,-3.9649,-4.0786,-4.1287,-4.1624,-4.2776,-4.317,-4.329,-4.329,-4.329,-4.329,-4.329,-4.329,-4.3424,-4.3958,-4.4545,-4.5176,0.0,0.0,0.0,-4.6814,-4.6624,0.0,-4.6417,-4.7245,0.0,-4.7456,0.0,-4.8795,-4.8243,-4.8193,0.0,0.0,-4.6585,-4.5954,-4.5595,-4.5595,-4.5328,-4.4856,-4.4869,-4.4653,-4.4216,-4.3997,-4.3844,-4.3776,-4.3721,-4.3666,-4.3666,-4.3666,-4.3543,-4.3283,-4.3283,-4.3184,-4.2974,-4.2974,-4.2974,-4.2974,-4.2974,-4.2974,-4.2974,-4.2974,-4.2974,-4.2974,0.0,0.0,0.0,0.0,0.0,0.0,0.0,0.0,0.0,0.0,0.0,0.0,0.0,0.0,0.0,0.0,0.0,0.0,0.0,0.0,0.0,0.0,0.0,0.0,0.0,0.0,0.0,0.0,0.0,0.0,0.0,0.0,0.0,0.0,0.0,0.0,0.0,0.0,0.0,0.0,0.0,0.0,0.0,0.0,0.0,0.0,0.0,0.0,0.0,0.0,0.0,-3.9388,-3.9388,-3.9388,-3.9679,-4.0995,0.0,-4.1669,-4.2931,-4.329,-4.329,-4.329,-4.329,-4.329,-4.329,-4.329,-4.3484,-4.4182,-4.484,0.0,0.0,0.0,0.0,0.0,0.0,0.0,-4.6771,-4.77,-4.8372,0.0,-4.9091,0.0,-4.9242,-4.9178,-4.9044,0.0,-4.7568,-4.686,-4.6599,-4.6442,-4.6179,-4.5755,-4.5755,-4.5488,-4.5059,-4.4639,-4.4489,-4.4489,-4.4313,-4.4216,-4.4052,-4.4052,-4.3929,-4.364,0.0,-4.353,-4.3376,-4.3376,-4.3308,-4.3184,-4.3184,-4.3085,-4.2974,-4.2974,-4.2974,-4.2974,0.0,0.0,0.0,0.0,0.0,0.0,0.0,0.0,0.0,0.0,0.0,0.0,0.0,0.0,0.0,0.0,0.0,0.0,0.0,0.0,0.0,0.0,0.0,0.0,0.0,0.0,0.0,0.0,0.0,0.0,0.0,0.0,0.0,0.0,0.0,0.0,0.0,0.0,0.0,0.0,0.0,0.0,0.0,0.0,0.0,0.0,0.0,0.0,0.0,0.0,-3.9661,-3.946,-3.9424,-3.9388,-3.9679,-4.0995,-4.1422,-4.1669,-4.2931,-4.329,-4.329,-4.329,-4.329,-4.329,-4.329,-4.329,-4.3499,-4.4287,0.0,-4.5529,-4.6307,0.0,-4.7309,-4.7309,0.0,-4.7207,-4.6975,-4.812,-4.8861,-4.8571,-4.9737,-5.0438,-5.0183,-5.0135,-4.9941,-4.9502,-4.8559,-4.7852,-4.7507,-4.725,-4.6977,-4.6585,-4.6533,-4.6376,-4.6126,-4.5675,-4.5474,-4.5341,-4.5138,-4.4868,-4.4531,-4.4531,-4.4367,-4.4064,-4.4064,0.0,-4.3997,-4.3955,-4.3764,-4.3504,-4.3462,-4.3295,-4.303,-4.303,-4.303,-4.2974,0.0,0.0,0.0,0.0,0.0,0.0,0.0,0.0,0.0,0.0,0.0,0.0,0.0,0.0,0.0,0.0,0.0,0.0,0.0,0.0,0.0,0.0,0.0,0.0,0.0,0.0,0.0,0.0,0.0,0.0,0.0,0.0,0.0,0.0,0.0,0.0,0.0,0.0,0.0,0.0,0.0,0.0,0.0,0.0,0.0,0.0,0.0,0.0,0.0,0.0,-4.0036,-3.9625,-3.9445,-3.9388,-3.9679,-4.0995,-4.1422,-4.1669,-4.2931,-4.329,-4.329,-4.329,-4.329,-4.329,-4.329,-4.329,0.0,0.0,0.0,-4.5663,-4.6905,-4.7234,0.0,-4.7309,0.0,0.0,0.0,0.0,-4.9134,0.0,0.0,0.0,0.0,0.0,0.0,0.0,0.0,-4.9291,-4.8344,-4.8243,-4.799,-4.7494,-4.7236,-4.7043,-4.673,-4.6957,-4.6731,-4.6218,-4.6678,-4.6504,-4.5702,-4.5702,-4.5435,-4.4964,-4.4964,0.0,-4.4518,-4.4313,-4.4203,-4.4136,-4.3887,-4.3598,-4.3338,-4.3338,-4.3184,-4.2974,0.0,0.0,0.0,0.0,0.0,0.0,0.0,0.0,0.0,0.0,0.0,0.0,0.0,0.0,0.0,0.0,0.0,0.0,0.0,0.0,0.0,0.0,0.0,0.0,0.0,0.0,0.0,0.0,0.0,0.0,0.0,0.0,0.0,0.0,0.0,0.0,0.0,0.0,0.0,0.0,0.0,0.0,0.0,0.0,0.0,0.0,0.0,0.0,0.0,0.0,-4.042,-4.0036,-3.9661,-3.9481,-3.9679,-4.0995,-4.1422,-4.1669,-4.2931,-4.329,-4.329,-4.329,-4.329,-4.329,-4.329,0.0,0.0,0.0,0.0,-4.5708,-4.7055,0.0,0.0,0.0,0.0,0.0,0.0,0.0,0.0,0.0,0.0,0.0,0.0,0.0,0.0,0.0,0.0,-5.0105,-4.9389,-4.9044,-4.8745,-4.8358,-4.8041,-4.7838,-4.7736,-4.7771,-4.7602,-4.7312,-4.7616,-4.7394,-4.6665,-4.6665,-4.6337,-4.5808,-4.5808,0.0,-4.5368,-4.5207,-4.4897,-4.4518,-4.4367,-4.4039,-4.364,-4.3449,-4.3338,-4.3184,0.0,0.0,0.0,0.0,0.0,0.0,0.0,0.0,-4.3178,-4.2994,-4.2691,-4.2374,-4.2044,-4.1675,0.0,0.0,0.0,0.0,0.0,0.0,0.0,0.0,0.0,0.0,0.0,0.0,0.0,0.0,0.0,0.0,0.0,0.0,0.0,0.0,0.0,0.0,0.0,0.0,0.0,0.0,0.0,0.0,0.0,0.0,0.0,0.0,0.0,0.0,0.0,0.0,-4.0799,-4.0489,-4.0001,-3.9696,-3.9715,-4.1033,-4.1422,-4.1669,-4.2931,-4.329,-4.329,-4.329,-4.329,-4.329,-4.329,-4.329,0.0,0.0,-4.5289,-4.5708,-4.7055,0.0,0.0,0.0,0.0,0.0,0.0,0.0,0.0,0.0,0.0,0.0,0.0,0.0,0.0,0.0,0.0,0.0,-5.0183,-4.9795,-4.9453,-4.9143,-4.8945,-4.8831,-4.8731,-4.8659,-4.8558,-4.838,-4.8471,-4.8218,-4.7545,-4.7545,-4.7274,-4.6728,-4.6728,0.0,0.0,-4.6284,-4.5795,-4.5046,-4.4992,-4.4639,-4.4052,-4.3793,-4.356,-4.3394,0.0,0.0,0.0,0.0,0.0,0.0,0.0,0.0,-4.3323,-4.3196,-4.2994,-4.2729,-4.2394,-4.1892,0.0,0.0,0.0,0.0,0.0,0.0,0.0,0.0,0.0,0.0,0.0,0.0,0.0,0.0,0.0,0.0,0.0,0.0,0.0,0.0,0.0,0.0,0.0,0.0,0.0,0.0,0.0,0.0,0.0,0.0,0.0,0.0,0.0,0.0,0.0,0.0,0.0,-4.073,-4.0489,-4.0071,-3.9917,-4.107,0.0,0.0,-4.2931,-4.329,-4.329,-4.329,-4.329,-4.329,-4.329,0.0,0.0,-4.502,-4.5289,-4.5708,-4.7055,0.0,0.0,0.0,0.0,0.0,0.0,0.0,0.0,0.0,0.0,0.0,0.0,0.0,0.0,0.0,0.0,0.0,-5.0501,-5.0405,-5.0246,-4.999,-4.999,-4.9829,-4.9571,-5.0101,-4.9952,-4.9221,-4.9746,-4.9452,-4.8395,-4.8395,-4.8229,-4.7925,-4.7925,0.0,0.0,-4.7301,-4.6807,-4.6218,-4.5967,-4.5368,-4.4626,-4.4613,-4.4055,-4.3394,0.0,0.0,0.0,0.0,0.0,0.0,0.0,0.0,-4.3394,-4.3323,-4.3068,-4.2787,-4.2552,-4.2207,0.0,0.0,0.0,0.0,0.0,0.0,0.0,0.0,0.0,0.0,0.0,0.0,0.0,0.0,0.0,0.0,0.0,0.0,0.0,0.0,0.0,0.0,0.0,0.0,0.0,0.0,0.0,0.0,0.0,0.0,0.0,0.0,0.0,0.0,0.0,0.0,0.0,0.0,-4.0662,-4.0351,0.0,0.0,-4.1498,-4.1669,-4.2931,-4.329,-4.329,-4.329,-4.329,-4.329,-4.329,0.0,0.0,-4.502,-4.5289,-4.5708,-4.7055,0.0,0.0,0.0,0.0,0.0,0.0,0.0,0.0,0.0,0.0,0.0,0.0,0.0,0.0,0.0,0.0,0.0,-5.0947,-5.0742,-5.0567,-5.0342,-5.0342,-5.0294,-5.0183,-5.0447,-5.035,-5.0004,-5.0267,-5.0042,-4.9438,-4.9438,-4.9326,-4.9079,-4.8895,0.0,0.0,-4.8142,-4.7582,-4.6925,-4.6585,-4.606,-4.5422,-4.4884,-4.4505,-4.411,0.0,0.0,0.0,0.0,0.0,0.0,-4.3515,-4.3445,-4.3411,-4.3412,-4.316,-4.2919,-4.2709,-4.2472,-4.2124,-4.1587,0.0,0.0,0.0,0.0,0.0,0.0,0.0,0.0,0.0,0.0,0.0,0.0,0.0,0.0,0.0,0.0,0.0,0.0,0.0,0.0,0.0,0.0,0.0,0.0,0.0,0.0,0.0,0.0,0.0,0.0,0.0,0.0,0.0,0.0,0.0,0.0,0.0,0.0,0.0,0.0,-4.1663,-4.176,-4.3064,-4.3384,-4.329,-4.329,-4.329,-4.329,0.0,0.0,0.0,-4.502,-4.5289,-4.5708,-4.7055,0.0,0.0,0.0,0.0,0.0,0.0,0.0,0.0,0.0,0.0,0.0,0.0,0.0,0.0,0.0,0.0,0.0,0.0,-5.1011,-5.0837,-5.0724,-5.0724,-5.0724,-5.0724,-5.0724,-5.0677,-5.0567,-5.0567,-5.0471,-5.0246,-5.0246,-5.0135,-4.9941,-4.9746,0.0,0.0,-4.898,-4.8445,-4.775,-4.7363,-4.678,-4.6165,-4.5475,-4.4992,-4.4613,0.0,0.0,0.0,0.0,0.0,0.0,0.0,0.0,-4.348,-4.3412,-4.3269,-4.3123,-4.2919,-4.2593,0.0,0.0,0.0,0.0,0.0,0.0,0.0,0.0,0.0,0.0,0.0,0.0,0.0,0.0,0.0,0.0,0.0,0.0,0.0,0.0,0.0,0.0,0.0,0.0,0.0,0.0,0.0,0.0,0.0,0.0,0.0,0.0,0.0,0.0,0.0,0.0,0.0,0.0,0.0,0.0,0.0,0.0,-4.185,-4.2002,-4.3328,-4.3518,-4.329,-4.329,-4.329,-4.329,0.0,0.0,0.0,-4.502,-4.5289,-4.5708,-4.7055,0.0,0.0,0.0,0.0,0.0,0.0,0.0,0.0,0.0,0.0,0.0,0.0,0.0,0.0,0.0,0.0,0.0,0.0,-5.1214,-5.1167,-5.1167,-5.1167,-5.1167,-5.1167,-5.1167,-5.1058,-5.0807,-5.0807,-5.0695,-5.0501,-5.0501,-5.0501,0.0,0.0,0.0,0.0,-4.9781,-4.9389,-4.8845,-4.828,-4.7554,-4.6728,-4.648,-4.5688,-4.4668,0.0,0.0,0.0,0.0,0.0,0.0,0.0,0.0,-4.3497,-4.3463,-4.3394,0.0,0.0,0.0,0.0,0.0,0.0,0.0,0.0,0.0,0.0,0.0,0.0,0.0,0.0,0.0,0.0,0.0,0.0,0.0,0.0,0.0,0.0,0.0,0.0,0.0,0.0,0.0,0.0,0.0,0.0,0.0,0.0,0.0,0.0,0.0,0.0,0.0,0.0,0.0,0.0,0.0,0.0,0.0,0.0,0.0,0.0,0.0,-4.3367,-4.3636,-4.3518,-4.3344,-4.329,-4.329,-4.329,0.0,0.0,0.0,0.0,0.0,0.0,0.0,0.0,0.0,0.0,0.0,0.0,0.0,0.0,0.0,0.0,0.0,0.0,0.0,0.0,0.0,0.0,0.0,0.0,-5.1214,-5.1214,-5.1214,-5.1214,-5.1214,-5.1214,-5.1214,-5.1167,-5.1058,-5.1058,-5.1026,-5.0994,-5.0994,-5.0994,0.0,0.0,0.0,0.0,-5.0327,-4.9941,-4.9424,-4.9065,-4.8417,-4.7606,-4.7171,-4.6546,-4.5795,0.0,0.0,0.0,0.0,0.0,0.0,0.0,0.0,-4.3515,-4.3515,-4.3446,0.0,0.0,0.0,0.0,0.0,0.0,0.0,0.0,0.0,0.0,0.0,0.0,0.0,0.0,0.0,0.0,0.0,0.0,0.0,0.0,0.0,0.0,0.0,0.0,0.0,0.0,0.0,0.0,0.0,0.0,0.0,-4.4615,0.0,0.0,0.0,0.0,0.0,0.0,0.0,0.0,0.0,0.0,0.0,0.0,0.0,-4.3078,0.0,0.0,-4.3871,-4.3651,-4.3503,-4.3384,0.0,0.0,0.0,0.0,0.0,0.0,0.0,0.0,0.0,0.0,0.0,0.0,0.0,0.0,0.0,0.0,0.0,0.0,0.0,0.0,0.0,0.0,0.0,0.0,0.0,0.0,-5.1214,-5.1214,-5.1214,-5.1214,-5.1214,-5.1214,-5.1214,-5.1214,-5.1214,-5.1214,-5.1214,-5.1214,-5.1214,-5.1214,0.0,0.0,0.0,0.0,-5.0695,-5.0408,-5.0057,-4.9605,-4.9065,-4.8467,-4.7939,-4.7325,-4.6703,0.0,0.0,0.0,0.0,0.0,0.0,0.0,0.0,0.0,0.0,0.0,0.0,0.0,0.0,0.0,0.0,0.0,0.0,0.0,0.0,0.0,0.0,0.0,0.0,0.0,0.0,0.0,-4.0096,-4.0096,-4.0468,-4.1136,0.0,0.0,0.0,0.0,0.0,0.0,0.0,0.0,0.0,0.0,0.0,0.0,0.0,0.0,0.0,0.0,0.0,0.0,0.0,0.0,0.0,0.0,0.0,0.0,0.0,0.0,0.0,0.0,0.0,0.0,0.0,0.0,0.0,0.0,0.0,0.0,0.0,0.0,0.0,0.0,0.0,0.0,0.0,0.0,0.0,0.0,0.0,0.0,0.0,0.0,0.0,0.0,0.0,0.0,0.0,0.0,0.0,0.0,-5.1214,-5.1214,-5.1214,-5.1214,-5.1214,-5.1214,-5.1214,-5.1214,-5.1214,-5.1214,-5.1214,-5.1214,-5.1214,-5.1214,0.0,0.0,0.0,0.0,-5.0917,-5.0807,-5.0713,-5.0057,-4.962,-4.9311,-4.8781,-4.8092,-4.7405,0.0,0.0,0.0,0.0,0.0,0.0,0.0,0.0,0.0,0.0,0.0,0.0,0.0,0.0,0.0,0.0,0.0,0.0,0.0,0.0,0.0,0.0,0.0,0.0,0.0,0.0,0.0,-4.0096,-4.0096,-4.0197,-4.04,-4.1677,0.0,0.0,0.0,0.0,0.0,0.0,0.0,0.0,0.0,0.0,0.0,0.0,0.0,0.0,-4.4542,-4.444,0.0,0.0,0.0,0.0,0.0,0.0,0.0,0.0,-4.4172,-4.4044,-4.5195,0.0,-4.4281,-4.3808,-4.3651,0.0,0.0,0.0,0.0,0.0,0.0,0.0,0.0,0.0,0.0,0.0,0.0,0.0,0.0,0.0,0.0,0.0,0.0,0.0,0.0,0.0,0.0,0.0,0.0,0.0,0.0,-5.1214,-5.1214,-5.1214,-5.1214,-5.1214,-5.1214,-5.1214,-5.1214,-5.1214,-5.1214,-5.1214,-5.1214,-5.1214,-5.1214,0.0,0.0,0.0,-5.1214,-5.112,-5.1011,-5.076,-5.0618,-5.0298,-4.9878,-4.9537,-4.9044,-4.8495,0.0,0.0,0.0,0.0,0.0,0.0,0.0,0.0,0.0,0.0,0.0,0.0,0.0,0.0,0.0,0.0,0.0,0.0,0.0,0.0,0.0,0.0,0.0,0.0,0.0,0.0,0.0,0.0,0.0,-4.0096,0.0,0.0,0.0,0.0,0.0,0.0,0.0,0.0,0.0,0.0,-4.4615,0.0,0.0,0.0,0.0,0.0,-4.4615,-4.4542,0.0,-4.4338,-4.4179,-4.4006,0.0,0.0,0.0,0.0,-4.4706,-4.4509,-4.5596,-4.5247,-4.4534,-4.4205,-4.391,-4.3651,0.0,0.0,0.0,0.0,0.0,0.0,0.0,0.0,0.0,0.0,0.0,0.0,0.0,0.0,0.0,0.0,0.0,0.0,0.0,0.0,0.0,0.0,0.0,0.0,0.0,-5.1214,-5.1214,-5.1214,-5.1214,-5.1214,-5.1214,-5.1214,-5.1214,-5.1214,-5.1214,-5.1214,-5.1214,-5.1214,-5.1214,0.0,0.0,0.0,-5.1214,-5.1214,-5.112,-5.0964,-5.0855,-5.0618,-5.0394,-5.0168,-4.9795,-4.9389,0.0,0.0,0.0,0.0,0.0,0.0,0.0,0.0,0.0,0.0,0.0,0.0,0.0,0.0,0.0,0.0,0.0,0.0,0.0,0.0,0.0,0.0,0.0,0.0,0.0,0.0,0.0,0.0,0.0,0.0,0.0,0.0,-4.2422,0.0,0.0,0.0,0.0,0.0,0.0,0.0,-4.4615,0.0,0.0,0.0,0.0,0.0,0.0,0.0,0.0,-4.4395,-4.4338,-4.431,-4.4184,0.0,0.0,0.0,0.0,0.0,-4.5901,-4.551,-4.4799,-4.4648,-4.4205,-4.3793,0.0,0.0,0.0,0.0,0.0,0.0,0.0,0.0,0.0,0.0,0.0,0.0,0.0,0.0,0.0,0.0,0.0,0.0,0.0,0.0,0.0,0.0,0.0,0.0,0.0,-5.1214,-5.1214,-5.1214,-5.1214,-5.1214,-5.1214,-5.1214,-5.1214,-5.1214,-5.1214,-5.1214,-5.1214,-5.1214,-5.1214,-5.1214,0.0,0.0,-5.1214,-5.1214,-5.1214,-5.1167,-5.0964,-5.0855,-5.0822,-5.0614,-5.0375,-5.0168,0.0,0.0,0.0,0.0,0.0,0.0,0.0,0.0,0.0,0.0,0.0,0.0,0.0,0.0,0.0,0.0,0.0,0.0,0.0,0.0,0.0,0.0,0.0,0.0,0.0,0.0,0.0,0.0,0.0,0.0,-4.1052,-4.1897,-4.3007,-4.4276,0.0,0.0,-4.4615,-4.4615,-4.4615,-4.4615,-4.4615,0.0,0.0,0.0,0.0,0.0,0.0,0.0,0.0,-4.457,-4.4542,-4.4514,-4.431,0.0,0.0,0.0,0.0,0.0,-4.6488,-4.6285,-4.5604,-4.4799,-4.4534,-4.432,0.0,0.0,0.0,0.0,0.0,0.0,0.0,0.0,0.0,0.0,0.0,0.0,0.0,0.0,0.0,0.0,0.0,0.0,0.0,0.0,0.0,0.0,0.0,0.0,0.0,-5.1214,-5.1214,-5.1214,-5.1214,-5.1214,-5.1214,-5.1214,-5.1214,-5.1214,-5.1214,-5.1214,-5.1214,-5.1214,-5.1214,-5.1214,0.0,-5.1214,-5.1214,-5.1214,-5.1214,-5.1214,-5.1167,-5.112,-5.112,-5.087,-5.0728,-5.057,0.0,0.0,0.0,0.0,0.0,0.0,0.0,0.0,0.0,0.0,0.0,0.0,0.0,0.0,0.0,0.0,0.0,0.0,0.0,0.0,0.0,0.0,0.0,0.0,0.0,0.0,0.0,0.0,0.0,-4.0485,-4.1221,-4.2371,-4.3504,-4.4615,0.0,0.0,-4.4615,-4.4615,-4.4615,-4.4615,0.0,0.0,0.0,0.0,0.0,0.0,0.0,0.0,0.0,0.0,-4.4615,-4.457,-4.4497,0.0,0.0,0.0,0.0,0.0,-4.7008,-4.6825,-4.6337,-4.5692,-4.5046,-4.4549,0.0,0.0,0.0,0.0,0.0,0.0,0.0,0.0,0.0,0.0,0.0,0.0,0.0,0.0,0.0,0.0,0.0,0.0,0.0,0.0,0.0,0.0,0.0,0.0,0.0,0.0,-5.1214,-5.1214,-5.1214,-5.1214,-5.1214,-5.1214,-5.1214,-5.1214,-5.1214,-5.1214,-5.1214,-5.1214,-5.1214,-5.1214,0.0,-5.1214,-5.1214,-5.1214,-5.1214,-5.1214,-5.1214,-5.1214,-5.1167,-5.1058,-5.0917,-5.076,0.0,0.0,0.0,0.0,0.0,0.0,0.0,0.0,0.0,0.0,0.0,0.0,0.0,0.0,0.0,0.0,0.0,0.0,0.0,0.0,0.0,0.0,0.0,0.0,0.0,0.0,-4.0096,-4.0096,-4.0282,-4.0815,-4.1745,-4.3064,-4.4012,0.0,0.0,0.0,-4.4615,-4.4615,-4.4615,-4.4615,0.0,0.0,0.0,0.0,0.0,0.0,0.0,0.0,0.0,0.0,0.0,0.0,0.0,0.0,0.0,-4.615,-4.6672,-4.7072,-4.744,-4.732,-4.6979,-4.6547,0.0,0.0,-4.4685,0.0,0.0,0.0,0.0,0.0,0.0,0.0,0.0,0.0,0.0,0.0,0.0,0.0,0.0,0.0,0.0,0.0,0.0,0.0,0.0,0.0,0.0,0.0,0.0,0.0,-5.1214,-5.1214,-5.1214,-5.1214,-5.1214,-5.1214,-5.1214,-5.1214,-5.1214,-5.1214,-5.1214,-5.1214,-5.1214,-5.1214,-5.1214,-5.1214,-5.1214,-5.1214,-5.1214,-5.1214,-5.1214,-5.1214,-5.1214,-5.1214,-5.1058,-5.0855,0.0,0.0,0.0,0.0,0.0,0.0,0.0,0.0,0.0,0.0,0.0,0.0,0.0,0.0,0.0,0.0,0.0,0.0,0.0,0.0,0.0,0.0,0.0,0.0,0.0,-4.0163,-4.0096,-4.0096,-4.0781,-4.1863,-4.3257,-4.4096,-4.4547,-4.4615,0.0,0.0,-4.4615,-4.4615,-4.4615,-4.4615,-4.4615,0.0,0.0,0.0,0.0,0.0,0.0,0.0,0.0,0.0,0.0,0.0,0.0,0.0,-4.5543,-4.6266,-4.6901,-4.7437,-4.7867,-4.7787,-4.7538,-4.6979,0.0,0.0,-4.4986,0.0,0.0,0.0,0.0,0.0,0.0,0.0,0.0,0.0,0.0,0.0,0.0,0.0,0.0,0.0,0.0,0.0,0.0,0.0,0.0,0.0,0.0,0.0,0.0,0.0,0.0,-5.1214,-5.1214,-5.1214,-5.1214,-5.1214,-5.1214,-5.1214,-5.1214,-5.1214,-5.1214,-5.1214,-5.1214,-5.1214,-5.1214,-5.1214,-5.1214,-5.1214,-5.1214,-5.1214,-5.1214,-5.1214,-5.1214,-5.1214,-5.1167,-5.112,0.0,0.0,0.0,0.0,0.0,0.0,0.0,0.0,0.0,0.0,0.0,0.0,0.0,0.0,0.0,0.0,0.0,0.0,0.0,0.0,0.0,0.0,0.0,-4.068,-4.0436,-4.0288,-4.0425,-4.0781,-4.1982,-4.2834,-4.3409,-4.4215,0.0,0.0,0.0,0.0,-4.4615,-4.4615,-4.4615,-4.4615,-4.4615,-4.4615,0.0,0.0,0.0,0.0,0.0,0.0,0.0,0.0,-4.4615,0.0,0.0,0.0,-4.6296,-4.646,-4.7359,-4.8291,-4.8289,-4.8115,-4.7853,-4.7621,0.0,0.0,0.0,0.0,0.0,0.0,0.0,0.0,0.0,0.0,0.0,0.0,0.0,0.0,0.0,0.0,0.0,0.0,0.0,0.0,0.0,0.0,0.0,0.0,0.0,0.0,0.0,0.0,0.0,-5.1214,-5.1214,-5.1214,-5.1214,-5.1214,-5.1214,-5.1214,-5.1214,-5.1214,-5.1214,-5.1214,-5.1214,-5.1214,-5.1214,-5.1214,-5.1214,-5.1214,-5.1214,-5.1214,-5.1214,-5.1214,-5.1214,-5.1214,-5.1214,-5.1167,0.0,0.0,0.0,0.0,0.0,0.0,0.0,0.0,0.0,0.0,0.0,0.0,0.0,0.0,0.0,0.0,0.0,0.0,0.0,0.0,0.0,0.0,0.0,-4.0968,-4.0974,-4.0794,-4.0875,-4.1204,-4.2692,-4.3538,-4.3792,0.0,0.0,0.0,0.0,0.0,0.0,-4.4615,-4.4615,-4.4615,-4.4615,-4.4615,0.0,0.0,0.0,0.0,0.0,0.0,0.0,0.0,0.0,0.0,0.0,0.0,0.0,0.0,-4.7683,-4.8832,-4.8658,-4.8421,-4.8196,0.0,0.0,0.0,0.0,0.0,0.0,0.0,0.0,0.0,0.0,0.0,0.0,0.0,0.0,0.0,0.0,0.0,0.0,0.0,0.0,0.0,0.0,0.0,0.0,0.0,0.0,0.0,0.0,0.0,0.0,0.0,-5.1214,-5.1214,-5.1214,-5.1214,-5.1214,-5.1214,-5.1214,-5.1214,-5.1214,-5.1214,-5.1214,-5.1214,-5.1214,-5.1214,-5.1214,-5.1214,-5.1214,-5.1214,-5.1214,-5.1214,-5.1214,-5.1214,-5.1214,-5.1214,0.0,0.0,0.0,0.0,0.0,0.0,0.0,0.0,0.0,0.0,0.0,0.0,0.0,0.0,0.0,0.0,0.0,0.0,0.0,0.0,0.0,0.0,0.0,-4.1393,-4.1999,-4.1755,-4.1478,-4.1221,-4.2682,-4.3826,-4.4615,-4.4615,0.0,0.0,0.0,0.0,0.0,0.0,-4.4615,-4.4615,-4.4615,-4.4615,-4.4615,0.0,0.0,0.0,0.0,0.0,0.0,0.0,0.0,0.0,0.0,0.0,0.0,0.0,-4.7834,-4.897,-4.8832,-4.8818,0.0,0.0,0.0,0.0,0.0,0.0,0.0,0.0,0.0,0.0,0.0,0.0,0.0,0.0,0.0,0.0,0.0,0.0,0.0,0.0,0.0,0.0,0.0,0.0,0.0,0.0,0.0,0.0,0.0,0.0,0.0,0.0,-5.1214,-5.1214,-5.1214,-5.1214,-5.1214,-5.1214,-5.1214,-5.1214,-5.1214,-5.1214,-5.1214,-5.1214,-5.1214,-5.1214,-5.1214,-5.1214,-5.1214,-5.1214,-5.1214,-5.1214,-5.1214,-5.1214,-5.1214,-5.1214,0.0,0.0,0.0,0.0,0.0,0.0,0.0,0.0,0.0,0.0,0.0,0.0,0.0,0.0,0.0,0.0,0.0,0.0,0.0,0.0,0.0,0.0,0.0,0.0,0.0,0.0,-4.2981,-4.276,-4.3758,-4.4378,0.0,0.0,0.0,-4.4615,0.0,0.0,0.0,0.0,-4.4615,-4.4615,-4.4615,-4.4615,-4.4615,0.0,0.0,0.0,0.0,0.0,0.0,0.0,0.0,0.0,0.0,0.0,0.0,0.0,-4.7834,-4.9001,-4.8956,0.0,0.0,0.0,0.0,0.0,0.0,0.0,0.0,0.0,0.0,0.0,0.0,0.0,0.0,0.0,0.0,0.0,0.0,0.0,0.0,0.0,0.0,0.0,0.0,0.0,0.0,0.0,0.0,0.0,0.0,0.0,0.0,0.0,-5.1214,-5.1214,-5.1214,-5.1214,-5.1214,-5.1214,-5.1214,-5.1214,-5.1214,-5.1214,-5.1214,-5.1214,-5.1214,-5.1214,-5.1214,-5.1214,-5.1214,-5.1214,-5.1214,-5.1214,-5.1214,-5.1214,-5.1214,-5.1214,0.0,0.0,0.0,0.0,0.0,0.0,0.0,0.0,0.0,0.0,0.0,0.0,0.0,0.0,0.0,0.0,0.0,0.0,0.0,0.0,0.0,0.0,0.0,0.0,0.0,-4.3697,-4.4096,0.0,0.0,0.0,0.0,0.0,0.0,-4.4615,0.0,-4.4615,0.0,0.0,-4.4615,-4.4615,-4.4615,-4.4615,-4.4615,0.0,0.0,0.0,0.0,0.0,0.0,0.0,0.0,0.0,0.0,0.0,0.0,-4.7141,-4.8071,-4.9001,-4.9001,0.0,0.0,0.0,0.0,0.0,0.0,0.0,0.0,0.0,0.0,0.0,0.0,0.0,0.0,0.0,0.0,0.0,0.0,0.0,0.0,0.0,0.0,0.0,0.0,0.0,0.0,0.0,0.0,0.0,0.0,0.0,0.0,-5.1214,-5.1214,-5.1214,-5.1214,-5.1214,-5.1214,-5.1214,-5.1214,-5.1214,-5.1214,-5.1214,-5.1214,-5.1214,-5.1214,-5.1214,-5.1214,-5.1214,-5.1214,-5.1214,-5.1214,-5.1214,-5.1214,-5.1214,-5.1214,-5.1214,0.0,0.0,0.0,0.0,0.0,0.0,0.0,0.0,0.0,0.0,0.0,0.0,0.0,0.0,0.0,0.0,0.0,0.0,0.0,0.0,0.0,0.0,0.0,0.0,0.0,0.0,0.0,0.0,0.0,0.0,0.0,0.0,-4.4615,-4.4615,0.0,-4.4615,0.0,0.0,-4.4615,-4.4615,-4.4615,-4.4615,-4.4615,-4.4615,0.0,0.0,0.0,0.0,0.0,0.0,0.0,0.0,0.0,0.0,0.0,-4.7699,-4.8426,-4.9001,0.0,0.0,0.0,0.0,0.0,0.0,0.0,0.0,0.0,0.0,0.0,0.0,0.0,0.0,0.0,0.0,0.0,0.0,0.0,0.0,0.0,0.0,0.0,0.0,0.0,0.0,0.0,0.0,0.0,0.0,0.0,0.0,-5.1214,-5.1214,-5.1214,-5.1214,-5.1214,-5.1214,-5.1214,-5.1214,-5.1214,-5.1214,-5.1214,-5.1214,-5.1214,-5.1214,-5.1214,-5.1214,-5.1214,-5.1214,-5.1214,-5.1214,-5.1214,-5.1214,-5.1214,-5.1214,-5.1214,-5.1214,0.0,0.0,0.0,0.0,0.0,0.0,0.0,0.0,0.0,0.0,0.0,0.0,0.0,0.0,0.0,0.0,0.0,0.0,0.0,0.0,0.0,0.0,0.0,0.0,0.0,0.0,0.0,0.0,0.0,0.0,0.0,0.0,0.0,-4.4615,0.0,-4.4615,0.0,-4.4615,-4.4615,-4.4615,-4.4615,-4.4615,-4.4615,-4.4615,-4.4615,0.0,0.0,0.0,0.0,0.0,0.0,0.0,0.0,-4.621,-4.6938,-4.7699,-4.8426,0.0,0.0,0.0,0.0,0.0,0.0,0.0,0.0,0.0,0.0,0.0,0.0,0.0,0.0,0.0,0.0,0.0,0.0,0.0,0.0,0.0,0.0,0.0,0.0,0.0,0.0,0.0,0.0,0.0,0.0,0.0,0.0,0.0,-5.1214,-5.1214,-5.1214,-5.1214,-5.1214,-5.1214,-5.1214,0.0,-5.1214,-5.1214,-5.1214,-5.1214,-5.1214,-5.1214,-5.1214,-5.1214,-5.1214,-5.1214,-5.1214,-5.1214,-5.1214,-5.1214,-5.1214,-5.1214,-5.1214,-5.1214,0.0,0.0,0.0,0.0,0.0,0.0,0.0,0.0,0.0,0.0,0.0,0.0,0.0,0.0,0.0,0.0,0.0,0.0,0.0,0.0,0.0,0.0,0.0,0.0,0.0,0.0,0.0,0.0,0.0,0.0,0.0,0.0,0.0,-4.4615,0.0,-4.4615,0.0,-4.4615,-4.4615,-4.4615,-4.4615,-4.4615,-4.4615,-4.4615,-4.4615,-4.4615,-4.4615,0.0,0.0,0.0,0.0,0.0,0.0,0.0,-4.7479,-4.8223,-4.8714,-4.9001,0.0,0.0,0.0,0.0,0.0,0.0,0.0,0.0,0.0,0.0,0.0,0.0,0.0,0.0,0.0,0.0,0.0,0.0,0.0,0.0,0.0,0.0,0.0,0.0,0.0,0.0,0.0,0.0,0.0,0.0,0.0,-5.1214,-5.1214,-5.1214,-5.1214,-5.1214,-5.1214,-5.1214,-5.1214,-5.1214,-5.1214,-5.1214,-5.1214,-5.1214,-5.1214,-5.1214,-5.1214,-5.1214,-5.1214,-5.1214,-5.1214,-5.1214,-5.1214,-5.1214,-5.1214,-5.1214,-5.1214,-5.1214,0.0,0.0,0.0,0.0,0.0,0.0,0.0,0.0,0.0,0.0,0.0,0.0,0.0,0.0,0.0,0.0,0.0,0.0,0.0,0.0,0.0,0.0,0.0,0.0,0.0,0.0,0.0,0.0,0.0,0.0,0.0,0.0,0.0,-4.4615,0.0,0.0,0.0,0.0,-4.4615,-4.4615,-4.4615,-4.4615,-4.4615,-4.4615,-4.4615,-4.4615,-4.4615,-4.4615,-4.4632,-4.475,0.0,0.0,0.0,0.0,-4.8024,-4.8781,-4.9001,-4.9001,0.0,0.0,0.0,0.0,0.0,0.0,0.0,0.0,0.0,0.0,0.0,0.0,0.0,0.0,0.0,0.0,0.0,0.0,0.0,0.0,0.0,0.0,0.0,0.0,0.0,0.0,0.0,0.0,0.0,0.0,-5.1214,-5.1214,-5.1214,-5.1214,-5.1214,-5.1214,-5.1214,-5.1214,-5.1214,-5.1214,-5.1214,-5.1214,-5.1214,-5.1214,-5.1214,-5.1214,-5.1214,-5.1214,-5.1214,-5.1214,-5.1214,-5.1214,-5.1214,-5.1214,-5.1214,-5.1214,-5.1214,-5.1214,0.0,0.0,0.0,0.0,0.0,0.0,0.0,0.0,0.0,0.0,0.0,0.0,0.0,0.0,0.0,0.0,0.0,0.0,-4.6014,0.0,0.0,-4.6186,-4.593,0.0,0.0,0.0,0.0,0.0,0.0,0.0,0.0,0.0,0.0,-4.4615,0.0,0.0,0.0,0.0,-4.4615,-4.4615,-4.4615,-4.4615,-4.4615,-4.4615,-4.4615,-4.4615,-4.4615,-4.4615,-4.4699,-4.5331,-4.5618,0.0,0.0,0.0,-4.8024,-4.8781,-4.9001,0.0,0.0,0.0,0.0,0.0,0.0,0.0,0.0,0.0,0.0,0.0,0.0,0.0,0.0,0.0,0.0,0.0,0.0,0.0,0.0,0.0,0.0,0.0,0.0,0.0,0.0,0.0,0.0,0.0,0.0,-5.0569,-5.1184,-5.1214,-5.1214,-5.1214,-5.1214,-5.1214,-5.1214,-5.1214,-5.1214,-5.1214,-5.1214,-5.1214,-5.1214,-5.1214,-5.1214,-5.1214,-5.1214,-5.1214,-5.1214,-5.1214,-5.1214,-5.1214,-5.1214,-5.1214,-5.1214,-5.1214,-5.1214,-5.1214,0.0,0.0,0.0,0.0,0.0,0.0,0.0,0.0,0.0,0.0,0.0,0.0,0.0,0.0,0.0,-4.6224,-4.6278,-4.6406,-4.6733,-4.6669,-4.6495,-4.6211,-4.6023,-4.5744,0.0,0.0,0.0,0.0,0.0,0.0,0.0,-4.4626,-4.4615,0.0,0.0,0.0,0.0,0.0,0.0,-4.4615,-4.4615,-4.4615,-4.4615,-4.4615,-4.4615,-4.4615,-4.4615,-4.4886,-4.5263,-4.5602,-4.6261,-4.7043,-4.7686,0.0,0.0,0.0,-4.9001,0.0,0.0,0.0,0.0,0.0,0.0,0.0,0.0,0.0,0.0,0.0,0.0,0.0,0.0,0.0,0.0,0.0,0.0,0.0,0.0,0.0,0.0,0.0,0.0,0.0,0.0,0.0,0.0,0.0,-4.999,-4.999,-5.0275,-5.0214,-5.0122,-5.0122,-5.0481,-5.0629,-5.0629,-5.0988,-5.1214,-5.1214,-5.1214,-5.1214,-5.1214,-5.1214,-5.1214,-5.1214,-5.1214,-5.1214,-5.1214,-5.1214,-5.1214,-5.1214,-5.1214,-5.1214,-5.1214,-5.1214,-5.1214,-5.1214,0.0,0.0,0.0,0.0,0.0,0.0,0.0,0.0,0.0,0.0,0.0,0.0,0.0,0.0,0.0,0.0,-4.7098,-4.713,-4.7187,-4.6865,-4.6542,-4.6308,-4.613,-4.5905,-4.5606,0.0,0.0,0.0,0.0,0.0,-4.4803,-4.4709,-4.4626,0.0,-4.4615,0.0,0.0,0.0,0.0,0.0,0.0,-4.4615,-4.4615,-4.4615,-4.4615,-4.4632,-4.479,-4.5229,-4.5771,-4.6143,-4.7005,-4.7922,-4.8108,-4.8578,0.0,0.0,0.0,0.0,0.0,0.0,0.0,0.0,0.0,0.0,0.0,0.0,0.0,0.0,0.0,0.0,0.0,0.0,0.0,0.0,0.0,0.0,0.0,0.0,0.0,0.0,0.0,0.0,0.0,0.0,0.0,0.0,-4.9651,-4.955,-4.9687,-4.9479,-4.9404,-4.9404,-4.9778,-4.9987,-4.9987,-5.0481,-5.072,-5.072,-5.0885,-5.0928,-5.0928,-5.1139,-5.1214,-5.1214,-5.1214,-5.1214,-5.1214,-5.1214,-5.1214,-5.1214,-5.1214,-5.1214,-5.1214,-5.1214,-5.1214,-5.1214,0.0,0.0,0.0,0.0,0.0,0.0,0.0,0.0,0.0,0.0,0.0,0.0,-4.6947,-4.7039,-4.7275,-4.7884,-4.7937,-4.7731,-4.7223,-4.6934,-4.6749,-4.659,-4.6332,0.0,-4.6161,-4.5786,0.0,0.0,0.0,0.0,-4.4803,-4.4776,-4.4737,-4.4615,-4.4615,-4.4615,-4.4615,0.0,0.0,0.0,0.0,0.0,0.0,-4.4615,-4.4615,-4.4699,-4.5382,-4.5669,-4.5923,-4.7297,-4.7821,-4.8007,-4.8731,-4.8968,-4.9001,0.0,0.0,0.0,0.0,0.0,0.0,0.0,0.0,0.0,0.0,0.0,0.0,0.0,0.0,0.0,0.0,0.0,0.0,0.0,0.0,0.0,0.0,0.0,0.0,0.0,0.0,0.0,0.0,0.0,0.0,0.0,-4.9426,-4.9487,-4.9863,-4.9687,-4.9553,-4.9553,-4.9434,-4.9359,-4.9359,-4.9389,-4.9419,-4.9419,-5.0002,-5.024,-5.0255,-5.0883,-5.1214,-5.1214,-5.1214,-5.1214,-5.1214,-5.1214,-5.1214,-5.1214,-5.1214,-5.1214,-5.1214,-5.1214,-5.1214,-5.1214,0.0,0.0,0.0,0.0,0.0,0.0,0.0,0.0,0.0,0.0,0.0,0.0,0.0,-4.7865,-4.7898,-4.7975,-4.7809,-4.7597,-4.7421,-4.7093,-4.6911,-4.6865,-4.659,-4.6423,-4.6332,-4.6112,0.0,0.0,0.0,-4.5283,-4.5177,-4.5005,-4.4858,-4.472,-4.4626,-4.4615,-4.4615,-4.4615,0.0,0.0,0.0,0.0,0.0,0.0,0.0,0.0,0.0,0.0,-4.7179,-4.7703,-4.8193,-4.8663,-4.8917,-4.9001,-4.9001,-4.9001,-4.9001,0.0,0.0,0.0,0.0,0.0,0.0,0.0,0.0,0.0,0.0,0.0,0.0,0.0,0.0,0.0,0.0,0.0,0.0,0.0,0.0,0.0,0.0,0.0,0.0,0.0,0.0,0.0,0.0,0.0,0.0,-4.9248,-4.9074,-4.8877,-4.8635,-4.8347,-4.8666,-4.9014,-4.9314,-4.9314,-4.9314,-4.9314,-4.9508,-4.9613,-4.9628,-4.9853,-4.9972,-4.9972,-4.9972,-5.0436,-5.1214,-5.1214,-5.1214,-5.1214,-5.1214,-5.1214,-5.1214,-5.1214,-5.1214,-5.1214,0.0,0.0,0.0,0.0,0.0,0.0,0.0,0.0,0.0,0.0,0.0,0.0,0.0,0.0,-4.8209,-4.8012,-4.7726,-4.7554,-4.7511,-4.7249,-4.7116,-4.7116,-4.6911,-4.6754,-4.6661,-4.6477,0.0,0.0,0.0,0.0,0.0,-4.523,-4.5032,-4.4858,-4.4737,-4.4626,0.0,0.0,0.0,-4.4615,0.0,0.0,-4.4615,0.0,0.0,0.0,0.0,0.0,0.0,-4.8176,-4.8595,-4.9001,-4.9001,-4.9001,-4.9001,-4.9001,-4.9001,0.0,0.0,0.0,0.0,0.0,0.0,0.0,0.0,0.0,0.0,0.0,0.0,0.0,0.0,0.0,0.0,0.0,0.0,0.0,0.0,0.0,0.0,0.0,0.0,0.0,0.0,0.0,0.0,0.0,0.0,0.0,-4.8934,-4.8661,-4.8202,-4.7639,-4.8017,-4.8367,-4.8655,-4.8655,-4.8655,-4.8611,-4.888,-4.8985,-4.8985,-4.9209,-4.9314,-4.9314,-4.9314,-4.9763,-5.0556,-5.0556,-5.0556,-5.0586,-5.081,-5.0838,-5.0868,-5.1139,-5.1214,-5.1214,0.0,0.0,0.0,0.0,0.0,0.0,0.0,0.0,0.0,-4.8214,0.0,0.0,0.0,0.0,0.0,-4.8032,-4.7806,-4.7657,-4.7533,-4.7385,-4.7302,-4.7302,-4.7227,-4.7219,-4.7219,-4.6952,0.0,0.0,0.0,0.0,0.0,0.0,-4.5257,-4.5005,-4.4886,-4.4737,-4.4615,0.0,-4.4615,-4.4615,0.0,-4.4615,-4.4615,0.0,0.0,0.0,-4.6566,-4.731,0.0,-4.8765,0.0,0.0,0.0,-4.9001,-4.9001,-4.9001,-4.9001,0.0,0.0,0.0,0.0,0.0,0.0,0.0,0.0,0.0,0.0,0.0,0.0,0.0,0.0,0.0,0.0,0.0,0.0,0.0,0.0,0.0,0.0,0.0,0.0,0.0,0.0,0.0,0.0,0.0,-5.0525,-5.0253,-4.9677,-4.9138,-4.8537,-4.7681,-4.7639,-4.751,-4.7309,-4.7309,-4.7309,-4.7309,-4.7952,-4.8252,-4.8282,-4.8955,-4.9254,-4.9254,-4.9254,-4.9254,-4.9254,-4.9299,-4.9314,-4.9374,-4.9957,-5.0166,-5.024,-5.0883,-5.1154,-5.1154,0.0,0.0,0.0,0.0,0.0,0.0,0.0,0.0,0.0,0.0,0.0,0.0,-4.8306,-4.8267,-4.8207,-4.8148,-4.801,-4.7891,-4.787,-4.7681,-4.7593,-4.7593,-4.7403,-4.7276,-4.7276,-4.7138,0.0,0.0,0.0,0.0,0.0,0.0,0.0,0.0,-4.5059,-4.4886,-4.4737,-4.4626,0.0,0.0,-4.4615,-4.4615,0.0,0.0,0.0,0.0,0.0,-4.8088,-4.8731,0.0,-4.9001,-4.9001,0.0,0.0,-4.9001,-4.9001,0.0,0.0,-4.9001,0.0,0.0,0.0,0.0,0.0,0.0,0.0,0.0,0.0,0.0,0.0,0.0,0.0,0.0,0.0,0.0,0.0,0.0,0.0,0.0,0.0,0.0,0.0,0.0,0.0,0.0,0.0,-5.1135,-5.0771,-5.0292,-4.9381,-4.8728,-4.8328,-4.7837,-4.7596,-4.751,-4.7381,-4.7309,-4.7309,-4.7489,-4.7578,-4.7578,-4.7758,-4.7848,-4.7848,-4.7848,-4.7848,-4.7923,-4.8925,-4.9314,-4.9329,-4.9464,-4.9538,-4.9553,-4.9748,-4.9808,-4.9808,0.0,0.0,0.0,0.0,0.0,0.0,0.0,0.0,0.0,0.0,0.0,0.0,-4.8306,-4.8267,-4.8246,-4.8207,-4.813,-4.807,-4.8012,-4.7888,-4.7845,-4.7845,-4.7684,-4.7578,-4.7554,-4.7464,0.0,0.0,0.0,0.0,0.0,0.0,0.0,0.0,0.0,0.0,0.0,0.0,0.0,0.0,-4.4615,0.0,0.0,-4.5551,-4.6346,0.0,0.0,0.0,-4.9001,-4.9001,-4.9001,0.0,0.0,0.0,0.0,0.0,0.0,0.0,0.0,0.0,0.0,0.0,0.0,0.0,-4.9001,-4.9001,0.0,0.0,0.0,0.0,0.0,0.0,0.0,0.0,0.0,0.0,0.0,0.0,0.0,0.0,0.0,0.0,0.0,-5.2677,-5.2378,-5.1967,-5.1782,-5.1359,-5.0663,-4.9805,-4.9153,-4.8744,-4.816,-4.7794,-4.7581,-4.7381,-4.7309,-4.7309,-4.7309,-4.7309,-4.7309,-4.7309,-4.7309,-4.7309,-4.7309,-4.7309,-4.7369,-4.8132,-4.8446,-4.8476,-4.8745,-4.885,-4.894,-4.9209,-4.9314,-4.9314,0.0,0.0,0.0,0.0,0.0,0.0,0.0,0.0,0.0,0.0,-4.8306,-4.8306,-4.8306,-4.8306,-4.8286,-4.8226,-4.8207,-4.8149,-4.8032,-4.8032,-4.8012,-4.8012,-4.8012,-4.797,-4.7922,-4.7801,0.0,0.0,0.0,0.0,0.0,0.0,0.0,0.0,0.0,0.0,0.0,0.0,0.0,-4.4615,-4.4615,-4.5026,0.0,0.0,-4.6701,-4.7906,-4.7973,-4.846,-4.9001,-4.9001,-4.9001,0.0,0.0,0.0,0.0,0.0,-4.9001,0.0,0.0,0.0,0.0,0.0,0.0,0.0,-4.9001,-4.9001,-4.9001,0.0,0.0,0.0,0.0,0.0,0.0,0.0,0.0,0.0,0.0,0.0,0.0,0.0,0.0,0.0,0.0,-5.3041,-5.2799,-5.2414,-5.2343,-5.1858,-5.0876,-5.0292,-4.9677,-4.9015,-4.8578,-4.8118,-4.7624,-4.7424,-4.7309,-4.7309,-4.7309,-4.7309,-4.7309,-4.7309,-4.7309,-4.7309,-4.7309,-4.7309,-4.7309,-4.7309,-4.7309,-4.7369,-4.7952,-4.8177,-4.8252,-4.888,-4.909,-4.909,-4.8269,0.0,0.0,0.0,0.0,0.0,0.0,0.0,0.0,0.0,0.0,-4.8306,-4.8306,-4.8306,-4.8287,-4.8267,-4.8267,-4.8267,-4.8248,-4.8189,-4.8168,-4.8168,-4.807,-4.7992,-4.799,-4.7951,0.0,0.0,0.0,0.0,0.0,0.0,0.0,0.0,0.0,0.0,0.0,0.0,0.0,-4.4615,-4.4615,0.0,-4.5771,-4.6363,-4.7141,-4.7973,-4.8578,-4.8883,-4.9001,-4.9001,-4.9001,-4.9001,0.0,0.0,0.0,-4.9001,0.0,0.0,0.0,0.0,0.0,0.0,0.0,0.0,-4.9001,-4.9001,-4.9001,0.0,0.0,0.0,0.0,0.0,0.0,0.0,0.0,0.0,0.0,0.0,0.0,0.0,0.0,0.0,0.0,-5.3264,-5.311,-5.3041,-5.2555,-5.1948,-5.1167,-5.064,-5.0097,-4.9477,-4.8852,-4.8328,-4.7922,-4.7681,-4.7467,-4.7309,-4.7309,-4.7309,-4.7309,-4.7309,-4.7309,-4.7309,-4.7309,-4.7309,-4.7309,-4.7309,-4.7309,-4.7309,-4.7444,-4.7504,-4.7519,-4.7638,-4.7683,-4.7683,-4.8306,0.0,0.0,0.0,0.0,0.0,0.0,0.0,0.0,0.0,0.0,0.0,-4.8306,-4.8306,-4.8306,-4.8306,-4.8306,-4.8306,-4.8306,-4.8267,-4.8247,-4.8247,-4.8189,-4.8131,-4.809,-4.809,-4.8008,0.0,0.0,0.0,0.0,0.0,0.0,0.0,0.0,0.0,0.0,0.0,-4.5024,-4.5241,-4.5173,0.0,-4.6329,-4.7073,-4.7817,-4.8511,-4.8883,-4.9001,-4.9001,-4.9001,-4.9001,0.0,-4.9001,-4.9001,-4.9001,0.0,-4.9001,-4.9001,0.0,0.0,0.0,-4.9001,0.0,0.0,0.0,-4.9001,-4.9001,0.0,0.0,0.0,0.0,0.0,0.0,0.0,0.0,0.0,0.0,0.0,0.0,0.0,0.0,0.0,0.0,-5.2251,-5.2337,-5.2623,-5.2442,-5.2092,-5.1598,-5.1113,-5.0579,-4.9939,-4.9259,-4.8702,-4.816,-4.7794,-4.751,-4.7309,-4.7309,-4.7309,-4.7309,-4.7309,-4.7309,-4.7309,-4.7309,-4.7309,-4.7309,-4.7309,-4.7309,-4.7309,-4.7309,-4.7309,-4.7309,-4.7309,-4.7309,-4.7309,-4.8306,0.0,0.0,0.0,0.0,0.0,0.0,0.0,0.0,0.0,0.0,0.0,0.0,0.0,-4.8306,-4.8306,-4.8306,-4.8306,-4.8306,-4.8306,-4.8306,-4.8306,-4.8306,-4.8267,-4.8226,-4.8226,-4.8128,0.0,0.0,0.0,0.0,0.0,0.0,0.0,0.0,0.0,0.0,0.0,0.0,-4.592,0.0,-4.651,-4.7073,-4.7652,-4.8376,-4.9001,-4.9001,-4.9001,-4.9001,-4.9001,-4.9001,-4.9001,-4.9001,-4.9001,0.0,0.0,0.0,0.0,0.0,0.0,0.0,0.0,0.0,-4.9001,0.0,0.0,0.0,0.0,0.0,0.0,0.0,0.0,0.0,0.0,0.0,0.0,0.0,0.0,0.0,0.0,0.0,0.0,0.0,-5.1185,-5.1373,-5.1832,-5.2095,-5.2108,-5.1858,-5.1475,-5.094,-5.0276,-4.9661,-4.9031,-4.837,-4.7922,-4.7596,-4.7337,-4.7309,-4.7309,-4.7309,-4.7309,-4.7309,-4.7309,-4.7309,-4.7309,-4.7309,-4.7309,-4.7309,-4.7309,-4.7309,-4.7309,-4.7309,-4.7309,-4.7309,-4.7309,-4.8306,-4.8306,0.0,0.0,0.0,0.0,0.0,0.0,0.0,0.0,0.0,0.0,0.0,0.0,0.0,-4.8306,-4.8306,-4.8306,-4.8306,-4.8306,-4.8306,-4.8306,-4.8306,-4.8287,-4.8287,-4.8287,-4.8247,-4.8166,0.0,0.0,0.0,0.0,0.0,0.0,-4.6284,0.0,0.0,0.0,-4.6169,0.0,-4.7296,-4.7802,0.0,-4.7855,-4.8376,-4.9001,-4.9001,-4.9001,-4.9001,0.0,-4.9001,-4.9001,0.0,-4.9001,-4.9001,-4.9001,0.0,0.0,0.0,0.0,0.0,0.0,-4.9001,0.0,0.0,0.0,-4.9001,-4.9001,0.0,0.0,0.0,0.0,0.0,0.0,0.0,0.0,0.0,0.0,0.0,0.0,0.0,0.0,0.0,-5.1185,-5.1186,-5.1141,-5.1581,-5.1676,-5.1293,-5.1398,-5.1167,-5.0486,-4.986,-4.9219,-4.8578,-4.816,-4.7837,-4.7538,-4.7396,-4.7309,-4.7309,-4.7309,-4.7309,-4.7309,-4.7309,-4.7309,-4.7309,-4.7309,-4.7309,-4.7309,-4.7309,-4.7309,-4.7309,-4.7309,-4.7309,-4.7309,-4.8306,-4.8306,0.0,0.0,0.0,0.0,0.0,0.0,0.0,0.0,0.0,0.0,0.0,0.0,0.0,0.0,0.0,-4.8306,0.0,-4.8306,-4.8306,-4.8306,-4.8306,-4.8306,-4.8306,-4.8306,-4.8267,-4.8187,-4.813,0.0,0.0,0.0,0.0,0.0,-4.6542,0.0,-4.6551,0.0,-4.6918,0.0,0.0,0.0,0.0,-4.8575,-4.8731,-4.9001,-4.9001,-4.9001,-4.9001,0.0,-4.9001,0.0,0.0,0.0,0.0,-4.9001,0.0,0.0,0.0,0.0,0.0,0.0,0.0,0.0,-4.9001,0.0,-4.9001,0.0,0.0,0.0,0.0,0.0,0.0,0.0,-4.9001,0.0,0.0,0.0,0.0,0.0,0.0,0.0,0.0,0.0,0.0,0.0,-5.0909,-5.1027,-5.0739,-5.0925,-5.0753,-5.0101,-4.9906,-4.9493,-4.8857,-4.826,-4.788,-4.7581,-4.7381,-4.7309,-4.7309,-4.7309,-4.7309,-4.7309,-4.7309,-4.7309,-4.7309,-4.7309,-4.7309,-4.7309,-4.7309,-4.7309,-4.7309,-4.7309,-4.7309,-4.7309,-4.8306,0.0,0.0,0.0,0.0,0.0,0.0,0.0,0.0,0.0,0.0,0.0,-4.8655,-4.8857,0.0,0.0,-4.9003,-4.9003,0.0,0.0,-4.9003,-4.9003,-4.8765,-4.8655,-4.8655,-4.8416,-4.8286,-4.8226,0.0,0.0,0.0,0.0,0.0,0.0,0.0,-4.7203,-4.7515,0.0,0.0,-4.8905,-4.8844,-4.8992,-4.926,-4.9063,-4.9001,-4.9001,-4.9001,-4.9137,-4.9306,-4.9306,-4.9441,0.0,-4.9373,0.0,-4.9255,0.0,0.0,0.0,-4.9001,0.0,0.0,0.0,0.0,0.0,0.0,0.0,0.0,0.0,0.0,0.0,0.0,0.0,0.0,0.0,0.0,0.0,0.0,0.0,0.0,0.0,0.0,0.0,0.0,0.0,0.0,-4.9796,-5.0201,-5.0359,-5.0176,-5.0378,-5.0304,-4.9983,-4.9805,-4.9544,-4.9184,-4.851,-4.8049,-4.7794,-4.751,-4.7381,-4.7381,-4.7352,-4.7309,-4.7309,-4.7309,-4.7309,-4.7309,-4.7309,-4.7309,-4.7309,-4.7309,-4.7309,-4.7309,-4.7309,-4.7309,-4.7309,-4.8306,-4.8306,0.0,0.0,0.0,0.0,0.0,0.0,0.0,0.0,0.0,0.0,0.0,0.0,0.0,0.0,0.0,-5.0729,-5.0729,0.0,-5.0729,-5.0729,-4.9958,-4.9555,-4.9555,-4.8728,-4.8306,-4.8287,0.0,0.0,0.0,0.0,0.0,0.0,0.0,-4.8022,-4.7864,-4.9063,-4.944,-4.9229,-4.9665,-4.972,-4.9458,0.0,-4.9001,-4.9001,-4.9001,0.0,0.0,-5.005,-5.0541,0.0,0.0,0.0,0.0,0.0,0.0,0.0,0.0,0.0,0.0,-4.9001,0.0,0.0,0.0,0.0,-4.9001,0.0,0.0,0.0,0.0,0.0,0.0,-4.9001,0.0,0.0,0.0,0.0,0.0,0.0,0.0,0.0,0.0,0.0,0.0,-4.9035,-4.9523,-4.9784,-4.9622,-4.9806,-5.0082,-5.0355,-4.9646,-4.933,-4.9597,-4.8908,-4.8495,-4.8244,-4.7794,-4.7581,-4.7581,-4.7381,-4.7309,-4.7309,-4.7309,-4.7309,-4.7309,-4.7309,-4.7309,-4.7309,-4.7309,-4.7309,-4.7309,-4.7309,-4.7309,-4.7309,0.0,0.0,0.0,0.0,0.0,0.0,0.0,-4.8783,0.0,0.0,-4.9866,0.0,0.0,-5.0637,-5.0802,0.0,0.0,-5.0802,-5.0802,-5.0802,0.0,-5.0802,-5.0545,-5.038,-5.038,-4.9572,-4.917,0.0,0.0,0.0,0.0,0.0,0.0,0.0,0.0,-4.8916,0.0,0.0,0.0,0.0,0.0,-5.0147,-5.051,0.0,-4.9918,-4.9969,-5.0335,-5.0625,0.0,-5.0828,-5.0997,-5.1166,-5.0913,-5.0828,-5.0794,-5.0541,-5.0473,0.0,0.0,0.0,-4.961,-4.912,0.0,0.0,0.0,0.0,0.0,0.0,0.0,0.0,0.0,0.0,0.0,-4.9001,-4.9001,0.0,0.0,0.0,0.0,0.0,0.0,0.0,0.0,0.0,0.0,-4.9001,-4.9082,-4.906,-4.8884,-4.9161,-4.9201,-4.8939,-4.934,-4.9407,-4.915,-4.892,-4.8702,-4.8495,-4.8091,-4.7752,-4.7581,-4.7553,-4.7424,-4.7309,-4.7309,-4.7309,-4.7309,-4.7309,-4.7309,-4.7309,-4.7309,-4.7309,-4.7309,-4.7309,-4.7309,-4.7309,-4.8306,0.0,0.0,0.0,0.0,0.0,0.0,0.0,0.0,0.0,-5.0729,0.0,-5.1224,0.0,-5.1665,0.0,-5.1665,-5.1665,-5.1665,-5.1665,0.0,-5.1665,-5.1389,-5.1224,-5.1224,-5.0435,-5.0013,0.0,0.0,-4.9146,0.0,0.0,0.0,0.0,0.0,0.0,-5.0797,0.0,-5.0906,0.0,0.0,-5.0939,0.0,0.0,-5.1233,-5.0938,0.0,-5.1532,-5.1688,-5.1688,-5.1842,-5.1978,-5.1691,-5.1606,-5.1555,-5.1302,-5.1185,-5.1116,-5.0625,-5.049,0.0,-4.9915,-4.9796,0.0,-4.9458,0.0,-4.9323,0.0,0.0,0.0,0.0,0.0,0.0,0.0,-4.9001,0.0,0.0,-4.9001,0.0,0.0,0.0,0.0,0.0,0.0,-4.9001,-4.9001,-4.8925,-4.8784,0.0,0.0,-4.8646,-4.8502,-4.9114,-4.9379,-4.9174,-4.9212,-4.9138,-4.8949,-4.8453,-4.8118,-4.7949,-4.7794,-4.7639,-4.7424,-4.7424,-4.7396,-4.7309,-4.7309,-4.7309,-4.7309,-4.7309,-4.7309,-4.7309,-4.7309,-4.7309,-4.7309,-4.8416,0.0,0.0,0.0,-4.9114,0.0,0.0,0.0,-5.0857,0.0,-5.1591,-5.2105,-5.2105,-5.2839,-5.3314,-5.3314,-5.3314,-5.3314,-5.3314,-5.3314,0.0,0.0,-5.2527,-5.2087,-5.205,-5.1261,-5.0857,0.0,0.0,0.0,0.0,0.0,0.0,0.0,-5.1074,0.0,-5.1371,-5.1754,-5.1875,-5.179,-5.1961,-5.2011,-5.207,-5.3052,-5.2805,-5.1956,-5.1925,-5.2228,-5.2663,-5.2663,-5.3057,-5.3399,-5.2604,-5.235,-5.2215,-5.1539,-5.1319,-5.1319,-5.1252,-5.1236,-5.1268,-5.1217,-5.1185,0.0,0.0,0.0,-4.9949,0.0,0.0,0.0,0.0,0.0,0.0,0.0,0.0,0.0,0.0,0.0,0.0,0.0,0.0,0.0,0.0,-4.9001,-4.9001,-4.9001,-4.9001,0.0,0.0,0.0,-4.8446,-4.8928,-4.8966,-4.9232,-4.9668,-4.9817,-4.9805,-4.9637,-4.8934,-4.8661,-4.862,-4.8202,-4.788,-4.7624,-4.7624,-4.751,-4.7294,-4.7294,-4.7309,-4.7309,-4.7309,-4.7309,-4.7309,-4.7309,-4.7309,-4.7309,-5.016,-5.016,-5.016,0.0,-5.0343,-5.049,0.0,0.0,0.0,0.0,-5.2913,-5.3775,-5.3775,-5.4491,-5.4968,-5.4968,-5.4968,0.0,0.0,0.0,0.0,-5.4124,-5.3885,-5.35,-5.2913,-5.2105,-5.1683,-5.1683,0.0,0.0,-5.0743,0.0,0.0,0.0,0.0,0.0,-5.2208,-5.2315,-5.2492,-5.2709,-5.2405,-5.2986,0.0,0.0,-5.4099,-5.4244,-5.3656,-5.3536,-5.3625,-5.3625,-5.3729,-5.3799,-5.3446,-5.3345,-5.3278,-5.2993,-5.2926,-5.279,-5.2181,-5.2029,-5.1894,-5.1352,-5.1185,-5.1134,0.0,0.0,0.0,0.0,0.0,0.0,0.0,0.0,0.0,0.0,0.0,0.0,0.0,0.0,0.0,-4.9001,0.0,0.0,-4.9001,-4.9001,-4.9001,-4.9001,-4.9001,0.0,0.0,0.0,0.0,-4.8249,-4.8744,-4.9124,-4.9414,-4.9614,-4.9844,-5.0042,-4.9582,-4.921,-4.8898,-4.8578,-4.8328,-4.8118,-4.7964,-4.7752,-4.751,-4.751,-4.7424,-4.7309,-4.7309,-4.7309,-4.7309,-4.7309,-4.7309,-4.7309,-5.0802,0.0,0.0,-5.1316,0.0,0.0,-5.1426,-5.2307,0.0,-5.3041,-5.4142,0.0,-5.4913,-5.5317,-5.5614,-5.5614,-5.5614,0.0,-5.5614,0.0,0.0,-5.4932,-5.4913,-5.4546,-5.3739,-5.328,-5.2876,-5.2527,0.0,0.0,-5.1848,0.0,0.0,0.0,0.0,-5.247,0.0,-5.2912,-5.3321,-5.386,-5.3776,0.0,0.0,-5.4924,-5.5156,-5.5437,-5.4865,-5.4509,-5.4318,-5.4318,-5.4222,-5.4061,-5.3946,-5.3865,-5.3783,-5.3634,-5.3584,-5.3483,-5.2942,-5.2824,-5.2723,-5.2317,-5.2215,-5.2114,-5.1775,-5.1691,-5.1488,0.0,-5.0321,-4.9965,0.0,0.0,0.0,0.0,0.0,0.0,0.0,0.0,0.0,0.0,-4.9001,0.0,-4.9001,-4.9001,-4.9001,-4.9001,-4.9001,0.0,0.0,0.0,0.0,-4.8357,-4.8779,-4.9223,-4.967,-4.9872,-5.0215,-5.064,-5.0214,-4.9797,-4.9387,-4.9153,-4.8867,-4.8593,-4.837,-4.8133,-4.788,-4.7794,-4.7639,-4.7424,-4.7337,-4.7309,-4.7309,-4.7309,-4.7309,-4.7309,-5.1261,0.0,0.0,0.0,0.0,0.0,0.0,-5.3665,0.0,-5.4564,0.0,-5.5757,-5.5757,-5.5849,-5.5904,-5.5904,0.0,-5.5904,-5.5904,-5.5904,-5.589,-5.5757,-5.5757,-5.5372,-5.4564,-5.4564,-5.4161,0.0,0.0,0.0,0.0,0.0,0.0,0.0,0.0,0.0,0.0,-5.3626,-5.4302,-5.5118,-5.5389,-5.5532,-5.5659,-5.5905,-5.6003,-5.5975,-5.5706,-5.5277,-5.4803,-5.4772,-5.4568,-5.4316,-5.4284,-5.4173,-5.4013,-5.3832,-5.3733,-5.3717,-5.3551,-5.3534,-5.3534,-5.3501,-5.3501,-5.3315,-5.2621,-5.2469,-5.2249,-5.1505,-5.0828,-5.0321,0.0,0.0,0.0,0.0,0.0,0.0,0.0,0.0,0.0,0.0,0.0,0.0,-4.9001,-4.9001,-4.9001,0.0,0.0,0.0,0.0,0.0,0.0,-4.8818,-4.8909,-4.936,-5.0172,0.0,-5.0668,-5.128,-5.0848,-5.0425,-5.001,-4.9797,-4.9517,-4.9144,-4.8867,-4.862,-4.8412,-4.8175,-4.7922,-4.7624,-4.7424,-4.7352,-4.7352,-4.7309,-4.7309,-4.7309,-5.3647,0.0,0.0,0.0,0.0,-5.528,-5.5005,-5.5229,-5.5372,-5.5372,-5.6088,-5.6602,-5.6602,-5.7171,-5.7574,-5.7574,-5.7574,0.0,0.0,0.0,0.0,-5.662,-5.6602,-5.6216,-5.5409,-5.5372,-5.4987,0.0,0.0,0.0,0.0,0.0,0.0,0.0,0.0,0.0,-5.4019,-5.4665,0.0,-5.6126,-5.5963,-5.6292,-5.6837,-5.6582,-5.6492,-5.6465,-5.63,-5.5861,-5.5336,-5.5169,-5.5061,-5.497,-5.471,-5.4509,-5.4367,-5.4173,-5.4011,-5.3915,-5.3717,-5.3651,-5.3634,-5.3534,-5.3501,-5.3467,-5.3331,-5.3298,-5.3061,-5.2283,-5.1995,-5.1539,-5.0304,0.0,0.0,0.0,0.0,0.0,0.0,0.0,0.0,0.0,0.0,-4.9001,0.0,-4.9001,0.0,0.0,0.0,0.0,0.0,0.0,0.0,0.0,-4.8824,0.0,0.0,0.0,-5.0719,-5.1858,-5.1503,-5.1108,-5.0705,-5.0464,-5.0214,-4.9979,-4.9582,-4.9316,-4.9113,-4.8661,-4.8244,-4.788,-4.7624,-4.7553,-4.751,-4.7337,-4.7309,-4.7309,0.0,0.0,0.0,0.0,0.0,0.0,0.0,-5.6583,-5.6693,-5.6271,-5.6914,-5.7428,-5.7428,-5.7776,-5.7997,-5.7997,-5.7997,-5.7997,-5.7997,-5.7997,-5.7831,-5.7446,-5.7428,-5.706,-5.6235,-5.6216,-5.5831,-5.5023,0.0,0.0,0.0,0.0,0.0,0.0,0.0,-5.4851,0.0,0.0,0.0,-5.7113,-5.6922,-5.7067,-5.7363,-5.713,-5.6977,-5.6899,-5.6768,-5.6474,-5.6144,-5.5833,-5.566,-5.5496,-5.5217,-5.5005,-5.4821,-5.4554,-5.4382,-5.4207,-5.4011,-5.3832,-5.3684,-5.3634,-5.3551,-5.3501,-5.3501,-5.3501,-5.3399,-5.301,-5.2587,-5.1843,-5.0355,-4.9796,0.0,0.0,0.0,0.0,0.0,0.0,-4.9001,0.0,0.0,0.0,0.0,0.0,0.0,0.0,0.0,0.0,0.0,0.0,0.0,0.0,0.0,0.0,0.0,0.0,0.0,-5.2326,-5.2036,-5.1709,-5.1301,-5.1129,-5.0886,-5.0647,-5.0237,-5.0018,-4.986,-4.9219,-4.8702,-4.8286,-4.8049,-4.7794,-4.7596,-4.751,-4.7381,-4.7309,0.0,-5.5849,0.0,0.0,-5.6785,0.0,-5.7317,-5.7997,-5.8217,-5.7428,-5.7868,-5.8327,-5.8492,-5.851,-5.851,-5.851,-5.851,-5.851,-5.851,-5.8345,-5.8253,-5.8253,-5.8088,-5.7703,-5.7079,-5.706,-5.6657,0.0,0.0,0.0,0.0,0.0,0.0,0.0,0.0,0.0,0.0,0.0,-5.7271,-5.7815,-5.7697,-5.7649,-5.7625,-5.7486,-5.7381,-5.7264,-5.7181,-5.7079,-5.6925,-5.6573,-5.6255,-5.6003,-5.5724,-5.5502,-5.5289,-5.4957,-5.4759,-5.4572,-5.4333,-5.4093,-5.3832,-5.375,-5.3634,-5.3534,-5.3501,-5.3501,-5.3501,-5.3501,-5.2858,-5.1944,-5.0777,-5.0304,0.0,0.0,0.0,0.0,0.0,0.0,0.0,0.0,0.0,0.0,-4.9001,0.0,0.0,0.0,0.0,0.0,0.0,0.0,0.0,0.0,0.0,-4.954,-5.1023,0.0,-5.1413,-5.2731,-5.252,-5.2236,-5.1895,-5.1798,-5.1561,-5.1268,-5.0892,-5.0663,-5.0448,-4.9821,-4.9259,-4.8785,-4.8537,-4.8175,-4.7794,-4.7666,-4.751,-4.7337,0.0,0.0,0.0,0.0,0.0,0.0,-5.8982,-5.9667,-5.9905,-5.9074,-5.9038,-5.9368,-6.0107,-6.0181,-6.0181,-6.0181,-6.0181,-6.0181,-6.0181,-5.9478,-5.9074,-5.9074,-5.84,-5.796,-5.7886,-5.7886,-5.7483,0.0,0.0,-5.6308,0.0,0.0,0.0,0.0,0.0,0.0,0.0,-5.7551,-5.79,-5.7973,-5.7857,-5.7768,-5.7768,-5.7625,-5.7577,-5.7577,-5.7553,-5.7553,-5.7504,-5.7338,-5.6933,-5.6492,-5.6207,-5.6011,-5.5775,-5.5519,-5.5294,-5.5048,-5.4589,-5.4448,-5.4321,-5.3816,-5.3667,-5.3651,-5.3534,-5.3501,-5.3501,-5.3501,-5.2858,-5.2266,-5.2114,-5.0997,-5.0067,0.0,0.0,0.0,0.0,0.0,-4.9001,-4.9001,0.0,0.0,0.0,-4.9001,0.0,0.0,0.0,0.0,0.0,0.0,0.0,-4.9001,0.0,-4.9697,-5.1168,-5.1039,-5.1681,-5.3144,-5.2938,-5.2712,-5.252,-5.252,-5.2272,-5.1911,-5.1676,-5.1194,-5.047,-5.0409,-5.0058,-4.9477,-4.9015,-4.8702,-4.8453,-4.7837,-4.7596,-4.7553,0.0,0.0,0.0,0.0,0.0,0.0,0.0,-6.0199,-6.0456,-6.0621,-6.0236,-6.0052,-6.0364,-6.0401,-6.0401,-6.0401,-6.0401,-6.0401,-6.0401,-6.0107,-5.9924,-5.9924,-5.9153,-5.8731,-5.8731,-5.8253,-5.7831,0.0,0.0,0.0,0.0,0.0,0.0,0.0,0.0,-5.7519,-5.7538,-5.785,-5.7997,-5.7997,-5.795,-5.7927,-5.7909,-5.7862,-5.7792,-5.7721,-5.7721,-5.7673,-5.7601,-5.7553,-5.7264,-5.6925,-5.6635,-5.6465,-5.6255,-5.6011,-5.5706,-5.5425,-5.5161,-5.4793,-5.4399,-5.4076,-5.3865,-5.3651,-5.3534,-5.3501,-5.3501,-5.3501,-5.3247,-5.2875,-5.2384,-5.1826,-5.1133,-5.0236,0.0,0.0,0.0,0.0,0.0,-4.9001,0.0,-4.9001,0.0,0.0,0.0,0.0,0.0,0.0,0.0,0.0,0.0,-4.9001,0.0,-4.9712,-5.12,-5.1169,-5.1897,-5.3382,-5.3195,-5.3041,-5.2956,-5.2817,-5.2642,-5.2343,-5.2164,-5.1749,-5.1194,-5.1,-5.0618,-5.0097,-4.9661,-4.9219,-4.8728,-4.8328,-4.7964,-4.7596,-5.9446,0.0,-5.9716,0.0,-6.0603,-6.075,-6.075,-6.0951,-6.1318,-6.1887,-6.1465,-6.1117,-6.1117,-6.1117,-6.1117,-6.1117,-6.1117,-6.1117,-6.1117,-6.0878,-6.075,-6.075,-5.9997,0.0,-5.9203,-5.8657,-5.8235,-5.7997,-5.7997,0.0,0.0,0.0,0.0,0.0,-5.7997,-5.7997,-5.7997,-5.7997,-5.7997,-5.7997,-5.7997,-5.7997,-5.7997,-5.7997,-5.795,-5.7862,-5.7862,-5.7792,-5.7721,-5.7721,-5.7577,-5.7332,-5.7079,-5.6873,-5.6715,-5.6455,-5.6134,-5.5868,-5.5607,-5.5144,-5.4652,-5.4365,-5.4061,-5.3816,-5.3618,-5.3551,-5.3551,-5.3501,-5.3501,-5.3331,-5.2756,-5.2469,-5.1961,-5.0913,0.0,0.0,0.0,-4.9137,0.0,-4.9001,-4.9001,-4.9001,-4.9001,-4.9001,0.0,0.0,0.0,0.0,0.0,0.0,0.0,0.0,0.0,0.0,0.0,-5.1437,-5.2198,-5.3501,-5.3348,-5.3298,-5.3264,-5.3076,-5.2903,-5.2765,-5.2555,-5.2236,-5.1858,-5.1635,-5.1188,-5.0695,-5.0292,-4.9781,-4.9138,-4.8811,-4.837,-4.788,-6.0382,-6.0401,-6.0401,-6.0401,-6.1062,-6.1575,-6.1575,-6.2273,-6.2762,-6.2762,-6.2762,-6.2762,-6.2762,-6.2762,-6.2762,-6.2762,-6.2762,-6.2762,-6.2762,-6.2034,-6.1575,0.0,0.0,-6.0015,-5.9221,-5.9184,-5.8804,-5.7997,0.0,0.0,-5.7997,0.0,-5.7997,-5.7997,-5.7997,-5.7997,-5.7997,-5.7997,-5.7997,-5.7997,-5.7997,-5.7997,-5.7997,-5.7997,-5.7997,-5.7997,-5.7997,-5.7997,-5.7997,-5.7997,-5.7886,-5.7745,-5.748,-5.7289,-5.7138,-5.6873,-5.66,-5.629,-5.5822,-5.5455,-5.5079,-5.462,-5.4335,-5.411,-5.3766,-5.3717,-5.3651,-5.3534,-5.3501,-5.3501,-5.3501,-5.2841,-5.23,-5.2283,0.0,0.0,0.0,-4.9458,0.0,-4.9001,-4.9001,-4.9001,-4.9001,-4.9001,0.0,0.0,0.0,0.0,0.0,0.0,0.0,-4.9001,-4.9712,0.0,-5.1185,-5.1928,-5.2706,-5.3501,-5.3501,-5.3501,-5.3501,-5.3298,-5.3195,-5.3179,-5.2972,-5.2677,-5.2307,-5.2272,-5.1855,-5.1167,-5.0892,-5.0432,-4.9797,-4.9138,-4.8785,-4.8537,-6.1237,-6.1275,-6.1392,-6.1942,-6.2254,-6.242,-6.242,-6.2658,-6.278,-6.278,-6.278,-6.278,-6.278,-6.278,-6.278,0.0,-6.278,-6.278,0.0,-6.2567,-6.242,-6.242,-6.1649,-6.1098,-6.0841,-5.9753,-5.9056,-5.8822,0.0,0.0,0.0,-5.7997,-5.7997,-5.7997,-5.7997,-5.7997,-5.7997,-5.7997,-5.7997,-5.7997,-5.7997,-5.7997,-5.7997,-5.7997,-5.7997,-5.7997,-5.7997,-5.7997,-5.7997,-5.7997,-5.7973,-5.7927,-5.7857,-5.7649,-5.7412,-5.7138,-5.6951,-5.6715,-5.63,-5.5879,-5.5455,-5.5079,-5.4697,-5.4335,-5.4108,-5.3848,-5.3684,-5.3668,-5.3551,-5.3501,-5.3501,-5.3298,-5.2942,-5.2384,-5.1911,0.0,-5.0236,0.0,-4.956,-4.9069,-4.9001,-4.9001,-4.9001,-4.9001,0.0,0.0,0.0,0.0,0.0,0.0,0.0,0.0,-4.9965,0.0,-5.1944,-5.2181,-5.2706,-5.3501,-5.3501,-5.3501,-5.3501,-5.3416,-5.3382,-5.3382,-5.3195,-5.3041,-5.2886,-5.2449,-5.2164,-5.1875,-5.1301,-5.0832,-5.0432,-4.9821,-4.9356,-4.9031,-6.2179,-6.2175,-6.2267,-6.2732,-6.278,-6.278,-6.278,-6.278,-6.278,-6.278,-6.278,-6.278,-6.278,-6.278,0.0,-6.278,-6.278,-6.278,-6.278,-6.278,-6.278,-6.278,-6.2328,-6.1906,-6.1594,-6.0621,0.0,-5.9184,-5.84,-5.7997,-5.7997,-5.7997,-5.7997,-5.7997,-5.7997,-5.7997,-5.7997,-5.7997,-5.7997,-5.7997,-5.7997,-5.7997,-5.7997,-5.7997,-5.7997,-5.7997,-5.7997,-5.7997,-5.7997,-5.7997,-5.7997,-5.7997,-5.7997,-5.7904,-5.7697,-5.7504,-5.7264,-5.7003,-5.6689,-5.6255,-5.5775,-5.5484,-5.5048,-5.4665,-5.4382,-5.4076,-5.3848,-5.3816,-5.3734,-5.3651,-5.3584,-5.3584,-5.3382,-5.2824,-5.2503,-5.1978,-5.1048,0.0,-5.0236,0.0,0.0,0.0,0.0,-4.9001,-4.9001,0.0,0.0,0.0,0.0,0.0,0.0,-5.0084,-5.0625,-5.1369,-5.2283,-5.2604,-5.301,-5.3501,-5.3501,-5.3501,-5.3501,-5.3501,-5.3501,-5.3501,-5.3382,-5.3264,-5.3179,-5.2782,-5.2485,-5.2236,-5.1782,-5.1376,-5.0984,-5.0432,-5.0018,-4.9661,-6.3099,-6.3026,-6.2978,0.0,-6.2805,0.0,-6.278,-6.278,-6.278,-6.278,-6.278,-6.278,-6.278,-6.278,-6.278,-6.278,0.0,0.0,0.0,-6.278,-6.278,-6.278,-6.278,-6.2456,-6.1686,-6.163,-6.0805,-5.9184,-5.8455,-5.8052,-5.7997,-5.7997,-5.7997,-5.7997,-5.7997,-5.7997,-5.7997,-5.7997,-5.7997,-5.7997,-5.7997,-5.7997,-5.7997,-5.7997,-5.7997,-5.7997,-5.7997,-5.7997,-5.7997,-5.7997,-5.7997,-5.7997,-5.7997,-5.7997,-5.7973,-5.7839,-5.7534,-5.7206,-5.7054,-5.6617,-5.6098,-5.5822,-5.5484,-5.5109,-5.4652,-5.4414,-5.4237,-5.4078,-5.4013,-5.3948,-5.3766,-5.375,-5.3684,-5.3551,-5.2891,-5.24,-5.2317,-5.1725,-5.1014,0.0,0.0,0.0,-4.9221,-4.9154,-4.9154,0.0,0.0,0.0,0.0,0.0,-5.0236,-5.0236,-5.1572,-5.2334,-5.2384,-5.3129,-5.3501,-5.3501,-5.3501,-5.3501,-5.3501,-5.3501,-5.3501,-5.3501,-5.3501,-5.3382,-5.3213,-5.3213,-5.2852,-5.2343,-5.2307,-5.2,-5.1499,-5.1005,-5.0739,-5.0486,0.0,0.0,-6.3099,-6.2978,-6.2953,-6.2929,-6.2823,-6.278,-6.278,-6.278,-6.278,-6.278,-6.278,-6.278,-6.278,-6.278,-6.278,-6.278,-6.278,-6.278,-6.278,-6.278,-6.278,-6.2713,-6.253,-6.1906,-6.0805,-5.9184,-5.9001,-5.8602,-5.7997,-5.7997,-5.7997,-5.7997,-5.7997,-5.7997,-5.7997,-5.7997,-5.7997,-5.7997,-5.7997,-5.7997,-5.7997,-5.7997,-5.7997,-5.7997,-5.7997,-5.7997,-5.7997,-5.7997,-5.7997,-5.7997,-5.7997,-5.7997,-5.7973,-5.7839,-5.7721,-5.7577,-5.7239,-5.6959,-5.6697,-5.6328,-5.5908,-5.5502,-5.5109,-5.4913,-5.4759,-5.4554,-5.4333,-5.4141,-5.4091,-5.3996,-5.3915,-5.3899,-5.3597,-5.3175,-5.2615,-5.2247,-5.1775,0.0,-5.0947,-5.0879,-5.071,-5.0693,-5.0693,0.0,0.0,0.0,0.0,-5.1471,-5.1775,-5.1775,-5.2114,-5.2587,-5.3213,-5.3399,-5.3501,-5.3501,-5.3501,-5.3501,-5.3501,-5.3501,-5.3501,-5.3501,-5.3501,-5.3467,-5.3433,-5.3264,-5.311,-5.2921,-5.2485,-5.22,-5.2036,-5.154,-5.1296,-5.1183,-6.3761,-6.3538,-6.3331,-6.3194,-6.3123,-6.3069,-6.2978,-6.2929,-6.288,-6.288,-6.283,-6.278,-6.278,-6.278,-6.278,-6.278,-6.278,-6.278,-6.278,-6.278,-6.278,-6.278,-6.278,-6.278,-6.278,-6.2383,-6.1539,-6.0309,-5.9551,-5.8964,-5.8547,-5.8162,-5.7997,-5.7997,-5.7997,-5.7997,-5.7997,-5.7997,-5.7997,-5.7997,-5.7997,-5.7997,-5.7997,-5.7997,-5.7997,-5.7997,-5.7997,-5.7997,-5.7997,-5.7997,-5.7997,-5.7997,-5.7997,-5.7997,-5.7997,-5.7927,-5.7857,-5.7745,-5.7528,-5.7307,-5.6984,-5.66,-5.6245,-5.5936,-5.5584,-5.5467,-5.5336,-5.5109,-5.4865,-5.4631,-5.4586,-5.4428,-5.4286,-5.4126,-5.3979,-5.3744,-5.3173,-5.3007,-5.2652,-5.1809,-5.1708,-5.1589,-5.1219,-5.1185,-5.1185,-5.1185,-5.1185,0.0,-5.1691,-5.208,-5.23,-5.23,-5.2655,-5.3061,-5.3501,-5.3501,-5.3501,-5.3501,-5.3501,-5.3501,-5.3501,-5.3501,-5.3501,-5.3501,-5.3501,-5.3501,-5.3501,-5.3382,-5.3264,-5.3179,-5.2852,-5.2677,-5.2537,-5.2145,-5.1944,-5.1798,-6.4044,-6.3808,-6.3647,-6.3497,-6.3377,-6.3284,-6.3237,-6.3123,-6.3051,-6.3026,-6.2929,-6.2855,-6.2855,-6.283,-6.283,-6.283,-6.2805,-6.278,-6.278,-6.278,-6.278,-6.278,-6.278,-6.278,-6.278,-6.278,-6.242,-6.1594,-6.0236,-5.9423,-5.9184,-5.851,-5.8125,-5.7997,-5.7997,-5.7997,-5.7997,-5.7997,-5.7997,-5.7997,-5.7997,-5.7997,-5.7997,-5.7997,-5.7997,-5.7997,-5.7997,-5.7997,-5.7997,-5.7997,-5.7997,-5.7997,-5.7997,-5.7997,-5.7997,-5.7997,-5.7927,-5.7834,-5.781,-5.7528,-5.7156,-5.6794,-5.66,-5.641,-5.6116,-5.6032,-5.5947,-5.5706,-5.5455,-5.5259,-5.5156,-5.4944,-5.4679,-5.4411,-5.4284,-5.4141,-5.3865,0.0,-5.3396,-5.2619,-5.2469,-5.2249,-5.1623,-5.154,-5.154,-5.154,-5.154,-5.1826,-5.2452,-5.2486,-5.2486,-5.2486,-5.3145,-5.3501,-5.3501,-5.3501,-5.3501,-5.3501,-5.3501,-5.3501,-5.3501,-5.3501,-5.3501,-5.3501,-5.3501,-5.3501,-5.3501,-5.3501,-5.3382,-5.3264,-5.3213,-5.311,-5.2903,-5.2712,-5.252,-5.2343,-6.4407,-6.4208,-6.3977,-6.3854,-6.3761,-6.3624,-6.34,-6.3354,-6.3307,-6.3171,-6.3165,-6.3141,-6.3141,-6.3026,-6.2978,-6.2978,-6.2855,-6.278,-6.278,-6.278,-6.278,-6.278,-6.278,-6.278,-6.278,-6.278,-6.242,-6.1594,-6.1355,-6.0529,-5.9184,-5.9056,-5.8657,-5.7997,-5.7997,-5.7997,-5.7997,-5.7997,-5.7997,-5.7997,-5.7997,-5.7997,-5.7997,-5.7997,-5.7997,-5.7997,-5.7997,-5.7997,-5.7997,-5.7997,-5.7997,-5.7997,-5.7997,-5.7997,-5.7997,-5.7997,-5.7997,-5.795,-5.7815,-5.7601,-5.7338,-5.7289,-5.7105,-5.6873,-5.6715,-5.6582,-5.6465,-5.6273,-5.6003,-5.5786,-5.5775,-5.5408,-5.5109,-5.5061,-5.4728,-5.4448,-5.4367,0.0,-5.3666,-5.3514,-5.3398,-5.3281,-5.3162,-5.3145,-5.3145,-5.3145,-5.3145,-5.3196,-5.3315,-5.3315,-5.3315,-5.3315,-5.3433,-5.3501,-5.3501,-5.3501,-5.3501,-5.3501,-5.3501,-5.3501,-5.3501,-5.3501,-5.3501,-5.3501,-5.3501,-5.3501,-5.3501,-5.3501,-5.3467,-5.3433,-5.3264,-5.3179,-5.311,-5.2938,-5.2834,-5.2764,-6.4778,-6.4521,-6.4308,-6.423,-6.4083,-6.3913,-6.3805,-6.3673,-6.3583,-6.3534,-6.3465,-6.3396,-6.3307,-6.3242,-6.3194,-6.3099,-6.3051,-6.2978,-6.2904,-6.283,-6.278,-6.278,-6.278,-6.278,-6.278,-6.278,-6.2622,-6.2254,-6.1814,-6.1208,-6.0474,-5.9606,-5.8982,-5.8639,-5.8198,-5.7997,-5.7997,-5.7997,-5.7997,-5.7997,-5.7997,-5.7997,-5.7997,-5.7997,-5.7997,-5.7997,-5.7997,-5.7997,-5.7997,-5.7997,-5.7997,-5.7997,-5.7997,-5.7997,-5.7997,-5.7997,-5.7997,-5.7973,-5.7857,-5.7697,-5.7601,-5.7528,-5.7412,-5.7307,-5.7138,-5.7079,-5.6977,-5.6768,-5.6555,-5.6347,-5.6282,-5.5975,-5.5689,-5.5584,-5.5277,0.0,-5.4652,-5.4318,-5.3996,-5.3733,-5.3668,-5.3584,-5.3501,-5.3501,-5.3501,-5.3501,-5.3501,-5.3501,-5.3501,-5.3501,-5.3501,-5.3501,-5.3501,-5.3501,-5.3501,-5.3501,-5.3501,-5.3501,-5.3501,-5.3501,-5.3501,-5.3501,-5.3501,-5.3501,-5.3501,-5.3501,-5.3501,-5.3501,-5.3501,-5.3501,-5.3382,-5.3348,-5.3348,-5.3246,-5.3161,-5.3041,-6.5106,-6.4848,-6.4632,-6.4632,-6.4406,-6.4227,-6.4206,-6.4061,-6.3931,-6.3891,-6.3805,-6.3695,-6.3583,-6.3519,-6.3451,-6.3354,-6.3284,-6.3194,-6.3099,-6.2953,-6.2873,-6.2805,-6.278,-6.278,-6.278,-6.278,-6.278,-6.278,-6.2181,-6.1777,-6.1557,-6.0144,-5.9368,-5.9148,-5.8364,-5.7997,-5.7997,-5.7997,-5.7997,-5.7997,-5.7997,-5.7997,-5.7997,-5.7997,-5.7997,-5.7997,-5.7997,-5.7997,-5.7997,-5.7997,-5.7997,-5.7997,-5.7997,-5.7997,-5.7997,-5.7997,-5.7997,-5.7973,-5.7862,-5.7857,-5.7815,-5.7721,-5.7673,-5.7625,-5.7528,-5.748,-5.7406,-5.7163,-5.7028,-5.6899,-5.6768,-5.6519,-5.6263,-5.606,0.0,-5.5401,-5.4944,-5.4652,-5.4335,-5.3865,-5.3733,-5.3651,-5.3501,-5.3501,-5.3501,-5.3501,-5.3501,-5.3501,-5.3501,-5.3501,-5.3501,-5.3501,-5.3501,-5.3501,-5.3501,-5.3501,-5.3501,-5.3501,-5.3501,-5.3501,-5.3501,-5.3501,-5.3501,-5.3501,-5.3501,-5.3501,-5.3501,-5.3501,-5.3501,-5.3501,-5.3501,-5.3501,-5.3501,-5.3501,-5.3382,-5.3264,-6.5379,-6.5201,-6.5038,-6.4972,-6.4778,-6.4614,-6.4502,-6.4406,-6.4326,-6.4189,-6.4169,-6.4128,-6.4061,-6.3937,-6.383,-6.3758,-6.3515,-6.3377,-6.3377,-6.3237,-6.3069,-6.2805,-6.278,-6.278,-6.278,-6.278,-6.278,-6.278,-6.2725,-6.2328,-6.1575,-6.0731,-5.9924,-5.9148,-5.8364,-5.7997,-5.7997,-5.7997,-5.7997,-5.7997,-5.7997,-5.7997,-5.7997,-5.7997,-5.7997,-5.7997,-5.7997,-5.7997,-5.7997,-5.7997,-5.7997,-5.7997,-5.7997,-5.7997,-5.7997,-5.7997,-5.7997,-5.7997,-5.7997,-5.7997,-5.7973,-5.7973,-5.7881,-5.7768,-5.7768,-5.7673,-5.7577,-5.7577,-5.7455,-5.7313,-5.7163,-5.6951,-5.6662,-5.6428,0.0,0.0,-5.5478,-5.4886,-5.4431,-5.4205,-5.3881,-5.3651,-5.3501,-5.3501,-5.3501,-5.3501,-5.3501,-5.3501,-5.3501,-5.3501,-5.3501,-5.3501,-5.3501,-5.3501,-5.3501,-5.3501,-5.3501,-5.3501,-5.3501,-5.3501,-5.3501,-5.3501,-5.3501,-5.3501,-5.3501,-5.3501,-5.3501,-5.3501,-5.3501,-5.3501,-5.3501,-5.3501,-5.3501,-5.3501,-5.3501,-5.3467,-6.5556,-6.5435,-6.5345,-6.5271,-6.5071,-6.4919,-6.4832,-6.4743,-6.4689,-6.4633,-6.4633,-6.4558,-6.4386,-6.4309,-6.4209,-6.4065,-6.3915,-6.3808,-6.3702,-6.3561,-6.3284,-6.2929,-6.283,-6.278,-6.278,-6.278,-6.278,-6.278,-6.278,-6.2658,-6.2328,-6.1006,-6.0254,-5.9905,-5.8584,-5.7997,-5.7997,-5.7997,-5.7997,-5.7997,-5.7997,-5.7997,-5.7997,-5.7997,-5.7997,-5.7997,-5.7997,-5.7997,-5.7997,-5.7997,-5.7997,-5.7997,-5.7997,-5.7997,-5.7997,-5.7997,-5.7997,-5.7997,-5.7997,-5.7997,-5.7997,-5.7997,-5.7973,-5.7909,-5.7909,-5.7862,-5.7815,-5.7745,-5.7673,-5.7601,-5.7461,-5.7232,-5.701,-5.6925,0.0,-5.6049,-5.5793,-5.5277,-5.479,-5.4414,-5.4158,-5.3915,-5.3668,-5.3634,-5.3584,-5.3501,-5.3501,-5.3501,-5.3501,-5.3501,-5.3501,-5.3501,-5.3501,-5.3501,-5.3501,-5.3501,-5.3501,-5.3501,-5.3501,-5.3501,-5.3501,-5.3501,-5.3501,-5.3501,-5.3501,-5.3501,-5.3501,-5.3501,-5.3501,-5.3501,-5.3501,-5.3501,-5.3501,-5.3501,-5.3501,-5.3501,-6.5688,-6.5632,-6.5556,-6.5484,-6.5326,-6.5217,-6.5172,-6.5092,-6.5044,-6.5029,-6.5029,-6.4922,-6.4669,-6.4651,-6.4595,-6.4425,-6.4308,-6.4188,-6.4108,-6.3851,-6.3515,-6.3075,-6.2978,-6.2923,-6.2855,-6.2855,-6.283,-6.278,-6.278,-6.278,-6.2743,-6.1153,-6.0401,-6.0327,-5.8712,-5.7997,-5.7997,-5.7997,-5.7997,-5.7997,-5.7997,-5.7997,-5.7997,-5.7997,-5.7997,-5.7997,-5.7997,-5.7997,-5.7997,-5.7997,-5.7997,-5.7997,-5.7997,-5.7997,-5.7997,-5.7997,-5.7997,-5.7997,-5.7997,-5.7997,-5.7997,-5.7997,-5.7997,-5.7997,-5.7997,-5.7997,-5.7973,-5.7881,-5.7862,-5.7815,-5.7697,-5.751,-5.7356,-5.7213,-5.6847,-5.6447,-5.6116,-5.5642,-5.5199,-5.4759,-5.4463,-5.4175,-5.3898,-5.3799,-5.3717,-5.3584,-5.3551,-5.3551,-5.3501,-5.3501,-5.3501,-5.3501,-5.3501,-5.3501,-5.3501,-5.3501,-5.3501,-5.3501,-5.3501,-5.3501,-5.3501,-5.3501,-5.3501,-5.3501,-5.3501,-5.3501,-5.3501,-5.3501,-5.3501,-5.3501,-5.3501,-5.3501,-5.3501,-5.3501,-5.3501,-5.3501,-6.5807,-6.5793,-6.5747,-6.5608,-6.5552,-6.5494,-6.5494,-6.5435,-6.5383,-6.5324,-6.5309,-6.5226,-6.5025,-6.4989,-6.4974,-6.4907,-6.4651,-6.4502,-6.4502,-6.4128,-6.3702,-6.3237,-6.3213,-6.3141,-6.3002,-6.3002,-6.2929,-6.2805,-6.2805,-6.278,-6.2787,-6.1153,-6.0401,-6.0327,-5.8712,-5.7997,-5.7997,-5.7997,-5.7997,-5.7997,-5.7997,-5.7997,-5.7997,-5.7997,-5.7997,-5.7997,-5.7997,-5.7997,-5.7997,-5.7997,-5.7997,-5.7997,-5.7997,-5.7997,-5.7997,-5.7997,-5.7997,-5.7997,-5.7997,-5.7997,-5.7997,-5.7997,-5.7997,-5.7997,-5.7997,-5.7997,-5.7997,-5.7997,-5.7997,-5.7973,-5.7815,-5.7792,-5.7673,-5.7282,-5.7087,-5.6873,-5.6465,-5.5993,-5.559,-5.5259,-5.479,-5.4431,-5.422,-5.4093,-5.3915,-5.3717,-5.37,-5.3634,-5.3501,-5.3501,-5.3501,-5.3501,-5.3501,-5.3501,-5.3501,-5.3501,-5.3501,-5.3501,-5.3501,-5.3501,-5.3501,-5.3501,-5.3501,-5.3501,-5.3501,-5.3501,-5.3501,-5.3501,-5.3501,-5.3501,-5.3501,-5.3501,-5.3501,-5.3501,-5.3501,-5.3501,-6.5872,-6.5872,-6.5846,-6.5747,-6.572,-6.5674,-6.558,-6.5552,-6.5523,-6.5509,-6.5513,-6.5465,-6.536,-6.5298,-6.5255,-6.5196,-6.4972,-6.476,-6.4521,-6.4387,-6.4169,-6.3851,-6.3538,-6.3284,-6.3123,-6.3141,-6.3117,-6.3093,-6.2978,-6.2953,-6.2892,-6.1202,-6.0401,-6.0327,-5.8712,-5.7997,-5.7997,-5.7997,-5.7997,-5.7997,-5.7997,-5.7997,-5.7997,-5.7997,-5.7997,-5.7997,-5.7997,-5.7997,-5.7997,-5.7997,-5.7997,-5.7997,-5.7997,-5.7997,-5.7997,-5.7997,-5.7997,-5.7997,-5.7997,-5.7997,-5.7997,-5.7997,-5.7997,-5.7997,-5.7997,-5.7997,-5.7997,-5.7997,-5.7997,-5.7997,-5.795,-5.7862,-5.7768,-5.7649,-5.7338,-5.7079,-5.6847,-5.6347,-5.5872,-5.5572,-5.5217,-5.4865,-5.4586,-5.4414,-5.4271,-5.4076,-5.3815,-5.3684,-5.3651,-5.3551,-5.3501,-5.3501,-5.3501,-5.3501,-5.3501,-5.3501,-5.3501,-5.3501,-5.3501,-5.3501,-5.3501,-5.3501,-5.3501,-5.3501,-5.3501,-5.3501,-5.3501,-5.3501,-5.3501,-5.3501,-5.3501,-5.3501,-5.3501,-5.3501,-5.3501,-5.3501,-6.5897,-6.5897,-6.5885,-6.5846,-6.5833,-6.5801,-6.5742,-6.5728,-6.5715,-6.5688,-6.5688,-6.5641,-6.5552,-6.5494,-6.5469,-6.5409,-6.5271,-6.5038,-6.4777,-6.4723,-6.4558,-6.4268,-6.3984,-6.3724,-6.3447,-6.3396,-6.3331,-6.3284,-6.3147,-6.2927,-6.2577,-6.115,-6.0307,-5.994,-5.8589,-5.7997,-5.7997,-5.7997,-5.7997,-5.7997,-5.7997,-5.7997,-5.7997,-5.7997,-5.7997,-5.7997,-5.7997,-5.7997,-5.7997,-5.7997,-5.7997,-5.7997,-5.7997,-5.7997,-5.7997,-5.7997,-5.7997,-5.7997,-5.7997,-5.7997,-5.7997,-5.7997,-5.7997,-5.7997,-5.7997,-5.7997,-5.7997,-5.7997,-5.7997,-5.7997,-5.7997,-5.7927,-5.7862,-5.7792,-5.7601,-5.7338,-5.7112,-5.6724,-5.6347,-5.6021,-5.5689,-5.5348,-5.5035,-5.4852,-5.4634,-5.4333,-5.4061,-5.3848,-5.3816,-5.3668,-5.3584,-5.3584,-5.3534,-5.3501,-5.3501,-5.3501,-5.3501,-5.3501,-5.3501,-5.3501,-5.3501,-5.3501,-5.3501,-5.3501,-5.3501,-5.3501,-5.3501,-5.3501,-5.3501,-5.3501,-5.3501,-5.3501,-5.3501,-5.3501,-5.3501,-5.3501,-6.5897,-6.5897,-6.5897,-6.5897,-6.5897,-6.5897,-6.5897,-6.5897,-6.5872,-6.5807,-6.5807,-6.5761,-6.5641,-6.5608,-6.5627,-6.5627,-6.5499,-6.5329,-6.5153,-6.5073,-6.4884,-6.4558,-6.4539,-6.4328,-6.391,-6.3736,-6.3561,-6.3451,-6.3331,-6.283,-6.2017,-6.1071,-6.0195,-5.9357,-5.8433,-5.802,-5.7997,-5.7997,-5.7997,-5.7997,-5.7997,-5.7997,-5.7997,-5.7997,-5.7997,-5.7997,-5.7997,-5.7997,-5.7997,-5.7997,-5.7997,-5.7997,-5.7997,-5.7997,-5.7997,-5.7997,-5.7997,-5.7997,-5.7997,-5.7997,-5.7997,-5.7997,-5.7997,-5.7997,-5.7997,-5.7997,-5.7997,-5.7997,-5.7997,-5.7997,-5.7997,-5.7997,-5.7973,-5.7857,-5.7792,-5.7673,-5.7307,-5.713,-5.6873,-5.6492,-5.6144,-5.5879,-5.5596,-5.5354,-5.5048,-5.4606,-5.4382,-5.4173,-5.4045,-5.3832,-5.3733,-5.37,-5.3584,-5.3501,-5.3501,-5.3501,-5.3501,-5.3501,-5.3501,-5.3501,-5.3501,-5.3501,-5.3501,-5.3501,-5.3501,-5.3501,-5.3501,-5.3501,-5.3501,-5.3501,-5.3501,-5.3501,-5.3501,-5.3501,-5.3501,-5.3501,-6.5897,-6.5897,-6.5897,-6.5897,-6.5897,-6.5897,-6.5897,-6.5897,-6.5897,-6.5885,-6.5872,-6.5872,-6.584,-6.5787,-6.5767,-6.5767,-6.5627,-6.5509,-6.5435,-6.5345,-6.522,-6.4985,-6.4919,-6.4815,-6.4652,-6.4225,-6.3977,-6.3955,-6.3761,-6.3215,-6.2287,-6.1341,-6.0373,-5.9357,-5.8524,-5.8088,-5.7997,-5.7997,-5.7997,-5.7997,-5.7997,-5.7997,-5.7997,-5.7997,-5.7997,-5.7997,-5.7997,-5.7997,-5.7997,-5.7997,-5.7997,-5.7997,-5.7997,-5.7997,-5.7997,-5.7997,-5.7997,-5.7997,-5.7997,-5.7997,-5.7997,-5.7997,-5.7997,-5.7997,-5.7997,-5.7997,-5.7997,-5.7997,-5.7997,-5.7997,-5.7997,-5.7997,-5.7997,-5.7973,-5.7881,-5.7768,-5.7673,-5.7363,-5.7105,-5.6899,-5.6609,-5.6355,-5.6067,-5.5666,-5.5324,-5.5079,-5.4772,-5.4523,-5.4416,-5.4205,-5.3979,-5.37,-5.3684,-5.3601,-5.3501,-5.3501,-5.3501,-5.3501,-5.3501,-5.3501,-5.3501,-5.3501,-5.3501,-5.3501,-5.3501,-5.3501,-5.3501,-5.3501,-5.3501,-5.3501,-5.3501,-5.3501,-5.3501,-5.3501,-5.3501,-5.3501,-6.5897,-6.5897,-6.5897,-6.5897,-6.5897,-6.5897,-6.5897,-6.5897,-6.5897,-6.5897,-6.5897,-6.5897,-6.5897,-6.5872,-6.5846,-6.5846,-6.5761,-6.5674,-6.5646,-6.5556,-6.5435,-6.5295,-6.5267,-6.5188,-6.5078,-6.4742,-6.4483,-6.4288,-6.4104,-6.332,-6.1999,-6.1422,-6.0413,-5.9032,-5.8534,-5.8219,-5.8106,-5.8106,-5.8065,-5.7997,-5.7997,-5.7997,-5.7997,-5.7997,-5.7997,-5.7997,-5.7997,-5.7997,-5.7997,-5.7997,-5.7997,-5.7997,-5.7997,-5.7997,-5.7997,-5.7997,-5.7997,-5.7997,-5.7997,-5.7997,-5.7997,-5.7997,-5.7997,-5.7997,-5.7997,-5.7997,-5.7997,-5.7997,-5.7997,-5.7997,-5.7997,-5.7997,-5.7997,-5.7997,-5.795,-5.7862,-5.7792,-5.7625,-5.7412,-5.7213,-5.7028,-5.6742,-5.641,-5.6039,-5.5753,-5.5555,-5.5247,-5.5005,-5.4852,-5.454,-5.4254,-5.4078,-5.3915,-5.375,-5.3618,-5.3618,-5.3551,-5.3501,-5.3501,-5.3501,-5.3501,-5.3501,-5.3501,-5.3501,-5.3501,-5.3501,-5.3501,-5.3501,-5.3501,-5.3501,-5.3501,-5.3501,-5.3501,-5.3501,-5.3501,-5.3501,-6.5897,-6.5897,-6.5897,-6.5897,-6.5897,-6.5897,-6.5897,-6.5897,-6.5897,-6.5897,-6.5897,-6.5897,-6.5897,-6.5897,-6.5897,-6.5897,-6.5846,-6.5807,-6.5807,-6.5701,-6.5613,-6.5556,-6.5523,-6.5469,-6.5352,-6.5236,-6.4985,-6.4595,-6.4368,-6.3404,-6.1691,-6.1491,-6.0448,-5.8739,-5.8548,-5.8393,-5.8264,-5.8219,-5.8152,-5.802,-5.7997,-5.7997,-5.7997,-5.7997,-5.7997,-5.7997,-5.7997,-5.7997,-5.7997,-5.7997,-5.7997,-5.7997,-5.7997,-5.7997,-5.7997,-5.7997,-5.7997,-5.7997,-5.7997,-5.7997,-5.7997,-5.7997,-5.7997,-5.7997,-5.7997,-5.7997,-5.7997,-5.7997,-5.7997,-5.7997,-5.7997,-5.7997,-5.7997,-5.7997,-5.7997,-5.7973,-5.7857,-5.7815,-5.7721,-5.7486,-5.7332,-5.7087,-5.6742,-5.6465,-5.6217,-5.6032,-5.5782,-5.5549,-5.5319,-5.493,-5.462,-5.4606,-5.4239,-5.398,-5.3799,-5.3766,-5.3701,-5.3601,-5.3568,-5.3534,-5.3501,-5.3501,-5.3501,-5.3501,-5.3501,-5.3501,-5.3501,-5.3501,-5.3501,-5.3501,-5.3501,-5.3501,-5.3501,-5.3501,-5.3501,-5.3501,-6.5897,-6.5897,-6.5897,-6.5897,-6.5897,-6.5897,-6.5897,-6.5897,-6.5897,-6.5897,-6.5897,-6.5897,-6.5897,-6.5897,-6.5897,-6.5897,-6.5897,-6.5885,-6.5885,-6.582,-6.578,-6.5767,-6.5641,-6.558,-6.5552,-6.5479,-6.5264,-6.4938,-6.4724,-6.3746,-6.2032,-6.1826,-6.075,-5.8964,-5.876,-5.8593,-5.8446,-5.8268,-5.8197,-5.8174,-5.8042,-5.7997,-5.7997,-5.7997,-5.7997,-5.7997,-5.7997,-5.7997,-5.7997,-5.7997,-5.7997,-5.7997,-5.7997,-5.7997,-5.7997,-5.7997,-5.7997,-5.7997,-5.7997,-5.7997,-5.7997,-5.7997,-5.7997,-5.7997,-5.7997,-5.7997,-5.7997,-5.7997,-5.7997,-5.7997,-5.7997,-5.7997,-5.7997,-5.7997,-5.7997,-5.7997,-5.7973,-5.7862,-5.7792,-5.7745,-5.7528,-5.7307,-5.7156,-5.6873,-5.6662,-5.6519,-5.6263,-5.6011,-5.5833,-5.5549,-5.5221,-5.493,-5.4606,-5.4335,-5.4124,-5.4028,-5.3948,-5.3932,-5.375,-5.3601,-5.3501,-5.3501,-5.3501,-5.3501,-5.3501,-5.3501,-5.3501,-5.3501,-5.3501,-5.3501,-5.3501,-5.3501,-5.3501,-5.3501,-5.3501,-5.3501,-6.5897,-6.5897,-6.5897,-6.5897,-6.5897,-6.5897,-6.5897,-6.5897,-6.5897,-6.5897,-6.5897,-6.5897,-6.5897,-6.5897,-6.5897,-6.5897,-6.5897,-6.5897,-6.5897,-6.5872,-6.5859,-6.5859,-6.5801,-6.5742,-6.5701,-6.5674,-6.5556,-6.5345,-6.5123,-6.4101,-6.2317,-6.2122,-6.1017,-5.9215,-5.9042,-5.8842,-5.8614,-5.8508,-5.8418,-5.8305,-5.8242,-5.8174,-5.8111,-5.8111,-5.8084,-5.7997,-5.7997,-5.7997,-5.7997,-5.7997,-5.7997,-5.7997,-5.7997,-5.7997,-5.7997,-5.7997,-5.7997,-5.7997,-5.7997,-5.7997,-5.7997,-5.7997,-5.7997,-5.7997,-5.7997,-5.7997,-5.7997,-5.7997,-5.7997,-5.7997,-5.7997,-5.7997,-5.7997,-5.7997,-5.7997,-5.7997,-5.7997,-5.795,-5.7862,-5.7792,-5.7697,-5.7577,-5.7455,-5.7257,-5.7079,-5.6951,-5.6707,-5.6465,-5.631,-5.5936,-5.5677,-5.5514,-5.5109,-5.4821,-5.4648,-5.4477,-5.4318,-5.4108,-5.4011,-5.3832,-5.3601,-5.3517,-5.3501,-5.3501,-5.3501,-5.3501,-5.3501,-5.3501,-5.3501,-5.3501,-5.3501,-5.3501,-5.3501,-5.3501,-5.3501,-5.3501]},{"header":{"parameterUnit":"m.s-1","parameterCategory":1,"la1":30.6,"la2":28.766,"lo1":-90.7593,"lo2":-88.6598,"dy":0.0162,"dx":0.0183,"nx":116,"ny":114,"refTime":"2023-07-04T12:00:00:Z","depth":0,"parameterNumber":3,"parameterNumberName":"V-component_of_WINDS"},"data":[0.0,0.0,0.0,0.0,0.0,0.0,0.0,0.0,0.0,0.0,0.0,0.0,0.0,0.0,0.0,0.0,0.0,0.0,0.0,0.0,0.0,0.0,0.0,0.0,0.0,0.0,0.0,0.0,0.0,0.0,0.0,0.0,0.0,0.0,0.0,0.0,0.0,0.0,0.0,0.0,0.0,0.0,0.0,0.0,0.0,0.0,0.0,0.0,0.0,0.0,0.0,0.0,0.0,0.0,0.0,0.0,0.0,0.0,0.0,0.0,0.0,0.0,0.0,0.0,0.0,0.0,0.0,0.0,0.0,0.0,0.0,0.0,0.0,0.0,0.0,0.0,0.0,0.0,0.0,0.0,0.0,0.0,0.0,0.0,0.0,0.0,0.0,0.0,0.0,0.0,0.0,0.0,0.0,0.0,0.0,0.0,0.0,0.0,0.0,0.0,0.0,0.0,0.0,0.0,0.0,0.0,0.0,0.0,0.0,0.0,0.0,0.0,0.0,0.0,0.0,0.0,0.0,0.0,0.0,0.0,0.0,0.0,0.0,0.0,0.0,0.0,0.0,0.0,0.0,0.0,0.0,0.0,0.0,0.0,0.0,0.0,0.0,0.0,0.0,0.0,0.0,0.0,0.0,0.0,0.0,0.0,0.0,0.0,0.0,0.0,0.0,0.0,0.0,0.0,0.0,0.0,0.0,0.0,0.0,0.0,0.0,0.0,0.0,0.0,0.0,0.0,0.0,0.0,0.0,0.0,0.0,0.0,0.0,0.0,0.0,0.0,0.0,0.0,0.0,0.0,0.0,0.0,0.0,0.0,0.0,0.0,0.0,0.0,0.0,0.0,0.0,0.0,0.0,0.0,0.0,0.0,0.0,0.0,0.0,0.0,0.0,0.0,0.0,0.0,0.0,0.0,0.0,0.0,0.0,0.0,0.0,0.0,0.0,0.0,0.0,0.0,0.0,0.0,0.0,0.0,0.0,0.0,0.0,0.0,0.0,0.0,0.0,0.0,0.0,0.0,0.0,0.0,0.0,0.0,0.0,0.0,0.0,0.0,0.0,0.0,0.0,0.0,0.0,0.0,0.0,0.0,0.0,0.0,0.0,0.0,0.0,0.0,0.0,0.0,0.0,0.0,0.0,0.0,0.0,0.0,0.0,0.0,0.0,0.0,0.0,0.0,0.0,0.0,0.0,0.0,0.0,0.0,0.0,0.0,0.0,0.0,0.0,0.0,0.0,0.0,0.0,0.0,0.0,0.0,0.0,0.0,0.0,0.0,0.0,0.0,0.0,0.0,0.0,0.0,0.0,0.0,0.0,0.0,0.0,0.0,0.0,0.0,0.0,0.0,0.0,0.0,0.0,0.0,0.0,0.0,0.0,0.0,0.0,0.0,0.0,0.0,0.0,0.0,0.0,0.0,0.0,0.0,0.0,0.0,0.0,0.0,0.0,0.0,0.0,0.0,0.0,0.0,0.0,0.0,0.0,0.0,0.0,0.0,0.0,0.0,0.0,0.0,0.0,0.0,0.0,0.0,0.0,0.0,0.0,0.0,0.0,0.0,0.0,0.0,0.0,0.0,0.0,0.0,0.0,0.0,0.0,0.0,0.0,0.0,0.0,0.0,0.0,0.0,0.0,0.0,0.0,0.0,0.0,0.0,0.0,0.0,0.0,0.0,0.0,0.0,0.0,0.0,0.0,0.0,0.0,0.0,0.0,0.0,0.0,0.0,0.0,0.0,0.0,0.0,0.0,0.0,0.0,0.0,0.0,0.0,0.0,0.0,0.0,0.0,0.0,0.0,0.0,0.0,0.0,0.0,0.0,0.0,0.0,0.0,0.0,0.0,0.0,0.0,0.0,0.0,0.0,0.0,0.0,0.0,0.0,0.0,0.0,0.0,0.0,0.0,0.0,0.0,0.0,0.0,0.0,0.0,0.0,0.0,0.0,0.0,0.0,0.0,0.0,0.0,0.0,0.0,0.0,0.0,0.0,0.0,0.0,0.0,0.0,0.0,0.0,0.0,0.0,0.0,0.0,0.0,0.0,0.0,0.0,0.0,0.0,0.0,0.0,0.0,0.0,0.0,0.0,0.0,0.0,0.0,0.0,0.0,0.0,0.0,0.0,0.0,0.0,0.0,0.0,0.0,0.0,0.0,0.0,0.0,0.0,0.0,0.0,0.0,0.0,0.0,0.0,0.0,0.0,0.0,0.0,0.0,0.0,0.0,0.0,0.0,0.0,0.0,0.0,0.0,0.0,0.0,0.0,0.0,0.0,0.0,0.0,0.0,0.0,0.0,0.0,0.0,0.0,0.0,0.0,0.0,0.0,0.0,0.0,0.0,0.0,0.0,0.0,0.0,0.0,0.0,0.0,0.0,0.0,0.0,0.0,0.0,0.0,0.0,0.0,0.0,0.0,0.0,0.0,0.0,0.0,0.0,0.0,0.0,0.0,0.0,0.0,0.0,0.0,0.0,0.0,0.0,0.0,0.0,0.0,0.0,0.0,0.0,0.0,0.0,0.0,0.0,0.0,0.0,0.0,0.0,0.0,0.0,0.0,0.0,0.0,0.0,0.0,0.0,0.0,0.0,0.0,0.0,0.0,0.0,0.0,0.0,0.0,0.0,0.0,0.0,0.0,0.0,0.0,0.0,0.0,0.0,0.0,0.0,0.0,0.0,0.0,0.0,0.0,0.0,0.0,0.0,0.0,0.0,0.0,0.0,0.0,0.0,0.0,0.0,0.0,0.0,0.0,0.0,0.0,0.0,0.0,0.0,0.0,0.0,0.0,0.0,0.0,0.0,0.0,0.0,0.0,0.0,0.0,0.0,0.0,0.0,0.0,0.0,0.0,0.0,0.0,0.0,0.0,0.0,0.0,0.0,0.0,0.0,0.0,0.0,0.0,0.0,0.0,0.0,0.0,0.0,0.0,0.0,0.0,0.0,0.0,0.0,0.0,0.0,0.0,0.0,0.0,0.0,0.0,0.0,0.0,0.0,0.0,0.0,0.0,0.0,0.0,0.0,0.0,0.0,0.0,0.0,0.0,0.0,0.0,0.0,0.0,0.0,0.0,0.0,0.0,0.0,0.0,0.0,0.0,0.0,0.0,0.0,0.0,0.0,0.0,0.0,0.0,0.0,0.0,0.0,0.0,0.0,0.0,0.0,0.0,0.0,0.0,0.0,0.0,0.0,0.0,0.0,0.0,0.0,0.0,0.0,0.0,0.0,0.0,0.0,0.0,0.0,0.0,0.0,0.0,0.0,0.0,0.0,0.0,0.0,0.0,0.0,0.0,0.0,0.0,0.0,0.0,0.0,0.0,0.0,0.0,0.0,0.0,0.0,0.0,0.0,0.0,0.0,0.0,0.0,0.0,0.0,0.0,0.0,0.0,0.0,0.0,0.0,0.0,0.0,0.0,0.0,0.0,0.0,0.0,0.0,0.0,0.0,0.0,0.0,0.0,0.0,0.0,0.0,0.0,0.0,0.0,0.0,0.0,0.0,0.0,0.0,0.0,0.0,0.0,0.0,0.0,0.0,0.0,0.0,0.0,0.0,0.0,0.0,0.0,0.0,0.0,0.0,0.0,0.0,0.0,0.0,0.0,0.0,0.0,0.0,0.0,0.0,0.0,0.0,0.0,0.0,0.0,0.0,0.0,0.0,0.0,0.0,0.0,0.0,0.0,0.0,0.0,0.0,0.0,0.0,0.0,0.0,0.0,0.0,0.0,0.0,0.0,0.0,0.0,0.0,0.0,0.0,0.0,0.0,0.0,0.0,0.0,0.0,0.0,0.0,0.0,0.0,0.0,0.0,0.0,0.0,0.0,0.0,0.0,0.0,0.0,0.0,0.0,0.0,0.0,0.0,0.0,0.0,0.0,0.0,0.0,0.0,0.0,0.0,0.0,0.0,0.0,0.0,0.0,0.0,0.0,0.0,0.0,0.0,0.0,0.0,0.0,0.0,0.0,0.0,0.0,0.0,0.0,0.0,0.0,0.0,0.0,0.0,0.0,0.0,0.0,0.0,0.0,0.0,0.0,0.0,0.0,0.0,0.0,0.0,0.0,0.0,0.0,0.0,0.0,0.0,0.0,0.0,0.0,0.0,0.0,0.0,0.0,0.0,0.0,0.0,0.0,0.0,0.0,0.0,0.0,0.0,0.0,0.0,0.0,0.0,0.0,0.0,0.0,0.0,0.0,0.0,0.0,0.0,0.0,0.0,0.0,0.0,0.0,0.0,0.0,0.0,0.0,0.0,0.0,0.0,0.0,0.0,0.0,0.0,0.0,0.0,0.0,0.0,0.0,0.0,0.0,0.0,0.0,0.0,0.0,0.0,0.0,0.0,0.0,0.0,0.0,0.0,0.0,0.0,0.0,0.0,0.0,0.0,0.0,0.0,0.0,0.0,0.0,0.0,0.0,0.0,0.0,0.0,0.0,0.0,0.0,0.0,0.0,0.0,0.0,0.0,0.0,0.0,0.0,0.0,0.0,0.0,0.0,0.0,0.0,0.0,0.0,0.0,0.0,0.0,0.0,0.0,0.0,0.0,0.0,0.0,0.0,0.0,0.0,0.0,0.0,0.0,0.0,0.0,0.0,0.0,0.0,0.0,0.0,0.0,0.0,0.0,0.0,0.0,0.0,0.0,0.0,0.0,0.0,0.0,0.0,0.0,0.0,0.0,0.0,0.0,0.0,0.0,0.0,0.0,0.0,0.0,0.0,0.0,0.0,0.0,0.0,0.0,0.0,0.0,0.0,0.0,0.0,0.0,0.0,0.0,0.0,0.0,0.0,0.0,0.0,0.0,0.0,0.0,0.0,0.0,0.0,0.0,0.0,0.0,0.0,0.0,0.0,0.0,0.0,0.0,0.0,0.0,0.0,0.0,0.0,0.0,0.0,0.0,0.0,0.0,0.0,0.0,0.0,0.0,0.0,0.0,0.0,0.0,0.0,0.0,0.0,0.0,0.0,0.0,0.0,0.0,0.0,0.0,0.0,0.0,0.0,0.0,0.0,0.0,0.0,0.0,0.0,0.0,0.0,0.0,0.0,0.0,0.0,0.0,0.0,0.0,0.0,0.0,0.0,0.0,0.0,0.0,0.0,0.0,0.0,0.0,0.0,0.0,0.0,0.0,0.0,0.0,0.0,0.0,0.0,0.0,0.0,0.0,0.0,0.0,0.0,0.0,0.0,0.0,0.0,0.0,0.0,0.0,0.0,0.0,0.0,0.0,0.0,0.0,0.0,0.0,0.0,0.0,0.0,0.0,0.0,0.0,0.0,0.0,0.0,0.0,0.0,0.0,0.0,0.0,0.0,0.0,0.0,0.0,0.0,0.0,0.0,0.0,0.0,0.0,0.0,0.0,0.0,0.0,0.0,0.0,0.0,0.0,0.0,0.0,0.0,0.0,0.0,0.0,0.0,0.0,0.0,0.0,0.0,0.0,0.0,0.0,0.0,0.0,0.0,0.0,0.0,0.0,0.0,0.0,0.0,0.0,0.0,0.0,0.0,0.0,0.0,0.0,0.0,0.0,0.0,0.0,0.0,0.0,0.0,0.0,0.0,0.0,0.0,0.0,0.0,0.0,0.0,0.0,0.0,0.0,0.0,0.0,0.0,0.0,0.0,0.0,0.0,0.0,0.0,0.0,0.0,0.0,0.0,0.0,0.0,0.0,0.0,0.0,0.0,0.0,0.0,0.0,0.0,0.0,0.0,0.0,0.0,0.0,0.0,0.0,0.0,0.0,0.0,0.0,0.0,0.0,0.0,0.0,0.0,0.0,0.0,0.0,0.0,0.0,0.0,0.0,0.0,0.0,0.0,0.0,0.0,0.0,0.0,0.0,0.0,0.0,0.0,0.0,0.0,0.0,0.0,0.0,0.0,0.0,0.0,0.0,0.0,0.0,0.0,0.0,0.0,0.0,0.0,0.0,0.0,0.0,0.0,0.0,0.0,0.0,0.0,0.0,0.0,0.0,0.0,0.0,0.0,0.0,0.0,0.0,0.0,0.0,0.0,0.0,0.0,0.0,0.0,0.0,0.0,0.0,0.0,0.0,0.0,0.0,0.0,0.0,0.0,0.0,0.0,0.0,0.0,0.0,0.0,0.0,0.0,0.0,-3.9388,0.0,0.0,0.0,0.0,0.0,0.0,0.0,0.0,0.0,0.0,0.0,0.0,0.0,0.0,0.0,0.0,0.0,0.0,0.0,0.0,0.0,0.0,0.0,0.0,0.0,0.0,0.0,0.0,0.0,0.0,0.0,0.0,0.0,0.0,0.0,0.0,0.0,0.0,0.0,0.0,0.0,0.0,0.0,0.0,0.0,0.0,0.0,0.0,0.0,0.0,0.0,0.0,0.0,0.0,0.0,0.0,0.0,0.0,0.0,0.0,0.0,0.0,0.0,0.0,0.0,0.0,0.0,0.0,0.0,0.0,0.0,0.0,0.0,0.0,0.0,0.0,0.0,0.0,0.0,0.0,0.0,0.0,0.0,0.0,0.0,0.0,0.0,0.0,0.0,0.0,0.0,0.0,0.0,0.0,0.0,0.0,0.0,0.0,0.0,0.0,0.0,0.0,0.0,0.0,0.0,0.0,0.0,0.0,0.0,0.0,0.0,0.0,0.0,0.0,0.0,0.0,-3.9888,0.0,0.0,0.0,0.0,0.0,0.0,0.0,0.0,0.0,0.0,0.0,0.0,0.0,0.0,0.0,0.0,0.0,0.0,0.0,0.0,0.0,0.0,0.0,0.0,0.0,0.0,0.0,0.0,0.0,0.0,0.0,0.0,0.0,0.0,0.0,0.0,0.0,0.0,0.0,0.0,0.0,0.0,0.0,0.0,0.0,0.0,0.0,0.0,0.0,0.0,0.0,0.0,0.0,0.0,0.0,0.0,0.0,0.0,0.0,0.0,0.0,0.0,0.0,0.0,0.0,0.0,0.0,0.0,0.0,0.0,0.0,0.0,0.0,0.0,0.0,0.0,0.0,0.0,0.0,0.0,0.0,0.0,0.0,0.0,0.0,0.0,0.0,0.0,0.0,0.0,0.0,0.0,0.0,0.0,0.0,0.0,0.0,0.0,0.0,0.0,0.0,0.0,0.0,0.0,0.0,0.0,0.0,0.0,-4.0561,-4.0846,-4.1422,-4.1422,-4.1422,-4.1392,-4.0935,-4.0681,-4.0606,-4.116,0.0,0.0,0.0,0.0,0.0,0.0,0.0,0.0,0.0,0.0,0.0,0.0,0.0,0.0,0.0,0.0,0.0,0.0,0.0,0.0,0.0,0.0,0.0,0.0,0.0,0.0,0.0,0.0,0.0,0.0,0.0,0.0,0.0,0.0,0.0,0.0,0.0,0.0,0.0,0.0,0.0,0.0,0.0,0.0,0.0,0.0,0.0,0.0,0.0,0.0,0.0,0.0,0.0,0.0,0.0,0.0,0.0,0.0,0.0,0.0,0.0,0.0,0.0,0.0,0.0,0.0,0.0,0.0,0.0,0.0,0.0,0.0,0.0,0.0,0.0,0.0,0.0,0.0,0.0,0.0,0.0,0.0,0.0,0.0,0.0,0.0,-3.694,-3.7419,0.0,0.0,0.0,0.0,0.0,0.0,0.0,0.0,0.0,0.0,0.0,0.0,0.0,-4.0546,-4.1115,-4.113,-4.116,-4.1287,-4.1287,-4.1294,-4.1422,-4.1422,-4.1422,-4.1452,-4.1931,0.0,-4.1265,-4.1339,0.0,0.0,0.0,0.0,0.0,0.0,0.0,0.0,0.0,0.0,0.0,0.0,0.0,0.0,0.0,0.0,0.0,0.0,0.0,0.0,0.0,0.0,0.0,0.0,0.0,0.0,0.0,0.0,0.0,0.0,0.0,0.0,0.0,0.0,0.0,0.0,0.0,0.0,0.0,0.0,0.0,0.0,0.0,0.0,0.0,0.0,0.0,0.0,0.0,0.0,0.0,0.0,0.0,0.0,0.0,0.0,0.0,0.0,0.0,0.0,0.0,0.0,0.0,0.0,0.0,0.0,0.0,0.0,0.0,0.0,0.0,0.0,0.0,0.0,0.0,0.0,0.0,0.0,0.0,0.0,0.0,0.0,0.0,0.0,0.0,-3.7042,-3.7634,-3.7901,-3.8277,-3.8612,0.0,0.0,0.0,0.0,0.0,0.0,0.0,0.0,0.0,-4.0935,-4.095,-4.1085,-4.1422,-4.1422,-4.1602,-4.1976,-4.1976,-4.2132,-4.2476,-4.2476,-4.2476,-4.2491,-4.2776,-4.2746,-4.2476,-4.2476,-4.2476,-4.2476,0.0,0.0,0.0,0.0,-4.309,-4.329,0.0,0.0,0.0,0.0,0.0,0.0,0.0,0.0,0.0,0.0,0.0,0.0,0.0,0.0,0.0,0.0,0.0,0.0,0.0,0.0,0.0,0.0,0.0,0.0,0.0,0.0,0.0,0.0,0.0,0.0,0.0,0.0,0.0,0.0,0.0,0.0,0.0,0.0,0.0,0.0,0.0,0.0,0.0,0.0,0.0,0.0,0.0,0.0,0.0,0.0,0.0,0.0,0.0,0.0,0.0,0.0,0.0,0.0,0.0,0.0,0.0,0.0,0.0,0.0,0.0,0.0,0.0,0.0,0.0,0.0,0.0,0.0,0.0,0.0,0.0,0.0,0.0,-3.7696,-3.8075,-3.8389,-3.8686,-3.9003,0.0,0.0,0.0,0.0,0.0,0.0,-4.0651,-4.1115,-4.1497,-4.1662,-4.1677,-4.1826,-4.2132,-4.2132,-4.2462,-4.3144,-4.3144,-4.3359,-4.3798,-4.3798,-4.3798,-4.3798,-4.3798,-4.3798,-4.3768,-4.3424,-4.329,-4.329,-4.329,-4.329,-4.3319,-4.3484,-4.3544,-4.3559,0.0,0.0,0.0,0.0,0.0,0.0,0.0,0.0,0.0,0.0,0.0,0.0,0.0,0.0,0.0,0.0,0.0,0.0,0.0,0.0,0.0,0.0,0.0,0.0,0.0,0.0,0.0,0.0,0.0,0.0,0.0,0.0,0.0,0.0,0.0,0.0,0.0,0.0,0.0,0.0,0.0,0.0,0.0,0.0,0.0,0.0,0.0,0.0,0.0,0.0,0.0,0.0,0.0,0.0,0.0,0.0,0.0,0.0,0.0,0.0,0.0,0.0,0.0,0.0,0.0,0.0,0.0,0.0,0.0,0.0,0.0,0.0,0.0,0.0,0.0,0.0,0.0,0.0,0.0,-3.8995,-3.9068,0.0,0.0,0.0,0.0,-4.1235,-4.1347,-4.1324,-4.1324,-4.1369,-4.1707,-4.2336,-4.2351,-4.295,-4.4152,-4.4167,-4.4496,-4.514,-4.514,-4.517,-4.52,-4.52,-4.52,-4.52,-4.52,-4.52,-4.5095,-4.3813,-4.329,-4.329,-4.329,-4.329,-4.3364,-4.3992,-4.4272,-4.4347,0.0,0.0,0.0,0.0,0.0,0.0,0.0,0.0,0.0,0.0,0.0,0.0,0.0,0.0,0.0,0.0,0.0,0.0,0.0,0.0,0.0,0.0,0.0,0.0,0.0,0.0,0.0,0.0,0.0,0.0,0.0,0.0,0.0,0.0,0.0,0.0,0.0,0.0,0.0,0.0,0.0,0.0,0.0,0.0,0.0,0.0,0.0,0.0,0.0,0.0,0.0,0.0,0.0,0.0,0.0,0.0,0.0,0.0,0.0,0.0,0.0,0.0,0.0,0.0,0.0,0.0,0.0,0.0,0.0,0.0,0.0,0.0,0.0,0.0,0.0,0.0,0.0,0.0,0.0,-3.9684,-3.9854,0.0,-4.0965,-4.1025,-4.113,-4.1369,-4.1811,-4.2051,-4.2051,-4.2806,-4.3374,-4.3614,-4.4032,-4.4466,-4.4945,-4.4945,-4.5065,-4.5289,-4.5289,-4.5289,-4.5289,-4.5289,-4.5289,-4.5289,-4.5289,-4.5289,-4.5259,-4.4781,-4.4601,-4.4601,-4.4601,-4.4601,-4.4631,-4.4855,-4.4945,-4.4975,0.0,0.0,0.0,0.0,0.0,0.0,0.0,0.0,0.0,0.0,0.0,0.0,0.0,0.0,0.0,0.0,0.0,0.0,0.0,0.0,0.0,0.0,0.0,0.0,0.0,0.0,0.0,0.0,0.0,0.0,0.0,0.0,0.0,0.0,0.0,0.0,0.0,0.0,0.0,0.0,0.0,0.0,-3.3124,0.0,0.0,0.0,0.0,0.0,0.0,0.0,0.0,0.0,0.0,0.0,0.0,0.0,0.0,0.0,0.0,0.0,0.0,0.0,0.0,0.0,0.0,0.0,0.0,0.0,0.0,0.0,0.0,0.0,0.0,0.0,0.0,0.0,0.0,0.0,-3.9973,-4.0479,-4.0651,-4.0995,-4.1692,-4.1752,-4.1931,-4.2342,-4.2776,-4.3159,-4.3384,-4.4167,-4.4646,-4.4646,-4.5065,-4.5409,-4.5648,-4.5648,-4.5753,-4.5963,-4.5963,-4.6082,-4.6307,-4.6307,-4.6426,-4.6636,-4.6636,-4.6636,-4.6636,-4.6636,-4.6501,-4.6232,-4.5559,-4.5289,-4.5319,-4.5559,-4.5648,-4.5678,0.0,0.0,0.0,0.0,0.0,0.0,0.0,0.0,0.0,0.0,0.0,0.0,0.0,0.0,0.0,0.0,0.0,0.0,0.0,0.0,0.0,0.0,0.0,0.0,0.0,0.0,0.0,0.0,0.0,0.0,0.0,0.0,0.0,0.0,0.0,0.0,0.0,0.0,0.0,0.0,0.0,0.0,-3.3124,0.0,0.0,0.0,0.0,0.0,0.0,0.0,0.0,0.0,0.0,0.0,0.0,0.0,0.0,0.0,0.0,0.0,0.0,0.0,0.0,0.0,0.0,0.0,0.0,0.0,0.0,0.0,0.0,0.0,0.0,0.0,0.0,0.0,-3.9894,-4.058,-4.1171,-4.1414,-4.1452,-4.1707,-4.2396,-4.2455,-4.2995,-4.4242,-4.4347,-4.4616,-4.5259,-4.5319,-4.5334,-4.5334,-4.5364,-4.5708,-4.6381,-4.6369,-4.6741,-4.7369,-4.7369,-4.7698,-4.8312,-4.8312,-4.8715,-4.9314,-4.9314,-4.9314,-4.9314,-4.9314,-4.894,-4.8117,-4.6157,-4.5379,-4.5439,-4.6112,-4.6309,-4.6399,0.0,0.0,0.0,0.0,0.0,0.0,0.0,0.0,0.0,0.0,0.0,0.0,0.0,0.0,0.0,0.0,0.0,0.0,0.0,0.0,0.0,0.0,0.0,0.0,0.0,0.0,0.0,0.0,0.0,0.0,0.0,0.0,0.0,0.0,0.0,0.0,0.0,0.0,0.0,0.0,0.0,0.0,-3.3124,0.0,0.0,0.0,0.0,0.0,0.0,0.0,0.0,0.0,0.0,0.0,0.0,0.0,0.0,0.0,0.0,0.0,0.0,0.0,0.0,0.0,0.0,0.0,0.0,0.0,0.0,0.0,0.0,0.0,0.0,0.0,0.0,-4.1165,-4.0595,-4.0961,-4.1526,-4.2066,-4.2126,-4.2575,-4.3673,-4.3778,-4.4122,-4.496,-4.5035,-4.511,-4.5289,-4.5768,-4.6037,-4.6037,-4.6965,-4.7549,-4.7743,-4.8222,-4.8551,-4.8775,-4.8775,-4.8865,-4.9045,-4.9045,-4.9149,-4.9314,-4.9314,-4.9314,-4.9314,-4.9314,-4.9209,-4.894,-4.7863,-4.7174,-4.677,-4.6965,-4.704,-4.7055,0.0,0.0,0.0,0.0,0.0,0.0,0.0,0.0,0.0,0.0,0.0,0.0,0.0,0.0,0.0,0.0,0.0,0.0,0.0,0.0,0.0,0.0,0.0,0.0,0.0,0.0,0.0,0.0,0.0,0.0,0.0,0.0,0.0,0.0,0.0,0.0,0.0,0.0,0.0,0.0,0.0,0.0,-3.3124,-3.3124,-3.3124,-3.3124,-3.3124,-3.3124,-3.3124,-3.3124,0.0,0.0,0.0,0.0,0.0,0.0,0.0,0.0,0.0,0.0,0.0,0.0,0.0,0.0,0.0,0.0,0.0,0.0,0.0,0.0,0.0,0.0,0.0,0.0,-4.1613,-4.2035,-4.177,-4.1998,-4.2447,-4.3105,-4.318,-4.3584,-4.4631,-4.4721,-4.5005,-4.5678,-4.5723,-4.5963,-4.6516,-4.6935,-4.7279,-4.7549,-4.8297,-4.8701,-4.8701,-4.912,-4.9314,-4.9314,-4.9314,-4.9449,-4.9673,-4.9673,-4.9823,0.0,-5.0092,-5.0092,-5.0092,-5.0092,-4.9927,0.0,0.0,0.0,0.0,0.0,-4.8132,-4.8132,0.0,0.0,0.0,0.0,0.0,0.0,0.0,0.0,0.0,0.0,0.0,0.0,0.0,0.0,0.0,0.0,0.0,0.0,0.0,0.0,0.0,0.0,0.0,0.0,0.0,0.0,0.0,0.0,0.0,0.0,0.0,0.0,0.0,0.0,0.0,0.0,0.0,0.0,0.0,0.0,0.0,0.0,-3.3124,-3.3124,-3.3124,-3.3124,-3.3124,-3.3124,-3.3124,-3.3124,0.0,0.0,0.0,0.0,0.0,0.0,0.0,0.0,0.0,0.0,0.0,0.0,0.0,0.0,0.0,0.0,0.0,0.0,0.0,0.0,0.0,0.0,0.0,0.0,-4.2503,-4.2872,-4.3099,-4.3374,-4.3708,-4.4257,-4.4377,-4.4691,-4.5349,-4.5409,-4.5723,-4.6486,-4.6546,-4.7085,-4.8341,0.0,0.0,0.0,0.0,-4.9419,-4.9419,-4.9494,-4.9524,-4.9524,-4.9524,-4.9793,-5.03,-5.03,-5.0629,-5.1214,-5.1214,-5.1214,-5.1214,-5.1214,-5.0823,-5.0226,-4.9553,-4.9314,-4.9314,-4.9314,-4.9314,-4.9314,0.0,0.0,0.0,0.0,0.0,0.0,0.0,0.0,0.0,0.0,0.0,0.0,0.0,0.0,0.0,0.0,0.0,0.0,0.0,0.0,0.0,0.0,0.0,0.0,0.0,0.0,0.0,0.0,0.0,0.0,0.0,0.0,0.0,0.0,0.0,0.0,0.0,0.0,0.0,0.0,0.0,0.0,-3.3124,-3.3124,-3.3124,-3.3124,-3.3124,-3.3124,-3.3124,-3.3124,-3.3124,-3.3124,-3.3124,0.0,0.0,0.0,0.0,0.0,0.0,0.0,0.0,0.0,0.0,0.0,0.0,0.0,0.0,0.0,0.0,0.0,0.0,0.0,0.0,-4.243,-4.3089,-4.3634,-4.4001,-4.453,-4.4766,-4.4362,-4.4781,-4.5379,-4.6052,-4.6127,-4.6621,-4.7818,-4.7908,-4.8252,-4.9075,-4.912,-4.9179,-4.9314,-4.9778,-5.0001,-5.0001,-5.0571,-5.084,-5.084,0.0,0.0,-5.0988,-5.0988,-5.1094,-5.1214,-5.1214,-5.1214,-5.1214,-5.1214,-5.1139,-5.0915,-4.9733,-4.9314,-4.9314,-4.9314,-4.9314,-4.9314,0.0,0.0,0.0,0.0,0.0,0.0,0.0,0.0,0.0,0.0,0.0,0.0,0.0,0.0,0.0,0.0,0.0,0.0,0.0,0.0,0.0,0.0,0.0,0.0,0.0,0.0,0.0,0.0,0.0,0.0,0.0,0.0,0.0,0.0,0.0,0.0,0.0,0.0,0.0,0.0,0.0,0.0,-3.3124,-3.3124,-3.3124,-3.3124,-3.3124,-3.3124,-3.3124,-3.3124,-3.3124,-3.3124,-3.3124,-3.3124,-3.3124,0.0,0.0,0.0,0.0,0.0,0.0,0.0,0.0,0.0,0.0,0.0,0.0,0.0,0.0,-3.9043,0.0,0.0,-4.1551,-4.2663,-4.3206,-4.3779,-4.456,-4.5227,-4.5568,-4.5323,-4.5618,-4.6067,-4.6756,-4.7115,-4.7578,-4.8237,-4.8596,-4.906,-4.9718,-4.9748,-4.9898,-5.0227,-5.0556,-5.0689,-5.0689,-5.1003,-5.1214,-5.1214,-5.1214,-5.1214,-5.1214,-5.1214,-5.1214,-5.1214,-5.1214,-5.1214,-5.1214,-5.1214,-5.1214,-5.1154,-5.0496,-5.0242,-5.0242,-5.0242,-5.0242,-5.0242,0.0,0.0,0.0,0.0,0.0,0.0,0.0,0.0,0.0,0.0,0.0,0.0,0.0,0.0,0.0,0.0,0.0,0.0,0.0,0.0,0.0,0.0,0.0,0.0,0.0,0.0,0.0,0.0,0.0,0.0,0.0,0.0,0.0,0.0,0.0,0.0,0.0,0.0,0.0,0.0,0.0,0.0,-3.3124,-3.3124,-3.3124,-3.3124,-3.3124,-3.3124,-3.3124,-3.3124,-3.3124,-3.3124,-3.3124,-3.3124,-3.3124,-3.3124,-3.3124,0.0,0.0,0.0,0.0,0.0,0.0,0.0,0.0,0.0,-3.6695,-3.7547,-3.8355,-3.9162,-3.9998,-4.0715,-4.1483,-4.2651,-4.3294,-4.3941,-4.4879,-4.5673,-4.6233,-4.6524,-4.6625,-4.692,-4.7444,-4.8087,-4.8521,-4.8656,-4.9149,-4.9733,-5.0345,-5.0375,-5.0629,-5.1199,-5.1214,-5.1214,-5.1214,-5.1214,-5.1214,-5.1214,-5.1214,-5.1214,-5.1214,-5.1214,-5.1214,-5.1214,-5.1214,-5.1214,-5.1214,-5.1214,-5.1214,-5.1214,-5.1214,-5.1214,-5.1214,-5.1214,-5.1214,-5.1214,0.0,0.0,0.0,0.0,0.0,0.0,0.0,0.0,0.0,0.0,0.0,0.0,0.0,0.0,0.0,0.0,0.0,0.0,0.0,0.0,0.0,0.0,0.0,0.0,0.0,0.0,0.0,0.0,0.0,0.0,0.0,0.0,0.0,0.0,0.0,0.0,0.0,0.0,0.0,0.0,0.0,0.0,-3.3124,-3.3124,-3.3124,-3.3124,-3.3124,-3.3124,-3.3124,-3.3124,-3.3124,-3.3124,-3.3124,-3.3124,-3.3124,-3.3124,0.0,-3.3124,-3.3124,-3.3432,-3.406,-3.5056,-3.5357,-3.5558,0.0,0.0,-3.7124,-3.7433,-3.8245,-3.9073,-3.9604,-4.0674,-4.1705,-4.2267,-4.369,-4.4836,-4.5127,-4.5976,-4.6742,-4.7317,-4.7792,-4.8102,-4.8162,-4.8775,-4.9389,-4.9927,-5.0046,-5.0375,-5.1065,-5.1109,-5.1139,-5.1214,-5.1214,-5.1214,-5.1214,-5.1214,-5.1214,-5.1214,-5.1214,-5.1214,-5.1214,-5.1214,-5.1214,-5.1214,-5.1214,-5.1214,-5.1214,-5.1214,-5.1214,-5.1214,-5.1214,-5.1214,-5.1214,-5.1214,-5.1214,-5.1214,0.0,0.0,0.0,0.0,0.0,0.0,0.0,0.0,0.0,0.0,0.0,0.0,0.0,0.0,0.0,0.0,0.0,0.0,0.0,0.0,0.0,0.0,0.0,0.0,0.0,0.0,0.0,0.0,0.0,0.0,0.0,0.0,0.0,0.0,0.0,0.0,0.0,0.0,0.0,0.0,0.0,0.0,-3.3124,-3.3124,-3.3124,-3.3124,-3.3124,-3.3124,0.0,0.0,-3.3124,-3.3124,-3.3124,-3.3124,-3.3124,-3.3124,-3.3124,0.0,-3.347,-3.4198,-3.4919,0.0,-3.578,-3.6081,-3.6355,-3.664,-3.7015,-3.7413,-3.7939,-3.8655,-3.9726,-4.0491,-4.1366,0.0,-4.3629,-4.449,-4.5043,-4.5737,-4.6473,-4.7238,-4.7967,-4.8491,-4.8641,-4.9358,-4.9942,-5.0166,-5.0539,-5.0883,-5.1214,-5.1214,-5.1214,-5.1214,-5.1214,-5.1214,-5.1214,-5.1214,-5.1214,-5.1214,-5.1214,-5.1214,-5.1214,-5.1214,-5.1214,-5.1214,-5.1214,-5.1214,-5.1214,-5.1214,-5.1214,-5.1214,-5.1214,-5.1214,-5.1214,-5.1214,-5.1214,-5.1214,0.0,0.0,0.0,0.0,0.0,0.0,0.0,0.0,0.0,0.0,0.0,0.0,0.0,0.0,0.0,0.0,0.0,0.0,0.0,0.0,0.0,0.0,0.0,0.0,0.0,0.0,0.0,0.0,0.0,0.0,0.0,0.0,0.0,0.0,0.0,0.0,0.0,0.0,0.0,0.0,0.0,0.0,-3.2982,-3.2982,-3.3038,-3.3124,-3.3124,-3.3124,0.0,0.0,-3.3124,-3.3124,-3.3124,-3.3124,-3.3124,-3.3124,-3.3181,-3.342,-3.3972,0.0,0.0,-3.5683,-3.6069,-3.6405,-3.6405,-3.6534,-3.6815,-3.7214,-3.7618,-3.8306,-3.9564,-4.0218,-4.1046,-4.2471,-4.3273,-4.3955,-4.4591,-4.5373,-4.6145,-4.6937,-4.787,-4.8617,-4.9103,-4.9825,-5.0326,-5.0357,-5.0805,-5.112,-5.1214,-5.1214,-5.1214,-5.1214,-5.1214,-5.1214,-5.1214,-5.1214,-5.1214,-5.1214,-5.1214,-5.1214,-5.1214,-5.1214,-5.1214,-5.1214,-5.1214,-5.1214,-5.1214,-5.1214,-5.1214,-5.1214,-5.1214,-5.1214,-5.1214,-5.1214,-5.1214,-5.1214,0.0,0.0,0.0,0.0,0.0,0.0,0.0,0.0,0.0,0.0,0.0,0.0,0.0,0.0,0.0,0.0,0.0,0.0,0.0,0.0,0.0,0.0,0.0,0.0,0.0,0.0,0.0,0.0,0.0,0.0,0.0,0.0,0.0,0.0,0.0,0.0,0.0,0.0,0.0,0.0,0.0,0.0,-3.2711,-3.2711,-3.2853,-3.3124,-3.3124,0.0,0.0,0.0,-3.3124,-3.3124,-3.3124,-3.3124,0.0,-3.3124,-3.3458,-3.3997,0.0,0.0,-3.5621,-3.6207,-3.6405,-3.6405,-3.6405,-3.6534,-3.6709,-3.6709,-3.7328,-3.8077,-3.8652,-3.9827,-4.0918,-4.1537,-4.276,-4.3634,-4.3648,-4.4855,-4.595,-4.6546,-4.7606,-4.8687,0.0,-5.0154,-5.0585,-5.0778,-5.0793,-5.0917,-5.1167,-5.1214,-5.1214,-5.1214,-5.1214,-5.1214,-5.1214,-5.1214,-5.1214,-5.1214,-5.1214,-5.1214,-5.1214,-5.1214,-5.1214,-5.1214,-5.1214,-5.1214,-5.1214,-5.1214,-5.1214,-5.1214,-5.1214,-5.1214,-5.1214,-5.1214,-5.1214,-5.1214,0.0,0.0,0.0,0.0,0.0,0.0,0.0,0.0,0.0,0.0,0.0,0.0,0.0,0.0,0.0,0.0,0.0,0.0,0.0,0.0,0.0,0.0,0.0,0.0,0.0,0.0,0.0,0.0,0.0,0.0,0.0,0.0,0.0,0.0,0.0,0.0,0.0,0.0,0.0,0.0,0.0,0.0,-3.2264,-3.2419,-3.2636,-3.2853,0.0,0.0,0.0,0.0,0.0,0.0,-3.3124,0.0,0.0,-3.352,-3.401,-3.4562,-3.5069,0.0,-3.6132,-3.6367,-3.6405,-3.6405,-3.6405,-3.6452,-3.6534,-3.6675,-3.7215,-3.7946,-3.8847,-3.9839,-4.0755,-4.1546,-4.235,-4.2873,-4.2873,-4.4042,-4.5135,-4.5811,-4.682,0.0,0.0,0.0,0.0,-5.0567,-5.0614,-5.0614,-5.0724,-5.0724,-5.0805,-5.0917,-5.0917,-5.1011,-5.1214,-5.1214,-5.1214,-5.1214,-5.1214,-5.1214,-5.1214,-5.1214,-5.1214,-5.1214,-5.1214,-5.1214,-5.1214,-5.1214,-5.1214,-5.1214,-5.1214,-5.1214,-5.1214,-5.1214,-5.1214,-5.1214,0.0,0.0,0.0,0.0,0.0,0.0,0.0,0.0,0.0,0.0,0.0,0.0,0.0,0.0,0.0,0.0,0.0,0.0,0.0,0.0,0.0,0.0,0.0,0.0,0.0,0.0,0.0,0.0,0.0,0.0,0.0,0.0,0.0,0.0,0.0,0.0,0.0,0.0,0.0,0.0,0.0,0.0,-3.1649,-3.2025,-3.2276,0.0,0.0,0.0,0.0,0.0,0.0,0.0,0.0,-3.3124,-3.3224,-3.3734,-3.4286,-3.4806,-3.5345,-3.5943,-3.6405,-3.6405,-3.6405,-3.6405,-3.6405,-3.6405,-3.6452,-3.6581,-3.7131,-3.7858,-3.8746,-3.9543,-4.0359,-4.1156,-4.1647,-4.1957,-4.2056,-4.3368,-4.4502,-4.4998,-4.6119,-4.7188,0.0,0.0,0.0,-5.0004,-5.0053,-5.0149,-5.0342,-5.0342,-5.0471,-5.0695,-5.0695,-5.079,-5.0947,-5.0947,-5.0994,-5.1058,-5.1167,-5.1214,-5.1214,-5.1214,-5.1214,-5.1214,-5.1214,-5.1214,-5.1214,-5.1214,-5.1214,-5.1214,-5.1214,-5.1214,-5.1214,-5.1214,-5.1214,-5.1214,0.0,0.0,0.0,0.0,0.0,0.0,0.0,0.0,0.0,0.0,0.0,0.0,0.0,0.0,0.0,0.0,0.0,0.0,0.0,0.0,0.0,0.0,0.0,0.0,0.0,0.0,0.0,0.0,0.0,0.0,0.0,0.0,0.0,0.0,0.0,0.0,0.0,0.0,0.0,0.0,0.0,0.0,-3.0904,-3.1439,0.0,0.0,0.0,0.0,0.0,0.0,0.0,0.0,0.0,0.0,-3.3194,-3.3771,-3.4311,-3.4806,-3.5382,-3.5968,-3.6405,-3.6405,-3.6405,-3.6405,-3.6405,-3.6405,-3.6417,-3.6443,-3.7086,-3.78,0.0,0.0,-3.98,-4.0414,-4.0694,-4.0997,-4.1211,-4.2763,-4.3902,0.0,0.0,0.0,0.0,0.0,0.0,-4.9058,0.0,-4.9453,-4.999,-5.0038,-5.0149,-5.0453,-5.0453,-5.0453,-5.0501,-5.0501,-5.0614,-5.0807,-5.1026,-5.1167,-5.1167,-5.1167,-5.1167,-5.1167,-5.1167,-5.1167,-5.1214,-5.1214,-5.1214,-5.1214,-5.1214,-5.1214,-5.1214,-5.1214,-5.1214,-5.1214,0.0,0.0,0.0,0.0,0.0,0.0,0.0,0.0,0.0,0.0,0.0,0.0,0.0,0.0,0.0,0.0,0.0,0.0,0.0,0.0,0.0,0.0,0.0,0.0,0.0,0.0,0.0,0.0,0.0,0.0,0.0,0.0,0.0,0.0,0.0,0.0,0.0,0.0,0.0,0.0,0.0,0.0,-2.9943,0.0,0.0,0.0,0.0,0.0,0.0,0.0,0.0,0.0,0.0,-3.3124,-3.3269,-3.4223,-3.4568,-3.4926,-3.5893,-3.6304,-3.6405,-3.6405,-3.6405,-3.6405,-3.6405,-3.6405,-3.6518,-3.6885,-3.7461,-3.8076,0.0,0.0,0.0,-4.016,-4.044,0.0,-4.0707,-4.1983,0.0,-4.3295,0.0,-4.5702,-4.6284,-4.6337,0.0,0.0,-4.7925,-4.8531,-4.8895,-4.8895,-4.9143,-4.96,-4.9614,-4.981,-5.0198,-5.039,-5.0548,-5.0581,-5.0629,-5.0677,-5.0677,-5.0677,-5.0757,-5.0902,-5.0902,-5.1011,-5.1214,-5.1214,-5.1214,-5.1214,-5.1214,-5.1214,-5.1214,-5.1214,-5.1214,-5.1214,0.0,0.0,0.0,0.0,0.0,0.0,0.0,0.0,0.0,0.0,0.0,0.0,0.0,0.0,0.0,0.0,0.0,0.0,0.0,0.0,0.0,0.0,0.0,0.0,0.0,0.0,0.0,0.0,0.0,0.0,0.0,0.0,0.0,0.0,0.0,0.0,0.0,0.0,0.0,0.0,0.0,0.0,0.0,0.0,0.0,0.0,0.0,0.0,0.0,0.0,0.0,-3.3124,-3.3124,-3.3124,-3.3294,-3.4399,0.0,-3.4964,-3.6103,-3.6405,-3.6405,-3.6405,-3.6405,-3.6405,-3.6405,-3.6405,-3.6568,-3.7073,-3.7626,0.0,0.0,0.0,0.0,0.0,0.0,0.0,-4.03,-4.1465,-4.2328,0.0,-4.3815,0.0,-4.5221,-4.5261,-4.5435,0.0,-4.695,-4.7685,-4.7939,-4.8092,-4.8344,-4.8745,-4.8745,-4.8994,-4.9389,-4.9795,-4.9956,-4.9956,-5.0086,-5.0198,-5.0342,-5.0342,-5.0423,-5.0647,0.0,-5.0742,-5.0899,-5.0899,-5.0932,-5.1011,-5.1011,-5.112,-5.1214,-5.1214,-5.1214,-5.1214,0.0,0.0,0.0,0.0,0.0,0.0,0.0,0.0,0.0,0.0,0.0,0.0,0.0,0.0,0.0,0.0,0.0,0.0,0.0,0.0,0.0,0.0,0.0,0.0,0.0,0.0,0.0,0.0,0.0,0.0,0.0,0.0,0.0,0.0,0.0,0.0,0.0,0.0,0.0,0.0,0.0,0.0,0.0,0.0,0.0,0.0,0.0,0.0,0.0,0.0,-3.2766,-3.3038,-3.3081,-3.3124,-3.3294,-3.4399,-3.468,-3.4964,-3.6103,-3.6405,-3.6405,-3.6405,-3.6405,-3.6405,-3.6405,-3.6405,-3.6581,-3.7161,0.0,-3.8203,-3.8856,0.0,-3.9697,-3.9697,0.0,-3.9788,-4.0032,-4.1007,-4.1823,-4.2129,-4.314,-4.3942,-4.4203,-4.4258,-4.4476,-4.4964,-4.5981,-4.6717,-4.7095,-4.7353,-4.7596,-4.7925,-4.7976,-4.8128,-4.8395,-4.8981,-4.9194,-4.9157,-4.9476,-4.9721,-4.9892,-4.9892,-5.0038,-5.0357,-5.0357,0.0,-5.039,-5.0453,-5.0567,-5.0713,-5.0775,-5.0917,-5.1167,-5.1167,-5.1167,-5.1214,0.0,0.0,0.0,0.0,0.0,0.0,0.0,0.0,0.0,0.0,0.0,0.0,0.0,0.0,0.0,0.0,0.0,0.0,0.0,0.0,0.0,0.0,0.0,0.0,0.0,0.0,0.0,0.0,0.0,0.0,0.0,0.0,0.0,0.0,0.0,0.0,0.0,0.0,0.0,0.0,0.0,0.0,0.0,0.0,0.0,0.0,0.0,0.0,0.0,0.0,-3.2276,-3.281,-3.3025,-3.3124,-3.3294,-3.4399,-3.468,-3.4964,-3.6103,-3.6405,-3.6405,-3.6405,-3.6405,-3.6405,-3.6405,-3.6405,0.0,0.0,0.0,-3.8316,-3.9358,-3.9634,0.0,-3.9697,0.0,0.0,0.0,0.0,-4.1503,0.0,0.0,0.0,0.0,0.0,0.0,0.0,0.0,-4.5167,-4.6179,-4.6284,-4.6546,-4.7081,-4.7339,-4.7559,-4.7866,-4.8626,-4.8816,-4.828,-4.8867,-4.9005,-4.8795,-4.8795,-4.9044,-4.9502,-4.9502,0.0,-4.9878,-5.0086,-5.0183,-5.0216,-5.0486,-5.071,-5.0855,-5.0855,-5.1011,-5.1214,0.0,0.0,0.0,0.0,0.0,0.0,0.0,0.0,0.0,0.0,0.0,0.0,0.0,0.0,0.0,0.0,0.0,0.0,0.0,0.0,0.0,0.0,0.0,0.0,0.0,0.0,0.0,0.0,0.0,0.0,0.0,0.0,0.0,0.0,0.0,0.0,0.0,0.0,0.0,0.0,0.0,0.0,0.0,0.0,0.0,0.0,0.0,0.0,0.0,0.0,-3.1793,-3.2276,-3.2766,-3.2982,-3.3294,-3.4399,-3.468,-3.4964,-3.6103,-3.6405,-3.6405,-3.6405,-3.6405,-3.6405,-3.6405,0.0,0.0,0.0,0.0,-3.8354,-3.9484,0.0,0.0,0.0,0.0,0.0,0.0,0.0,0.0,0.0,0.0,0.0,0.0,0.0,0.0,0.0,0.0,-4.4232,-4.5059,-4.5435,-4.5755,-4.6192,-4.6494,-4.6703,-4.6807,-4.7356,-4.7498,-4.7208,-4.7512,-4.7705,-4.7903,-4.7903,-4.8193,-4.8695,-4.8695,0.0,-4.9079,-4.9227,-4.9537,-4.9878,-5.0038,-5.0327,-5.0647,-5.076,-5.0855,-5.1011,0.0,0.0,0.0,0.0,0.0,0.0,0.0,0.0,-1.6683,-1.7099,-1.7792,-1.8535,-1.9271,-2.0102,0.0,0.0,0.0,0.0,0.0,0.0,0.0,0.0,0.0,0.0,0.0,0.0,0.0,0.0,0.0,0.0,0.0,0.0,0.0,0.0,0.0,0.0,0.0,0.0,0.0,0.0,0.0,0.0,0.0,0.0,0.0,0.0,0.0,0.0,0.0,0.0,-3.1306,-3.1705,-3.232,-3.2723,-3.3251,-3.4354,-3.468,-3.4964,-3.6103,-3.6405,-3.6405,-3.6405,-3.6405,-3.6405,-3.6405,-3.6405,0.0,0.0,-3.8002,-3.8354,-3.9484,0.0,0.0,0.0,0.0,0.0,0.0,0.0,0.0,0.0,0.0,0.0,0.0,0.0,0.0,0.0,0.0,0.0,-4.4203,-4.4639,-4.5018,-4.5328,-4.5542,-4.5635,-4.5742,-4.6075,-4.6181,-4.6112,-4.63,-4.6564,-4.7029,-4.7029,-4.7274,-4.7759,-4.7759,0.0,0.0,-4.8243,-4.8681,-4.9375,-4.9424,-4.9795,-5.0342,-5.0489,-5.0665,-5.0807,0.0,0.0,0.0,0.0,0.0,0.0,0.0,0.0,-1.6359,-1.6636,-1.7099,-1.7699,-1.8488,-1.9646,0.0,0.0,0.0,0.0,0.0,0.0,0.0,0.0,0.0,0.0,0.0,0.0,0.0,0.0,0.0,0.0,0.0,0.0,0.0,0.0,0.0,0.0,0.0,0.0,0.0,0.0,0.0,0.0,0.0,0.0,0.0,0.0,0.0,0.0,0.0,0.0,0.0,-3.1395,-3.1705,-3.2232,-3.2978,-3.431,0.0,0.0,-3.6103,-3.6405,-3.6405,-3.6405,-3.6405,-3.6405,-3.6405,0.0,0.0,-3.7776,-3.8002,-3.8354,-3.9484,0.0,0.0,0.0,0.0,0.0,0.0,0.0,0.0,0.0,0.0,0.0,0.0,0.0,0.0,0.0,0.0,0.0,-4.3899,-4.401,-4.4161,-4.4422,-4.4422,-4.4572,-4.483,-4.5409,-4.5573,-4.5301,-4.5884,-4.6115,-4.6126,-4.6126,-4.627,-4.6585,-4.6585,0.0,0.0,-4.7301,-4.7736,-4.828,-4.8545,-4.9079,-4.9781,-4.9766,-5.0235,-5.0807,0.0,0.0,0.0,0.0,0.0,0.0,0.0,0.0,-1.6224,-1.6359,-1.6911,-1.7559,-1.8172,-1.8958,0.0,0.0,0.0,0.0,0.0,0.0,0.0,0.0,0.0,0.0,0.0,0.0,0.0,0.0,0.0,0.0,0.0,0.0,0.0,0.0,0.0,0.0,0.0,0.0,0.0,0.0,0.0,0.0,0.0,0.0,0.0,0.0,0.0,0.0,0.0,0.0,0.0,0.0,-3.1484,-3.1881,0.0,0.0,-3.459,-3.4964,-3.6103,-3.6405,-3.6405,-3.6405,-3.6405,-3.6405,-3.6405,0.0,0.0,-3.7776,-3.8002,-3.8354,-3.9484,0.0,0.0,0.0,0.0,0.0,0.0,0.0,0.0,0.0,0.0,0.0,0.0,0.0,0.0,0.0,0.0,0.0,-4.3321,-4.353,-4.3764,-4.4052,-4.4052,-4.4107,-4.4203,-4.4436,-4.4546,-4.4435,-4.4668,-4.4861,-4.5005,-4.5005,-4.51,-4.5368,-4.5595,0.0,0.0,-4.6389,-4.6963,-4.7647,-4.7925,-4.8431,-4.9029,-4.9522,-4.9863,-5.0187,0.0,0.0,0.0,0.0,0.0,0.0,-1.5784,-1.5974,-1.6123,-1.6177,-1.673,-1.7286,-1.78,-1.8357,-1.9142,-2.0283,0.0,0.0,0.0,0.0,0.0,0.0,0.0,0.0,0.0,0.0,0.0,0.0,0.0,0.0,0.0,0.0,0.0,0.0,0.0,0.0,0.0,0.0,0.0,0.0,0.0,0.0,0.0,0.0,0.0,0.0,0.0,0.0,0.0,0.0,0.0,0.0,0.0,0.0,0.0,0.0,-3.4421,-3.4886,-3.5975,-3.6323,-3.6405,-3.6405,-3.6405,-3.6405,0.0,0.0,0.0,-3.7776,-3.8002,-3.8354,-3.9484,0.0,0.0,0.0,0.0,0.0,0.0,0.0,0.0,0.0,0.0,0.0,0.0,0.0,0.0,0.0,0.0,0.0,0.0,-4.3184,-4.3419,-4.3611,-4.3611,-4.3611,-4.3611,-4.3611,-4.3666,-4.3764,-4.3764,-4.3874,-4.4161,-4.4161,-4.4258,-4.4476,-4.4694,0.0,0.0,-4.5475,-4.6073,-4.6821,-4.7157,-4.7708,-4.833,-4.898,-4.9424,-4.9766,0.0,0.0,0.0,0.0,0.0,0.0,0.0,0.0,-1.5879,-1.6177,-1.6447,-1.677,-1.7286,-1.8025,0.0,0.0,0.0,0.0,0.0,0.0,0.0,0.0,0.0,0.0,0.0,0.0,0.0,0.0,0.0,0.0,0.0,0.0,0.0,0.0,0.0,0.0,0.0,0.0,0.0,0.0,0.0,0.0,0.0,0.0,0.0,0.0,0.0,0.0,0.0,0.0,0.0,0.0,0.0,0.0,0.0,0.0,-3.4193,-3.4624,-3.5717,-3.6193,-3.6405,-3.6405,-3.6405,-3.6405,0.0,0.0,0.0,-3.7776,-3.8002,-3.8354,-3.9484,0.0,0.0,0.0,0.0,0.0,0.0,0.0,0.0,0.0,0.0,0.0,0.0,0.0,0.0,0.0,0.0,0.0,0.0,-4.2974,-4.303,-4.303,-4.303,-4.303,-4.303,-4.303,-4.3129,-4.3394,-4.3394,-4.3585,-4.3899,-4.3899,-4.3899,0.0,0.0,0.0,0.0,-4.4626,-4.5059,-4.5649,-4.6218,-4.6936,-4.7759,-4.8027,-4.8781,-4.9717,0.0,0.0,0.0,0.0,0.0,0.0,0.0,0.0,-1.5832,-1.5927,-1.617,0.0,0.0,0.0,0.0,0.0,0.0,0.0,0.0,0.0,0.0,0.0,0.0,0.0,0.0,0.0,0.0,0.0,0.0,0.0,0.0,0.0,0.0,0.0,0.0,0.0,0.0,0.0,0.0,0.0,0.0,0.0,0.0,0.0,0.0,0.0,0.0,0.0,0.0,0.0,0.0,0.0,0.0,0.0,0.0,0.0,0.0,0.0,-3.567,-3.6051,-3.6193,-3.637,-3.6405,-3.6405,-3.6405,0.0,0.0,0.0,0.0,0.0,0.0,0.0,0.0,0.0,0.0,0.0,0.0,0.0,0.0,0.0,0.0,0.0,0.0,0.0,0.0,0.0,0.0,0.0,0.0,-4.2974,-4.2974,-4.2974,-4.2974,-4.2974,-4.2974,-4.2974,-4.303,-4.3129,-4.3129,-4.3197,-4.3265,-4.3265,-4.3265,0.0,0.0,0.0,0.0,-4.4039,-4.4476,-4.4992,-4.5355,-4.6046,-4.6884,-4.7377,-4.799,-4.8681,0.0,0.0,0.0,0.0,0.0,0.0,0.0,0.0,-1.5784,-1.5784,-1.6028,0.0,0.0,0.0,0.0,0.0,0.0,0.0,0.0,0.0,0.0,0.0,0.0,0.0,0.0,0.0,0.0,0.0,0.0,0.0,0.0,0.0,0.0,0.0,0.0,0.0,0.0,0.0,0.0,0.0,0.0,0.0,-2.5693,0.0,0.0,0.0,0.0,0.0,0.0,0.0,0.0,0.0,0.0,0.0,0.0,0.0,-3.2536,0.0,0.0,-3.5764,-3.6063,-3.6181,-3.6323,0.0,0.0,0.0,0.0,0.0,0.0,0.0,0.0,0.0,0.0,0.0,0.0,0.0,0.0,0.0,0.0,0.0,0.0,0.0,0.0,0.0,0.0,0.0,0.0,0.0,0.0,-4.2974,-4.2974,-4.2974,-4.2974,-4.2974,-4.2974,-4.2974,-4.2974,-4.2974,-4.2974,-4.2974,-4.2974,-4.2974,-4.2974,0.0,0.0,0.0,0.0,-4.3585,-4.3916,-4.4287,-4.4763,-4.5355,-4.5993,-4.6599,-4.7222,-4.7838,0.0,0.0,0.0,0.0,0.0,0.0,0.0,0.0,0.0,0.0,0.0,0.0,0.0,0.0,0.0,0.0,0.0,0.0,0.0,0.0,0.0,0.0,0.0,0.0,0.0,0.0,0.0,-2.3091,-2.3091,-2.3305,-2.375,0.0,0.0,0.0,0.0,0.0,0.0,0.0,0.0,0.0,0.0,0.0,0.0,0.0,0.0,0.0,0.0,0.0,0.0,0.0,0.0,0.0,0.0,0.0,0.0,0.0,0.0,0.0,0.0,0.0,0.0,0.0,0.0,0.0,0.0,0.0,0.0,0.0,0.0,0.0,0.0,0.0,0.0,0.0,0.0,0.0,0.0,0.0,0.0,0.0,0.0,0.0,0.0,0.0,0.0,0.0,0.0,0.0,0.0,-4.2974,-4.2974,-4.2974,-4.2974,-4.2974,-4.2974,-4.2974,-4.2974,-4.2974,-4.2974,-4.2974,-4.2974,-4.2974,-4.2974,0.0,0.0,0.0,0.0,-4.3295,-4.3394,-4.3504,-4.4287,-4.4776,-4.5087,-4.5688,-4.6442,-4.7198,0.0,0.0,0.0,0.0,0.0,0.0,0.0,0.0,0.0,0.0,0.0,0.0,0.0,0.0,0.0,0.0,0.0,0.0,0.0,0.0,0.0,0.0,0.0,0.0,0.0,0.0,0.0,-2.3091,-2.3091,-2.3149,-2.3266,-2.4062,0.0,0.0,0.0,0.0,0.0,0.0,0.0,0.0,0.0,0.0,0.0,0.0,0.0,0.0,-2.5781,-2.5917,0.0,0.0,0.0,0.0,0.0,0.0,0.0,0.0,-3.1001,-3.1853,-3.329,0.0,-3.5223,-3.5872,-3.6063,0.0,0.0,0.0,0.0,0.0,0.0,0.0,0.0,0.0,0.0,0.0,0.0,0.0,0.0,0.0,0.0,0.0,0.0,0.0,0.0,0.0,0.0,0.0,0.0,0.0,0.0,-4.2974,-4.2974,-4.2974,-4.2974,-4.2974,-4.2974,-4.2974,-4.2974,-4.2974,-4.2974,-4.2974,-4.2974,-4.2974,-4.2974,0.0,0.0,0.0,-4.2974,-4.3085,-4.3184,-4.3449,-4.3615,-4.4013,-4.4518,-4.4897,-4.5435,-4.602,0.0,0.0,0.0,0.0,0.0,0.0,0.0,0.0,0.0,0.0,0.0,0.0,0.0,0.0,0.0,0.0,0.0,0.0,0.0,0.0,0.0,0.0,0.0,0.0,0.0,0.0,0.0,0.0,0.0,-2.3091,0.0,0.0,0.0,0.0,0.0,0.0,0.0,0.0,0.0,0.0,-2.5693,0.0,0.0,0.0,0.0,0.0,-2.5693,-2.5781,0.0,-2.6052,-2.6284,-2.6572,0.0,0.0,0.0,0.0,-3.0225,-3.1166,-3.2673,-3.3941,-3.4872,-3.532,-3.5716,-3.6063,0.0,0.0,0.0,0.0,0.0,0.0,0.0,0.0,0.0,0.0,0.0,0.0,0.0,0.0,0.0,0.0,0.0,0.0,0.0,0.0,0.0,0.0,0.0,0.0,0.0,-4.2974,-4.2974,-4.2974,-4.2974,-4.2974,-4.2974,-4.2974,-4.2974,-4.2974,-4.2974,-4.2974,-4.2974,-4.2974,-4.2974,0.0,0.0,0.0,-4.2974,-4.2974,-4.3085,-4.324,-4.3338,-4.3615,-4.3903,-4.419,-4.4639,-4.5059,0.0,0.0,0.0,0.0,0.0,0.0,0.0,0.0,0.0,0.0,0.0,0.0,0.0,0.0,0.0,0.0,0.0,0.0,0.0,0.0,0.0,0.0,0.0,0.0,0.0,0.0,0.0,0.0,0.0,0.0,0.0,0.0,-2.4492,0.0,0.0,0.0,0.0,0.0,0.0,0.0,-2.5693,0.0,0.0,0.0,0.0,0.0,0.0,0.0,0.0,-2.5955,-2.6052,-2.61,-2.6352,0.0,0.0,0.0,0.0,0.0,-3.214,-3.3522,-3.4531,-3.4726,-3.532,-3.586,0.0,0.0,0.0,0.0,0.0,0.0,0.0,0.0,0.0,0.0,0.0,0.0,0.0,0.0,0.0,0.0,0.0,0.0,0.0,0.0,0.0,0.0,0.0,0.0,0.0,-4.2974,-4.2974,-4.2974,-4.2974,-4.2974,-4.2974,-4.2974,-4.2974,-4.2974,-4.2974,-4.2974,-4.2974,-4.2974,-4.2974,-4.2974,0.0,0.0,-4.2974,-4.2974,-4.2974,-4.303,-4.324,-4.3338,-4.3406,-4.3708,-4.3984,-4.419,0.0,0.0,0.0,0.0,0.0,0.0,0.0,0.0,0.0,0.0,0.0,0.0,0.0,0.0,0.0,0.0,0.0,0.0,0.0,0.0,0.0,0.0,0.0,0.0,0.0,0.0,0.0,0.0,0.0,0.0,-2.3701,-2.4189,-2.4767,-2.5499,0.0,0.0,-2.5693,-2.5693,-2.5693,-2.5693,-2.5693,0.0,0.0,0.0,0.0,0.0,0.0,0.0,0.0,-2.5732,-2.5781,-2.583,-2.61,0.0,0.0,0.0,0.0,0.0,-3.1356,-3.2409,-3.3362,-3.4531,-3.4872,-3.5175,0.0,0.0,0.0,0.0,0.0,0.0,0.0,0.0,0.0,0.0,0.0,0.0,0.0,0.0,0.0,0.0,0.0,0.0,0.0,0.0,0.0,0.0,0.0,0.0,0.0,-4.2974,-4.2974,-4.2974,-4.2974,-4.2974,-4.2974,-4.2974,-4.2974,-4.2974,-4.2974,-4.2974,-4.2974,-4.2974,-4.2974,-4.2974,0.0,-4.2974,-4.2974,-4.2974,-4.2974,-4.2974,-4.303,-4.3085,-4.3085,-4.3351,-4.3517,-4.367,0.0,0.0,0.0,0.0,0.0,0.0,0.0,0.0,0.0,0.0,0.0,0.0,0.0,0.0,0.0,0.0,0.0,0.0,0.0,0.0,0.0,0.0,0.0,0.0,0.0,0.0,0.0,0.0,0.0,-2.3315,-2.3799,-2.4463,-2.5117,-2.5693,0.0,0.0,-2.5693,-2.5693,-2.5693,-2.5693,0.0,0.0,0.0,0.0,0.0,0.0,0.0,0.0,0.0,0.0,-2.5693,-2.5732,-2.582,0.0,0.0,0.0,0.0,0.0,-3.082,-3.1659,-3.237,-3.3273,-3.4176,-3.4884,0.0,0.0,0.0,0.0,0.0,0.0,0.0,0.0,0.0,0.0,0.0,0.0,0.0,0.0,0.0,0.0,0.0,0.0,0.0,0.0,0.0,0.0,0.0,0.0,0.0,0.0,-4.2974,-4.2974,-4.2974,-4.2974,-4.2974,-4.2974,-4.2974,-4.2974,-4.2974,-4.2974,-4.2974,-4.2974,-4.2974,-4.2974,0.0,-4.2974,-4.2974,-4.2974,-4.2974,-4.2974,-4.2974,-4.2974,-4.303,-4.3129,-4.3295,-4.3449,0.0,0.0,0.0,0.0,0.0,0.0,0.0,0.0,0.0,0.0,0.0,0.0,0.0,0.0,0.0,0.0,0.0,0.0,0.0,0.0,0.0,0.0,0.0,0.0,0.0,0.0,-2.3091,-2.3091,-2.3198,-2.3564,-2.4102,-2.4863,-2.541,0.0,0.0,0.0,-2.5693,-2.5693,-2.5693,-2.5693,0.0,0.0,0.0,0.0,0.0,0.0,0.0,0.0,0.0,0.0,0.0,0.0,0.0,0.0,0.0,-2.7593,-2.8391,-2.9343,-3.0369,-3.095,-3.1465,-3.2066,0.0,0.0,-3.4677,0.0,0.0,0.0,0.0,0.0,0.0,0.0,0.0,0.0,0.0,0.0,0.0,0.0,0.0,0.0,0.0,0.0,0.0,0.0,0.0,0.0,0.0,0.0,0.0,0.0,-4.2974,-4.2974,-4.2974,-4.2974,-4.2974,-4.2974,-4.2974,-4.2974,-4.2974,-4.2974,-4.2974,-4.2974,-4.2974,-4.2974,-4.2974,-4.2974,-4.2974,-4.2974,-4.2974,-4.2974,-4.2974,-4.2974,-4.2974,-4.2974,-4.3129,-4.3338,0.0,0.0,0.0,0.0,0.0,0.0,0.0,0.0,0.0,0.0,0.0,0.0,0.0,0.0,0.0,0.0,0.0,0.0,0.0,0.0,0.0,0.0,0.0,0.0,0.0,-2.3013,-2.3091,-2.3091,-2.3545,-2.417,-2.5037,-2.5459,-2.5654,-2.5693,0.0,0.0,-2.5693,-2.5693,-2.5693,-2.5693,-2.5693,0.0,0.0,0.0,0.0,0.0,0.0,0.0,0.0,0.0,0.0,0.0,0.0,0.0,-2.6894,-2.7321,-2.7973,-2.8786,-2.9766,-3.0297,-3.0651,-3.1465,0.0,0.0,-3.4286,0.0,0.0,0.0,0.0,0.0,0.0,0.0,0.0,0.0,0.0,0.0,0.0,0.0,0.0,0.0,0.0,0.0,0.0,0.0,0.0,0.0,0.0,0.0,0.0,0.0,0.0,-4.2974,-4.2974,-4.2974,-4.2974,-4.2974,-4.2974,-4.2974,-4.2974,-4.2974,-4.2974,-4.2974,-4.2974,-4.2974,-4.2974,-4.2974,-4.2974,-4.2974,-4.2974,-4.2974,-4.2974,-4.2974,-4.2974,-4.2974,-4.303,-4.3085,0.0,0.0,0.0,0.0,0.0,0.0,0.0,0.0,0.0,0.0,0.0,0.0,0.0,0.0,0.0,0.0,0.0,0.0,0.0,0.0,0.0,0.0,0.0,-2.2087,-2.253,-2.2794,-2.3105,-2.3545,-2.4238,-2.4793,-2.5125,-2.5527,0.0,0.0,0.0,0.0,-2.5693,-2.5693,-2.5693,-2.5693,-2.5693,-2.5693,0.0,0.0,0.0,0.0,0.0,0.0,0.0,0.0,-2.5693,0.0,0.0,0.0,-2.6999,-2.7299,-2.7966,-2.873,-2.9303,-2.9774,-3.0193,-3.0557,0.0,0.0,0.0,0.0,0.0,0.0,0.0,0.0,0.0,0.0,0.0,0.0,0.0,0.0,0.0,0.0,0.0,0.0,0.0,0.0,0.0,0.0,0.0,0.0,0.0,0.0,0.0,0.0,0.0,-4.2974,-4.2974,-4.2974,-4.2974,-4.2974,-4.2974,-4.2974,-4.2974,-4.2974,-4.2974,-4.2974,-4.2974,-4.2974,-4.2974,-4.2974,-4.2974,-4.2974,-4.2974,-4.2974,-4.2974,-4.2974,-4.2974,-4.2974,-4.2974,-4.303,0.0,0.0,0.0,0.0,0.0,0.0,0.0,0.0,0.0,0.0,0.0,0.0,0.0,0.0,0.0,0.0,0.0,0.0,0.0,0.0,0.0,0.0,0.0,-2.184,-2.2363,-2.2729,-2.3185,-2.3789,-2.4648,-2.5137,-2.5283,0.0,0.0,0.0,0.0,0.0,0.0,-2.5693,-2.5693,-2.5693,-2.5693,-2.5693,0.0,0.0,0.0,0.0,0.0,0.0,0.0,0.0,0.0,0.0,0.0,0.0,0.0,0.0,-2.7878,-2.8621,-2.8877,-2.9311,-2.9679,0.0,0.0,0.0,0.0,0.0,0.0,0.0,0.0,0.0,0.0,0.0,0.0,0.0,0.0,0.0,0.0,0.0,0.0,0.0,0.0,0.0,0.0,0.0,0.0,0.0,0.0,0.0,0.0,0.0,0.0,0.0,-4.2974,-4.2974,-4.2974,-4.2974,-4.2974,-4.2974,-4.2974,-4.2974,-4.2974,-4.2974,-4.2974,-4.2974,-4.2974,-4.2974,-4.2974,-4.2974,-4.2974,-4.2974,-4.2974,-4.2974,-4.2974,-4.2974,-4.2974,-4.2974,0.0,0.0,0.0,0.0,0.0,0.0,0.0,0.0,0.0,0.0,0.0,0.0,0.0,0.0,0.0,0.0,0.0,0.0,0.0,0.0,0.0,0.0,0.0,-2.1663,-2.2272,-2.2848,-2.3348,-2.3799,-2.4705,-2.5303,-2.5693,-2.5693,0.0,0.0,0.0,0.0,0.0,0.0,-2.5693,-2.5693,-2.5693,-2.5693,-2.5693,0.0,0.0,0.0,0.0,0.0,0.0,0.0,0.0,0.0,0.0,0.0,0.0,0.0,-2.7617,-2.8344,-2.8621,-2.8684,0.0,0.0,0.0,0.0,0.0,0.0,0.0,0.0,0.0,0.0,0.0,0.0,0.0,0.0,0.0,0.0,0.0,0.0,0.0,0.0,0.0,0.0,0.0,0.0,0.0,0.0,0.0,0.0,0.0,0.0,0.0,0.0,-4.2974,-4.2974,-4.2974,-4.2974,-4.2974,-4.2974,-4.2974,-4.2974,-4.2974,-4.2974,-4.2974,-4.2974,-4.2974,-4.2974,-4.2974,-4.2974,-4.2974,-4.2974,-4.2974,-4.2974,-4.2974,-4.2974,-4.2974,-4.2974,0.0,0.0,0.0,0.0,0.0,0.0,0.0,0.0,0.0,0.0,0.0,0.0,0.0,0.0,0.0,0.0,0.0,0.0,0.0,0.0,0.0,0.0,0.0,0.0,0.0,0.0,-2.4379,-2.4687,-2.5264,-2.5557,0.0,0.0,0.0,-2.5693,0.0,0.0,0.0,0.0,-2.5693,-2.5693,-2.5693,-2.5693,-2.5693,0.0,0.0,0.0,0.0,0.0,0.0,0.0,0.0,0.0,0.0,0.0,0.0,0.0,-2.7617,-2.8291,-2.8408,0.0,0.0,0.0,0.0,0.0,0.0,0.0,0.0,0.0,0.0,0.0,0.0,0.0,0.0,0.0,0.0,0.0,0.0,0.0,0.0,0.0,0.0,0.0,0.0,0.0,0.0,0.0,0.0,0.0,0.0,0.0,0.0,0.0,-4.2974,-4.2974,-4.2974,-4.2974,-4.2974,-4.2974,-4.2974,-4.2974,-4.2974,-4.2974,-4.2974,-4.2974,-4.2974,-4.2974,-4.2974,-4.2974,-4.2974,-4.2974,-4.2974,-4.2974,-4.2974,-4.2974,-4.2974,-4.2974,0.0,0.0,0.0,0.0,0.0,0.0,0.0,0.0,0.0,0.0,0.0,0.0,0.0,0.0,0.0,0.0,0.0,0.0,0.0,0.0,0.0,0.0,0.0,0.0,0.0,-2.4221,-2.4948,0.0,0.0,0.0,0.0,0.0,0.0,-2.5693,0.0,-2.5693,0.0,0.0,-2.5693,-2.5693,-2.5693,-2.5693,-2.5693,0.0,0.0,0.0,0.0,0.0,0.0,0.0,0.0,0.0,0.0,0.0,0.0,-2.7217,-2.7754,-2.8291,-2.8291,0.0,0.0,0.0,0.0,0.0,0.0,0.0,0.0,0.0,0.0,0.0,0.0,0.0,0.0,0.0,0.0,0.0,0.0,0.0,0.0,0.0,0.0,0.0,0.0,0.0,0.0,0.0,0.0,0.0,0.0,0.0,0.0,-4.2974,-4.2974,-4.2974,-4.2974,-4.2974,-4.2974,-4.2974,-4.2974,-4.2974,-4.2974,-4.2974,-4.2974,-4.2974,-4.2974,-4.2974,-4.2974,-4.2974,-4.2974,-4.2974,-4.2974,-4.2974,-4.2974,-4.2974,-4.2974,-4.2974,0.0,0.0,0.0,0.0,0.0,0.0,0.0,0.0,0.0,0.0,0.0,0.0,0.0,0.0,0.0,0.0,0.0,0.0,0.0,0.0,0.0,0.0,0.0,0.0,0.0,0.0,0.0,0.0,0.0,0.0,0.0,0.0,-2.5693,-2.5693,0.0,-2.5693,0.0,0.0,-2.5693,-2.5693,-2.5693,-2.5693,-2.5693,-2.5693,0.0,0.0,0.0,0.0,0.0,0.0,0.0,0.0,0.0,0.0,0.0,-2.7539,-2.7959,-2.8291,0.0,0.0,0.0,0.0,0.0,0.0,0.0,0.0,0.0,0.0,0.0,0.0,0.0,0.0,0.0,0.0,0.0,0.0,0.0,0.0,0.0,0.0,0.0,0.0,0.0,0.0,0.0,0.0,0.0,0.0,0.0,0.0,-4.2974,-4.2974,-4.2974,-4.2974,-4.2974,-4.2974,-4.2974,-4.2974,-4.2974,-4.2974,-4.2974,-4.2974,-4.2974,-4.2974,-4.2974,-4.2974,-4.2974,-4.2974,-4.2974,-4.2974,-4.2974,-4.2974,-4.2974,-4.2974,-4.2974,-4.2974,0.0,0.0,0.0,0.0,0.0,0.0,0.0,0.0,0.0,0.0,0.0,0.0,0.0,0.0,0.0,0.0,0.0,0.0,0.0,0.0,0.0,0.0,0.0,0.0,0.0,0.0,0.0,0.0,0.0,0.0,0.0,0.0,0.0,-2.5693,0.0,-2.5693,0.0,-2.5693,-2.5693,-2.5693,-2.5693,-2.5693,-2.5693,-2.5693,-2.5693,0.0,0.0,0.0,0.0,0.0,0.0,0.0,0.0,-2.668,-2.71,-2.7539,-2.7959,0.0,0.0,0.0,0.0,0.0,0.0,0.0,0.0,0.0,0.0,0.0,0.0,0.0,0.0,0.0,0.0,0.0,0.0,0.0,0.0,0.0,0.0,0.0,0.0,0.0,0.0,0.0,0.0,0.0,0.0,0.0,0.0,0.0,-4.2974,-4.2974,-4.2974,-4.2974,-4.2974,-4.2974,-4.2974,0.0,-4.2974,-4.2974,-4.2974,-4.2974,-4.2974,-4.2974,-4.2974,-4.2974,-4.2974,-4.2974,-4.2974,-4.2974,-4.2974,-4.2974,-4.2974,-4.2974,-4.2974,-4.2974,0.0,0.0,0.0,0.0,0.0,0.0,0.0,0.0,0.0,0.0,0.0,0.0,0.0,0.0,0.0,0.0,0.0,0.0,0.0,0.0,0.0,0.0,0.0,0.0,0.0,0.0,0.0,0.0,0.0,0.0,0.0,0.0,0.0,-2.5693,0.0,-2.5693,0.0,-2.5693,-2.5693,-2.5693,-2.5693,-2.5693,-2.5693,-2.5693,-2.5693,-2.5693,-2.5693,0.0,0.0,0.0,0.0,0.0,0.0,0.0,-2.7412,-2.7842,-2.8125,-2.8291,0.0,0.0,0.0,0.0,0.0,0.0,0.0,0.0,0.0,0.0,0.0,0.0,0.0,0.0,0.0,0.0,0.0,0.0,0.0,0.0,0.0,0.0,0.0,0.0,0.0,0.0,0.0,0.0,0.0,0.0,0.0,-4.2974,-4.2974,-4.2974,-4.2974,-4.2974,-4.2974,-4.2974,-4.2974,-4.2974,-4.2974,-4.2974,-4.2974,-4.2974,-4.2974,-4.2974,-4.2974,-4.2974,-4.2974,-4.2974,-4.2974,-4.2974,-4.2974,-4.2974,-4.2974,-4.2974,-4.2974,-4.2974,0.0,0.0,0.0,0.0,0.0,0.0,0.0,0.0,0.0,0.0,0.0,0.0,0.0,0.0,0.0,0.0,0.0,0.0,0.0,0.0,0.0,0.0,0.0,0.0,0.0,0.0,0.0,0.0,0.0,0.0,0.0,0.0,0.0,-2.5693,0.0,0.0,0.0,0.0,-2.5693,-2.5693,-2.5693,-2.5693,-2.5693,-2.5693,-2.5693,-2.5693,-2.5693,-2.5693,-2.5703,-2.5771,0.0,0.0,0.0,0.0,-2.7796,-2.8164,-2.8291,-2.8291,0.0,0.0,0.0,0.0,0.0,0.0,0.0,0.0,0.0,0.0,0.0,0.0,0.0,0.0,0.0,0.0,0.0,0.0,0.0,0.0,0.0,0.0,0.0,0.0,0.0,0.0,0.0,0.0,0.0,0.0,-4.2974,-4.2974,-4.2974,-4.2974,-4.2974,-4.2974,-4.2974,-4.2974,-4.2974,-4.2974,-4.2974,-4.2974,-4.2974,-4.2974,-4.2974,-4.2974,-4.2974,-4.2974,-4.2974,-4.2974,-4.2974,-4.2974,-4.2974,-4.2974,-4.2974,-4.2974,-4.2974,-4.2974,0.0,0.0,0.0,0.0,0.0,0.0,0.0,0.0,0.0,0.0,0.0,0.0,0.0,0.0,0.0,0.0,0.0,0.0,-1.9413,0.0,0.0,-2.2526,-2.3088,0.0,0.0,0.0,0.0,0.0,0.0,0.0,0.0,0.0,0.0,-2.5693,0.0,0.0,0.0,0.0,-2.5693,-2.5693,-2.5693,-2.5693,-2.5693,-2.5693,-2.5693,-2.5693,-2.5693,-2.5693,-2.5742,-2.6172,-2.6338,0.0,0.0,0.0,-2.7796,-2.8164,-2.8291,0.0,0.0,0.0,0.0,0.0,0.0,0.0,0.0,0.0,0.0,0.0,0.0,0.0,0.0,0.0,0.0,0.0,0.0,0.0,0.0,0.0,0.0,0.0,0.0,0.0,0.0,0.0,0.0,0.0,0.0,-4.2527,-4.2949,-4.2974,-4.2974,-4.2974,-4.2974,-4.2974,-4.2974,-4.2974,-4.2974,-4.2974,-4.2974,-4.2974,-4.2974,-4.2974,-4.2974,-4.2974,-4.2974,-4.2974,-4.2974,-4.2974,-4.2974,-4.2974,-4.2974,-4.2974,-4.2974,-4.2974,-4.2974,-4.2974,0.0,0.0,0.0,0.0,0.0,0.0,0.0,0.0,0.0,0.0,0.0,0.0,0.0,0.0,0.0,-1.7686,-1.7764,-1.8456,-2.0018,-2.1084,-2.1928,-2.2476,-2.2946,-2.3497,0.0,0.0,0.0,0.0,0.0,0.0,0.0,-2.5635,-2.5693,0.0,0.0,0.0,0.0,0.0,0.0,-2.5693,-2.5693,-2.5693,-2.5693,-2.5693,-2.5693,-2.5693,-2.5693,-2.5849,-2.6133,-2.6328,-2.6709,-2.7229,-2.7601,0.0,0.0,0.0,-2.8291,0.0,0.0,0.0,0.0,0.0,0.0,0.0,0.0,0.0,0.0,0.0,0.0,0.0,0.0,0.0,0.0,0.0,0.0,0.0,0.0,0.0,0.0,0.0,0.0,0.0,0.0,0.0,0.0,0.0,-4.13,-4.1576,-4.1813,-4.1948,-4.2057,-4.2057,-4.2359,-4.2577,-4.2577,-4.2879,-4.2974,-4.2974,-4.2974,-4.2974,-4.2974,-4.2974,-4.2974,-4.2974,-4.2974,-4.2974,-4.2974,-4.2974,-4.2974,-4.2974,-4.2974,-4.2974,-4.2974,-4.2974,-4.2974,-4.2974,0.0,0.0,0.0,0.0,0.0,0.0,0.0,0.0,0.0,0.0,0.0,0.0,0.0,0.0,0.0,0.0,-1.8079,-1.8803,-2.0395,-2.1173,-2.1827,-2.2274,-2.2686,-2.3138,-2.3678,0.0,0.0,0.0,0.0,0.0,-2.5284,-2.5489,-2.5635,0.0,-2.5693,0.0,0.0,0.0,0.0,0.0,0.0,-2.5693,-2.5693,-2.5693,-2.5693,-2.5703,-2.5859,-2.6113,-2.6426,-2.6641,-2.7139,-2.7738,-2.7845,-2.8047,0.0,0.0,0.0,0.0,0.0,0.0,0.0,0.0,0.0,0.0,0.0,0.0,0.0,0.0,0.0,0.0,0.0,0.0,0.0,0.0,0.0,0.0,0.0,0.0,0.0,0.0,0.0,0.0,0.0,0.0,0.0,0.0,-4.0296,-4.0574,-4.0777,-4.106,-4.118,-4.118,-4.1677,-4.1944,-4.1944,-4.2359,-4.2559,-4.2559,-4.2698,-4.2828,-4.2828,-4.2911,-4.2974,-4.2974,-4.2974,-4.2974,-4.2974,-4.2974,-4.2974,-4.2974,-4.2974,-4.2974,-4.2974,-4.2974,-4.2974,-4.2974,0.0,0.0,0.0,0.0,0.0,0.0,0.0,0.0,0.0,0.0,0.0,0.0,-1.7146,-1.7179,-1.7499,-1.8321,-1.8401,-1.8982,-2.0411,-2.1019,-2.1428,-2.1725,-2.2224,0.0,-2.2577,-2.3329,0.0,0.0,0.0,0.0,-2.5284,-2.5333,-2.544,-2.5693,-2.5693,-2.5693,-2.5693,0.0,0.0,0.0,0.0,0.0,0.0,-2.5693,-2.5693,-2.5742,-2.6201,-2.6367,-2.6514,-2.7376,-2.7679,-2.7787,-2.8135,-2.8271,-2.8291,0.0,0.0,0.0,0.0,0.0,0.0,0.0,0.0,0.0,0.0,0.0,0.0,0.0,0.0,0.0,0.0,0.0,0.0,0.0,0.0,0.0,0.0,0.0,0.0,0.0,0.0,0.0,0.0,0.0,0.0,0.0,-3.914,-3.9629,-4.0468,-4.0777,-4.0939,-4.0939,-4.1205,-4.1326,-4.1326,-4.1351,-4.1376,-4.1376,-4.1957,-4.225,-4.2263,-4.2791,-4.2974,-4.2974,-4.2974,-4.2974,-4.2974,-4.2974,-4.2974,-4.2974,-4.2974,-4.2974,-4.2974,-4.2974,-4.2974,-4.2974,0.0,0.0,0.0,0.0,0.0,0.0,0.0,0.0,0.0,0.0,0.0,0.0,0.0,-1.7481,-1.773,-1.8356,-1.8893,-1.9472,-1.9946,-2.066,-2.107,-2.1173,-2.1725,-2.208,-2.2224,-2.2677,0.0,0.0,0.0,-2.4332,-2.4529,-2.4883,-2.5186,-2.543,-2.5635,-2.5693,-2.5693,-2.5693,0.0,0.0,0.0,0.0,0.0,0.0,0.0,0.0,0.0,0.0,-2.7307,-2.7611,-2.7894,-2.8096,-2.8242,-2.8291,-2.8291,-2.8291,-2.8291,0.0,0.0,0.0,0.0,0.0,0.0,0.0,0.0,0.0,0.0,0.0,0.0,0.0,0.0,0.0,0.0,0.0,0.0,0.0,0.0,0.0,0.0,0.0,0.0,0.0,0.0,0.0,0.0,0.0,0.0,-3.8132,-3.8861,-3.914,-3.9472,-3.9854,-4.0296,-4.0764,-4.1288,-4.1288,-4.1288,-4.1288,-4.1543,-4.163,-4.1643,-4.1831,-4.1932,-4.1932,-4.1932,-4.2321,-4.2974,-4.2974,-4.2974,-4.2974,-4.2974,-4.2974,-4.2974,-4.2974,-4.2974,-4.2974,0.0,0.0,0.0,0.0,0.0,0.0,0.0,0.0,0.0,0.0,0.0,0.0,0.0,0.0,-1.7845,-1.837,-1.9101,-1.9576,-1.968,-2.03,-2.0609,-2.0609,-2.107,-2.1369,-2.1573,-2.192,0.0,0.0,0.0,0.0,0.0,-2.443,-2.4833,-2.5186,-2.544,-2.5635,0.0,0.0,0.0,-2.5693,0.0,0.0,-2.5693,0.0,0.0,0.0,0.0,0.0,0.0,-2.7885,-2.8057,-2.8291,-2.8291,-2.8291,-2.8291,-2.8291,-2.8291,0.0,0.0,0.0,0.0,0.0,0.0,0.0,0.0,0.0,0.0,0.0,0.0,0.0,0.0,0.0,0.0,0.0,0.0,0.0,0.0,0.0,0.0,0.0,0.0,0.0,0.0,0.0,0.0,0.0,0.0,0.0,-3.7548,-3.7933,-3.8514,-3.927,-3.9671,-4.0137,-4.0736,-4.0736,-4.0736,-4.0789,-4.0924,-4.1012,-4.1012,-4.12,-4.1288,-4.1288,-4.1288,-4.1756,-4.2421,-4.2421,-4.2421,-4.2446,-4.2635,-4.2753,-4.2778,-4.2911,-4.2974,-4.2974,0.0,0.0,0.0,0.0,0.0,0.0,0.0,0.0,0.0,-1.7549,0.0,0.0,0.0,0.0,0.0,-1.8318,-1.8952,-1.9376,-1.9628,-1.9931,-2.0078,-2.0078,-2.0351,-2.047,-2.047,-2.1027,0.0,0.0,0.0,0.0,0.0,0.0,-2.4381,-2.4883,-2.5137,-2.544,-2.5693,0.0,-2.5693,-2.5693,0.0,-2.5693,-2.5693,0.0,0.0,0.0,-2.6885,-2.7314,0.0,-2.8154,0.0,0.0,0.0,-2.8291,-2.8291,-2.8291,-2.8291,0.0,0.0,0.0,0.0,0.0,0.0,0.0,0.0,0.0,0.0,0.0,0.0,0.0,0.0,0.0,0.0,0.0,0.0,0.0,0.0,0.0,0.0,0.0,0.0,0.0,0.0,0.0,0.0,0.0,-3.5378,-3.5763,-3.6592,-3.7281,-3.8092,-3.9218,-3.927,-3.9426,-3.9697,-3.9697,-3.9697,-3.9697,-4.0237,-4.0488,-4.0513,-4.0987,-4.1238,-4.1238,-4.1238,-4.1238,-4.1238,-4.1275,-4.1288,-4.1338,-4.1919,-4.2187,-4.225,-4.2791,-4.2924,-4.2924,0.0,0.0,0.0,0.0,0.0,0.0,0.0,0.0,0.0,0.0,0.0,0.0,-1.7582,-1.7747,-1.7964,-1.8122,-1.8429,-1.8684,-1.8736,-1.9264,-1.9532,-1.9532,-1.9939,-2.0189,-2.0189,-2.0557,0.0,0.0,0.0,0.0,0.0,0.0,0.0,0.0,-2.4784,-2.5137,-2.544,-2.5635,0.0,0.0,-2.5693,-2.5693,0.0,0.0,0.0,0.0,0.0,-2.7764,-2.8135,0.0,-2.8291,-2.8291,0.0,0.0,-2.8291,-2.8291,0.0,0.0,-2.8291,0.0,0.0,0.0,0.0,0.0,0.0,0.0,0.0,0.0,0.0,0.0,0.0,0.0,0.0,0.0,0.0,0.0,0.0,0.0,0.0,0.0,0.0,0.0,0.0,0.0,0.0,0.0,-3.4491,-3.5058,-3.5708,-3.6958,-3.7814,-3.8356,-3.8998,-3.9322,-3.9426,-3.9581,-3.9697,-3.9697,-3.9848,-3.9923,-3.9923,-4.0074,-4.0149,-4.0149,-4.0149,-4.0149,-4.0212,-4.0962,-4.1288,-4.13,-4.1505,-4.1568,-4.158,-4.1743,-4.1794,-4.1794,0.0,0.0,0.0,0.0,0.0,0.0,0.0,0.0,0.0,0.0,0.0,0.0,-1.7582,-1.7747,-1.7859,-1.7964,-1.8115,-1.8272,-1.837,-1.8743,-1.8907,-1.8907,-1.9205,-1.9465,-1.9576,-1.9843,0.0,0.0,0.0,0.0,0.0,0.0,0.0,0.0,0.0,0.0,0.0,0.0,0.0,0.0,-2.5693,0.0,0.0,-2.6299,-2.6758,0.0,0.0,0.0,-2.8291,-2.8291,-2.8291,0.0,0.0,0.0,0.0,0.0,0.0,0.0,0.0,0.0,0.0,0.0,0.0,0.0,-2.8291,-2.8291,0.0,0.0,0.0,0.0,0.0,0.0,0.0,0.0,0.0,0.0,0.0,0.0,0.0,0.0,0.0,0.0,0.0,-3.2123,-3.2571,-3.3187,-3.3547,-3.4155,-3.5146,-3.6352,-3.7292,-3.7826,-3.8566,-3.905,-3.931,-3.9581,-3.9697,-3.9697,-3.9697,-3.9697,-3.9697,-3.9697,-3.9697,-3.9697,-3.9697,-3.9697,-3.9747,-4.0388,-4.0651,-4.0676,-4.0902,-4.099,-4.0974,-4.12,-4.1288,-4.1288,0.0,0.0,0.0,0.0,0.0,0.0,0.0,0.0,0.0,0.0,-1.7582,-1.7582,-1.7582,-1.7582,-1.7694,-1.7911,-1.7964,-1.8062,-1.8318,-1.8318,-1.837,-1.837,-1.837,-1.8534,-1.8817,-1.9071,0.0,0.0,0.0,0.0,0.0,0.0,0.0,0.0,0.0,0.0,0.0,0.0,0.0,-2.5693,-2.5693,-2.5996,0.0,0.0,-2.6963,-2.7728,-2.7767,-2.7978,-2.8291,-2.8291,-2.8291,0.0,0.0,0.0,0.0,0.0,-2.8291,0.0,0.0,0.0,0.0,0.0,0.0,0.0,-2.8291,-2.8291,-2.8291,0.0,0.0,0.0,0.0,0.0,0.0,0.0,0.0,0.0,0.0,0.0,0.0,0.0,0.0,0.0,0.0,-3.1556,-3.196,-3.2514,-3.2628,-3.3356,-3.4803,-3.5708,-3.6592,-3.7441,-3.8039,-3.8619,-3.9258,-3.953,-3.9697,-3.9697,-3.9697,-3.9697,-3.9697,-3.9697,-3.9697,-3.9697,-3.9697,-3.9697,-3.9697,-3.9697,-3.9697,-3.9747,-4.0237,-4.0425,-4.0488,-4.0924,-4.11,-4.11,-1.7569,0.0,0.0,0.0,0.0,0.0,0.0,0.0,0.0,0.0,0.0,-1.7582,-1.7582,-1.7582,-1.7635,-1.7687,-1.7687,-1.7687,-1.774,-1.7957,-1.8069,-1.8069,-1.8272,-1.8422,-1.8482,-1.8527,0.0,0.0,0.0,0.0,0.0,0.0,0.0,0.0,0.0,0.0,0.0,0.0,0.0,-2.5693,-2.5693,0.0,-2.6426,-2.6768,-2.7217,-2.7767,-2.8047,-2.8223,-2.8291,-2.8291,-2.8291,-2.8291,0.0,0.0,0.0,-2.8291,0.0,0.0,0.0,0.0,0.0,0.0,0.0,0.0,-2.8291,-2.8291,-2.8291,0.0,0.0,0.0,0.0,0.0,0.0,0.0,0.0,0.0,0.0,0.0,0.0,0.0,0.0,0.0,0.0,-3.1218,-3.1441,-3.1556,-3.2285,-3.3254,-3.4513,-3.5212,-3.5982,-3.6862,-3.7655,-3.8356,-3.8893,-3.9218,-3.9478,-3.9697,-3.9697,-3.9697,-3.9697,-3.9697,-3.9697,-3.9697,-3.9697,-3.9697,-3.9697,-3.9697,-3.9697,-3.9697,-3.981,-3.986,-3.9873,-3.9973,-4.0011,-4.0011,-1.7582,0.0,0.0,0.0,0.0,0.0,0.0,0.0,0.0,0.0,0.0,0.0,-1.7582,-1.7582,-1.7582,-1.7582,-1.7582,-1.7582,-1.7582,-1.7747,-1.7799,-1.7799,-1.7957,-1.8055,-1.822,-1.822,-1.8489,0.0,0.0,0.0,0.0,0.0,0.0,0.0,0.0,0.0,0.0,0.0,-2.5409,-2.5857,-2.6015,0.0,-2.6748,-2.7178,-2.7607,-2.8008,-2.8223,-2.8291,-2.8291,-2.8291,-2.8291,0.0,-2.8291,-2.8291,-2.8291,0.0,-2.8291,-2.8291,0.0,0.0,0.0,-2.8291,0.0,0.0,0.0,-2.8291,-2.8291,0.0,0.0,0.0,0.0,0.0,0.0,0.0,0.0,0.0,0.0,0.0,0.0,0.0,0.0,0.0,0.0,-3.0396,-3.0598,-3.0997,-3.2058,-3.3027,-3.3829,-3.4557,-3.5334,-3.62,-3.712,-3.788,-3.8566,-3.905,-3.9426,-3.9697,-3.9697,-3.9697,-3.9697,-3.9697,-3.9697,-3.9697,-3.9697,-3.9697,-3.9697,-3.9697,-3.9697,-3.9697,-3.9697,-3.9697,-3.9697,-3.9697,-3.9697,-3.9697,-1.7582,0.0,0.0,0.0,0.0,0.0,0.0,0.0,0.0,0.0,0.0,0.0,0.0,0.0,-1.7582,-1.7582,-1.7582,-1.7582,-1.7582,-1.7582,-1.7582,-1.7582,-1.7582,-1.7687,-1.7911,-1.7911,-1.8174,0.0,0.0,0.0,0.0,0.0,0.0,0.0,0.0,0.0,0.0,0.0,0.0,-2.6047,0.0,-2.6785,-2.7178,-2.7581,-2.793,-2.8291,-2.8291,-2.8291,-2.8291,-2.8291,-2.8291,-2.8291,-2.8291,-2.8291,0.0,0.0,0.0,0.0,0.0,0.0,0.0,0.0,0.0,-2.8291,0.0,0.0,0.0,0.0,0.0,0.0,0.0,0.0,0.0,0.0,0.0,0.0,0.0,0.0,0.0,0.0,0.0,0.0,0.0,-2.9626,-2.9885,-3.0532,-3.169,-3.2561,-3.2958,-3.3909,-3.4847,-3.5697,-3.658,-3.7453,-3.8303,-3.8893,-3.9322,-3.9633,-3.9697,-3.9697,-3.9697,-3.9697,-3.9697,-3.9697,-3.9697,-3.9697,-3.9697,-3.9697,-3.9697,-3.9697,-3.9697,-3.9697,-3.9697,-3.9697,-3.9697,-3.9697,-1.7582,-1.7582,0.0,0.0,0.0,0.0,0.0,0.0,0.0,0.0,0.0,0.0,0.0,0.0,0.0,-1.7582,-1.7582,-1.7582,-1.7582,-1.7582,-1.7582,-1.7582,-1.7582,-1.7635,-1.7635,-1.7635,-1.7799,-1.8128,0.0,0.0,0.0,0.0,0.0,0.0,-2.2325,0.0,0.0,0.0,-2.5198,0.0,-2.6827,-2.7321,0.0,-2.7699,-2.793,-2.8291,-2.8291,-2.8291,-2.8291,0.0,-2.8291,-2.8291,0.0,-2.8291,-2.8291,-2.8291,0.0,0.0,0.0,0.0,0.0,0.0,-2.8291,0.0,0.0,0.0,-2.8291,-2.8291,0.0,0.0,0.0,0.0,0.0,0.0,0.0,0.0,0.0,0.0,0.0,0.0,0.0,0.0,0.0,-2.9626,-2.9702,-3.005,-3.084,-3.1589,-3.2207,-3.3458,-3.4513,-3.5433,-3.6309,-3.7173,-3.8039,-3.8566,-3.8998,-3.9362,-3.9594,-3.9697,-3.9697,-3.9697,-3.9697,-3.9697,-3.9697,-3.9697,-3.9697,-3.9697,-3.9697,-3.9697,-3.9697,-3.9697,-3.9697,-3.9697,-3.9697,-3.9697,-1.7582,-1.7582,0.0,0.0,0.0,0.0,0.0,0.0,0.0,0.0,0.0,0.0,0.0,0.0,0.0,0.0,0.0,-1.7582,0.0,-1.7582,-1.7582,-1.7582,-1.7582,-1.7582,-1.7582,-1.7582,-1.7747,-1.8016,-1.8115,0.0,0.0,0.0,0.0,0.0,-2.1827,0.0,-2.3591,0.0,-2.521,0.0,0.0,0.0,0.0,-2.7974,-2.8135,-2.8291,-2.8291,-2.8291,-2.8291,0.0,-2.8291,0.0,0.0,0.0,0.0,-2.8291,0.0,0.0,0.0,0.0,0.0,0.0,0.0,0.0,-2.8291,0.0,-2.8291,0.0,0.0,0.0,0.0,0.0,0.0,0.0,-2.8291,0.0,0.0,0.0,0.0,0.0,0.0,0.0,0.0,0.0,0.0,0.0,-3.0213,-3.0964,-3.1398,-3.2678,-3.3832,-3.4756,-3.5845,-3.6874,-3.7744,-3.8473,-3.8945,-3.931,-3.9581,-3.9697,-3.9697,-3.9697,-3.9697,-3.9697,-3.9697,-3.9697,-3.9697,-3.9697,-3.9697,-3.9697,-3.9697,-3.9697,-3.9697,-3.9697,-3.9697,-3.9697,-1.7582,0.0,0.0,0.0,0.0,0.0,0.0,0.0,0.0,0.0,0.0,0.0,-1.7709,-1.7782,0.0,0.0,-1.7836,-1.7836,0.0,0.0,-1.7836,-1.7836,-1.7749,-1.7709,-1.7709,-1.7622,-1.7694,-1.7911,0.0,0.0,0.0,0.0,0.0,0.0,0.0,-2.2074,-2.2919,0.0,0.0,-2.5799,-2.6451,-2.7157,-2.7799,-2.8184,-2.8291,-2.8291,-2.8291,-2.8369,-2.8467,-2.8467,-2.8545,0.0,-2.8506,0.0,-2.8437,0.0,0.0,0.0,-2.8291,0.0,0.0,0.0,0.0,0.0,0.0,0.0,0.0,0.0,0.0,0.0,0.0,0.0,0.0,0.0,0.0,0.0,0.0,0.0,0.0,0.0,0.0,0.0,0.0,0.0,0.0,-2.875,-2.9645,-3.0333,-3.0598,-3.1863,-3.3059,-3.4032,-3.528,-3.641,-3.7316,-3.8157,-3.8736,-3.905,-3.9426,-3.9581,-3.9581,-3.9645,-3.9697,-3.9697,-3.9697,-3.9697,-3.9697,-3.9697,-3.9697,-3.9697,-3.9697,-3.9697,-3.9697,-3.9697,-3.9697,-3.9697,-1.7582,-1.7582,0.0,0.0,0.0,0.0,0.0,0.0,0.0,0.0,0.0,0.0,0.0,0.0,0.0,0.0,0.0,-1.8464,-1.8464,0.0,-1.8464,-1.8464,-1.8183,-1.7975,-1.7975,-1.7736,-1.7582,-1.7635,0.0,0.0,0.0,0.0,0.0,0.0,0.0,-2.1695,-2.2319,-2.3665,-2.4583,-2.5219,-2.6199,-2.6926,-2.7485,0.0,-2.8291,-2.8291,-2.8291,0.0,0.0,-2.8896,-2.918,0.0,0.0,0.0,0.0,0.0,0.0,0.0,0.0,0.0,0.0,-2.8291,0.0,0.0,0.0,0.0,-2.8291,0.0,0.0,0.0,0.0,0.0,0.0,-2.8291,0.0,0.0,0.0,0.0,0.0,0.0,0.0,0.0,0.0,0.0,0.0,-2.831,-2.9026,-2.9545,-2.9816,-3.1122,-3.2291,-3.3408,-3.4521,-3.5676,-3.67,-3.7613,-3.8145,-3.8461,-3.905,-3.931,-3.931,-3.9581,-3.9697,-3.9697,-3.9697,-3.9697,-3.9697,-3.9697,-3.9697,-3.9697,-3.9697,-3.9697,-3.9697,-3.9697,-3.9697,-3.9697,0.0,0.0,0.0,0.0,0.0,0.0,0.0,-1.7756,0.0,0.0,-1.815,0.0,0.0,-1.843,-1.849,0.0,0.0,-1.849,-1.849,-1.849,0.0,-1.849,-1.8397,-1.8337,-1.8337,-1.8043,-1.7836,0.0,0.0,0.0,0.0,0.0,0.0,0.0,0.0,-2.1269,0.0,0.0,0.0,0.0,0.0,-2.6875,-2.7354,0.0,-2.8459,-2.8488,-2.8988,-2.9228,0.0,-2.9346,-2.9443,-2.9541,-2.9394,-2.9346,-2.9326,-2.918,-2.9141,0.0,0.0,0.0,-2.8643,-2.8359,0.0,0.0,0.0,0.0,0.0,0.0,0.0,0.0,0.0,0.0,0.0,-2.8291,-2.8291,0.0,0.0,0.0,0.0,0.0,0.0,0.0,0.0,0.0,0.0,-2.8291,-2.8696,-2.9043,-2.93,-3.0422,-3.1495,-3.2469,-3.3831,-3.4998,-3.5956,-3.7115,-3.788,-3.8145,-3.8684,-3.9102,-3.931,-3.9374,-3.953,-3.9697,-3.9697,-3.9697,-3.9697,-3.9697,-3.9697,-3.9697,-3.9697,-3.9697,-3.9697,-3.9697,-3.9697,-3.9697,-1.7582,0.0,0.0,0.0,0.0,0.0,0.0,0.0,0.0,0.0,-1.8464,0.0,-1.8644,0.0,-1.8804,0.0,-1.8804,-1.8804,-1.8804,-1.8804,0.0,-1.8804,-1.8704,-1.8644,-1.8644,-1.8357,-1.8203,0.0,0.0,-1.807,0.0,0.0,0.0,0.0,0.0,0.0,-2.189,0.0,-2.3468,0.0,0.0,-2.6376,0.0,0.0,-2.8472,-2.86,0.0,-2.9453,-2.9692,-2.9692,-2.9856,-3.001,-2.9844,-2.9795,-2.9766,-2.9619,-2.9626,-2.9512,-2.9228,-2.915,0.0,-2.8818,-2.875,0.0,-2.8555,0.0,-2.8476,0.0,0.0,0.0,0.0,0.0,0.0,0.0,-2.8291,0.0,0.0,-2.8291,0.0,0.0,0.0,0.0,0.0,0.0,-2.8291,-2.8291,-2.8461,-2.8664,0.0,0.0,-3.0693,-3.1498,-3.305,-3.4255,-3.5157,-3.6498,-3.7281,-3.756,-3.8198,-3.8619,-3.8828,-3.905,-3.927,-3.953,-3.953,-3.9594,-3.9697,-3.9697,-3.9697,-3.9697,-3.9697,-3.9697,-3.9697,-3.9697,-3.9697,-3.9697,-1.7622,0.0,0.0,0.0,-1.7876,0.0,0.0,0.0,-1.851,0.0,-1.8778,-1.8965,-1.8965,-1.9232,-1.947,-1.947,-1.947,-1.947,-1.947,-1.947,0.0,0.0,-1.9118,-1.8958,-1.8945,-1.8657,-1.851,0.0,0.0,0.0,0.0,0.0,0.0,0.0,-2.0248,0.0,-2.082,-2.2035,-2.2691,-2.3126,-2.4714,-2.5508,-2.5961,-2.7691,-2.8447,-2.8578,-2.8634,-2.9174,-2.9795,-2.9795,-3.0248,-3.0752,-3.0371,-3.0225,-3.0146,-2.9756,-2.9629,-2.9629,-2.9665,-2.9655,-2.96,-2.957,-2.9626,0.0,0.0,0.0,-2.8838,0.0,0.0,0.0,0.0,0.0,0.0,0.0,0.0,0.0,0.0,0.0,0.0,0.0,0.0,0.0,0.0,-2.8291,-2.8291,-2.8291,-2.8291,0.0,0.0,0.0,-2.9906,-3.0648,-3.218,-3.3364,-3.4215,-3.5534,-3.6352,-3.6646,-3.7548,-3.7933,-3.7986,-3.8514,-3.8945,-3.9258,-3.9258,-3.9426,-3.9685,-3.9685,-3.9697,-3.9697,-3.9697,-3.9697,-3.9697,-3.9697,-3.9697,-3.9697,-1.8257,-1.8257,-1.8257,0.0,-1.8323,-1.8377,0.0,0.0,0.0,0.0,-1.9259,-1.9573,-1.9573,-1.9833,-2.0007,-2.0007,-2.0007,0.0,0.0,0.0,0.0,-1.97,-1.9613,-1.9472,-1.9259,-1.8965,-1.8811,-1.8811,0.0,0.0,-1.8594,0.0,0.0,0.0,0.0,0.0,-2.1094,-2.1402,-2.2146,-2.3124,-2.4228,-2.506,0.0,0.0,-2.7491,-2.7937,-2.9133,-2.9676,-2.9878,-2.9878,-3.0013,-3.0206,-3.0315,-3.0335,-3.0374,-3.0518,-3.0557,-3.0478,-3.0127,-3.0039,-2.9961,-2.9648,-2.9626,-2.9597,0.0,0.0,0.0,0.0,0.0,0.0,0.0,0.0,0.0,0.0,0.0,0.0,0.0,0.0,0.0,-2.8291,0.0,0.0,-2.8291,-2.8291,-2.8291,-2.8291,-2.8291,0.0,0.0,0.0,0.0,-3.0149,-3.0904,-3.1902,-3.3095,-3.4259,-3.5226,-3.6025,-3.6688,-3.7251,-3.7691,-3.8039,-3.8356,-3.8619,-3.8841,-3.9102,-3.9426,-3.9426,-3.953,-3.9697,-3.9697,-3.9697,-3.9697,-3.9697,-3.9697,-3.9697,-1.849,0.0,0.0,-1.8677,0.0,0.0,-1.8718,-1.9038,0.0,-1.9305,-1.9706,0.0,-1.9987,-2.0134,-2.0173,-2.0173,-2.0173,0.0,-2.0173,0.0,0.0,-1.9993,-1.9987,-1.9853,-1.9559,-1.9392,-1.9245,-1.9118,0.0,0.0,-1.8871,0.0,0.0,0.0,0.0,-1.9945,0.0,-2.1177,-2.1882,-2.2723,-2.3802,0.0,0.0,-2.6124,-2.6678,-2.7039,-2.8182,-2.8907,-2.9263,-2.9263,-2.944,-2.9736,-2.9903,-3.0089,-3.0274,-3.0577,-3.0704,-3.0645,-3.0566,-3.0498,-3.0439,-3.0205,-3.0146,-3.0088,-2.9893,-2.9844,-2.9726,0.0,-2.9053,-2.8848,0.0,0.0,0.0,0.0,0.0,0.0,0.0,0.0,0.0,0.0,-2.8291,0.0,-2.8291,-2.8291,-2.8291,-2.8291,-2.8291,0.0,0.0,0.0,0.0,-2.9416,-3.0259,-3.1133,-3.2102,-3.3323,-3.4351,-3.5212,-3.5817,-3.6429,-3.7047,-3.7292,-3.7667,-3.8051,-3.8303,-3.8631,-3.8945,-3.905,-3.927,-3.953,-3.9633,-3.9697,-3.9697,-3.9697,-3.9697,-3.9697,-1.8657,0.0,0.0,0.0,0.0,0.0,0.0,-1.9533,0.0,-1.986,0.0,-2.0294,-2.0294,-2.0327,-2.0347,-2.0347,0.0,-2.0347,-2.0347,-2.0347,-2.0273,-2.0294,-2.0294,-2.0154,-1.986,-1.986,-1.9713,0.0,0.0,0.0,0.0,0.0,0.0,0.0,0.0,0.0,0.0,-2.1124,-2.1802,-2.2129,-2.3369,-2.393,-2.4129,-2.5404,-2.5892,-2.5953,-2.6571,-2.7409,-2.8301,-2.8361,-2.871,-2.9185,-2.9244,-2.949,-2.9863,-3.0147,-3.0323,-3.0392,-3.0762,-3.083,-3.083,-3.0889,-3.0889,-3.0781,-3.0381,-3.0293,-3.0166,-2.9736,-2.9346,-2.9053,0.0,0.0,0.0,0.0,0.0,0.0,0.0,0.0,0.0,0.0,0.0,0.0,-2.8291,-2.8291,-2.8291,0.0,0.0,0.0,0.0,0.0,0.0,-2.8684,-2.9825,-3.0694,-3.1275,0.0,-3.3537,-3.4345,-3.4947,-3.5554,-3.6168,-3.6429,-3.6808,-3.737,-3.7667,-3.7986,-3.825,-3.8579,-3.8893,-3.9258,-3.953,-3.9645,-3.9645,-3.9697,-3.9697,-3.9697,-1.9526,0.0,0.0,0.0,0.0,-2.012,-2.002,-2.0033,-2.0154,-2.0154,-2.0414,-2.0601,-2.0601,-2.0808,-2.0955,-2.0955,-2.0955,0.0,0.0,0.0,0.0,-2.0608,-2.0601,-2.0461,-2.0167,-2.0154,-2.0013,0.0,0.0,0.0,0.0,0.0,0.0,0.0,0.0,0.0,-2.0264,-2.0984,0.0,-2.1756,-2.254,-2.3029,-2.3398,-2.4456,-2.4857,-2.4919,-2.5288,-2.6197,-2.7289,-2.7581,-2.7753,-2.7933,-2.848,-2.8907,-2.9213,-2.949,-2.9785,-3.0039,-3.0392,-3.0509,-3.0577,-3.083,-3.0889,-3.0869,-3.0791,-3.0771,-3.0635,-3.0185,-3.0019,-2.9756,-2.9043,0.0,0.0,0.0,0.0,0.0,0.0,0.0,0.0,0.0,0.0,-2.8291,0.0,-2.8291,0.0,0.0,0.0,0.0,0.0,0.0,0.0,0.0,-2.8903,0.0,0.0,0.0,-3.2311,-3.3356,-3.4009,-3.4635,-3.5257,-3.5499,-3.5817,-3.6145,-3.6688,-3.7078,-3.7346,-3.7933,-3.8461,-3.8945,-3.9258,-3.9374,-3.9426,-3.9633,-3.9697,-3.9697,0.0,0.0,0.0,0.0,0.0,0.0,0.0,-2.0595,-2.0635,-2.0481,-2.0715,-2.0902,-2.0902,-2.1029,-2.1109,-2.1109,-2.1109,-2.1109,-2.1109,-2.1109,-2.1049,-2.0909,-2.0902,-2.0768,-2.0468,-2.0461,-2.0321,-2.0027,0.0,0.0,0.0,0.0,0.0,0.0,0.0,-2.01,0.0,0.0,0.0,-2.1638,-2.2136,-2.2407,-2.2668,-2.33,-2.3673,-2.386,-2.417,-2.4849,-2.5586,-2.6258,-2.6623,-2.6918,-2.753,-2.7951,-2.831,-2.8778,-2.9144,-2.9509,-2.9785,-3.0147,-3.045,-3.0577,-3.0762,-3.0889,-3.0889,-3.0889,-3.083,-3.0605,-3.0361,-2.9932,-2.9072,-2.875,0.0,0.0,0.0,0.0,0.0,0.0,-2.8291,0.0,0.0,0.0,0.0,0.0,0.0,0.0,0.0,0.0,0.0,0.0,0.0,0.0,0.0,0.0,0.0,0.0,0.0,-3.2618,-3.3151,-3.366,-3.4278,-3.4568,-3.4891,-3.5135,-3.5751,-3.6091,-3.6309,-3.7173,-3.788,-3.8409,-3.8736,-3.905,-3.9322,-3.9426,-3.9581,-3.9697,0.0,-2.0327,0.0,0.0,-2.0668,0.0,-2.0862,-2.1109,-2.1189,-2.0902,-2.1062,-2.1229,-2.1289,-2.1296,-2.1296,-2.1296,-2.1296,-2.1296,-2.1296,-2.1236,-2.1203,-2.1203,-2.1142,-2.1002,-2.0775,-2.0768,-2.0621,0.0,0.0,0.0,0.0,0.0,0.0,0.0,0.0,0.0,0.0,0.0,-2.1271,-2.1544,-2.1859,-2.1985,-2.2048,-2.2355,-2.2675,-2.2918,-2.3175,-2.3425,-2.3798,-2.4672,-2.5341,-2.5892,-2.6579,-2.6995,-2.734,-2.8002,-2.843,-2.8788,-2.9194,-2.9677,-3.0147,-3.0333,-3.0577,-3.083,-3.0889,-3.0889,-3.0889,-3.0889,-3.0518,-2.999,-2.9316,-2.9043,0.0,0.0,0.0,0.0,0.0,0.0,0.0,0.0,0.0,0.0,-2.8291,0.0,0.0,0.0,0.0,0.0,0.0,0.0,0.0,0.0,0.0,-2.9036,-2.9905,0.0,-3.0968,-3.1998,-3.2342,-3.2799,-3.33,-3.3558,-3.3885,-3.4256,-3.4814,-3.5146,-3.5488,-3.6363,-3.712,-3.7773,-3.8092,-3.8579,-3.905,-3.9206,-3.9426,-3.9633,0.0,0.0,0.0,0.0,0.0,0.0,-2.1541,-2.1717,-2.1804,-2.1574,-2.1561,-2.1681,-2.1877,-2.1904,-2.1904,-2.1904,-2.1904,-2.1904,-2.1904,-2.1722,-2.1574,-2.1574,-2.1256,-2.1096,-2.1069,-2.1069,-2.0922,0.0,0.0,-2.0494,0.0,0.0,0.0,0.0,0.0,0.0,0.0,-2.1018,-2.1145,-2.1172,-2.1488,-2.167,-2.167,-2.2048,-2.2174,-2.2174,-2.2237,-2.2237,-2.2362,-2.2731,-2.3728,-2.4857,-2.5541,-2.597,-2.638,-2.7004,-2.7418,-2.7822,-2.8797,-2.9103,-2.934,-3.0216,-3.0441,-3.0509,-3.083,-3.0889,-3.0889,-3.0889,-3.0518,-3.0176,-3.0088,-2.9443,-2.8906,0.0,0.0,0.0,0.0,0.0,-2.8291,-2.8291,0.0,0.0,0.0,-2.8291,0.0,0.0,0.0,0.0,0.0,0.0,0.0,-2.8291,0.0,-2.8765,-2.9616,-2.9915,-3.0519,-3.1383,-3.173,-3.2065,-3.2342,-3.2342,-3.2742,-3.331,-3.3639,-3.4368,-3.5422,-3.5543,-3.6036,-3.6862,-3.7441,-3.788,-3.8198,-3.8998,-3.9322,-3.9374,0.0,0.0,0.0,0.0,0.0,0.0,0.0,-2.1911,-2.2004,-2.2064,-2.1924,-2.1857,-2.1971,-2.1984,-2.1984,-2.1984,-2.1984,-2.1984,-2.1984,-2.1877,-2.181,-2.181,-2.153,-2.1376,-2.1376,-2.1203,-2.1049,0.0,0.0,0.0,0.0,0.0,0.0,0.0,0.0,-2.0935,-2.0942,-2.1056,-2.1109,-2.1109,-2.1235,-2.1299,-2.1292,-2.1418,-2.1607,-2.1796,-2.1796,-2.1922,-2.2111,-2.2237,-2.2918,-2.3798,-2.4479,-2.4919,-2.5341,-2.597,-2.6571,-2.7108,-2.7728,-2.8448,-2.9153,-2.9667,-3.0089,-3.0509,-3.083,-3.0889,-3.0889,-3.0889,-3.0742,-3.0527,-3.0244,-2.9922,-2.9521,-2.9004,0.0,0.0,0.0,0.0,0.0,-2.8291,0.0,-2.8291,0.0,0.0,0.0,0.0,0.0,0.0,0.0,0.0,0.0,-2.8291,0.0,-2.8701,-2.956,-2.9692,-3.0189,-3.1054,-3.1334,-3.1556,-3.1662,-3.1893,-3.218,-3.2628,-3.2913,-3.3526,-3.4368,-3.4725,-3.5279,-3.5982,-3.658,-3.7173,-3.7814,-3.8356,-3.8841,-3.9322,-2.1637,0.0,-2.1809,0.0,-2.2058,-2.2111,-2.2111,-2.2184,-2.2318,-2.2525,-2.2372,-2.2245,-2.2245,-2.2245,-2.2245,-2.2245,-2.2245,-2.2245,-2.2245,-2.2158,-2.2111,-2.2111,-2.1837,0.0,-2.1621,-2.1349,-2.1196,-2.1109,-2.1109,0.0,0.0,0.0,0.0,0.0,-2.1109,-2.1109,-2.1109,-2.1109,-2.1109,-2.1109,-2.1109,-2.1109,-2.1109,-2.1109,-2.1235,-2.1418,-2.1418,-2.1607,-2.1796,-2.1796,-2.2174,-2.2801,-2.3425,-2.3922,-2.4293,-2.4988,-2.5656,-2.6275,-2.6822,-2.7719,-2.8677,-2.9135,-2.9736,-3.0216,-3.0645,-3.0762,-3.0762,-3.0889,-3.0889,-3.0791,-3.0459,-3.0293,-3.0,-2.9394,0.0,0.0,0.0,-2.8369,0.0,-2.8291,-2.8291,-2.8291,-2.8291,-2.8291,0.0,0.0,0.0,0.0,0.0,0.0,0.0,0.0,0.0,0.0,0.0,-2.9697,-3.0137,-3.0889,-3.1112,-3.116,-3.1218,-3.1498,-3.1787,-3.194,-3.2285,-3.2799,-3.3356,-3.3773,-3.4446,-3.5168,-3.5708,-3.6417,-3.7281,-3.7708,-3.8303,-3.8945,-2.1977,-2.1984,-2.1984,-2.1984,-2.2225,-2.2412,-2.2412,-2.2665,-2.2921,-2.2921,-2.2921,-2.2921,-2.2921,-2.2921,-2.2921,-2.2921,-2.2921,-2.2921,-2.2921,-2.2579,-2.2412,0.0,0.0,-2.1844,-2.1628,-2.1614,-2.1403,-2.1109,0.0,0.0,-2.1109,0.0,-2.1109,-2.1109,-2.1109,-2.1109,-2.1109,-2.1109,-2.1109,-2.1109,-2.1109,-2.1109,-2.1109,-2.1109,-2.1109,-2.1109,-2.1109,-2.1109,-2.1109,-2.1109,-2.1355,-2.1734,-2.2425,-2.2856,-2.323,-2.3922,-2.461,-2.5357,-2.6327,-2.7047,-2.7762,-2.8737,-2.9272,-2.9686,-3.0265,-3.0392,-3.0509,-3.083,-3.0889,-3.0889,-3.0889,-3.0508,-3.0195,-3.0185,0.0,0.0,0.0,-2.8555,0.0,-2.8291,-2.8291,-2.8291,-2.8291,-2.8291,0.0,0.0,0.0,0.0,0.0,0.0,0.0,-2.8291,-2.8701,0.0,-2.9626,-2.998,-3.043,-3.0889,-3.0889,-3.0889,-3.0889,-3.116,-3.1334,-3.1325,-3.1672,-3.2123,-3.2685,-3.2742,-3.3434,-3.4513,-3.4814,-3.5477,-3.6429,-3.7281,-3.7773,-3.8092,-2.1911,-2.2151,-2.2345,-2.2545,-2.2659,-2.2719,-2.2719,-2.2806,-2.2928,-2.2928,-2.2928,-2.2928,-2.2928,-2.2928,-2.2928,0.0,-2.2928,-2.2928,0.0,-2.2772,-2.2719,-2.2719,-2.2438,-2.2238,-2.2144,-2.1822,-2.1568,-2.141,0.0,0.0,0.0,-2.1109,-2.1109,-2.1109,-2.1109,-2.1109,-2.1109,-2.1109,-2.1109,-2.1109,-2.1109,-2.1109,-2.1109,-2.1109,-2.1109,-2.1109,-2.1109,-2.1109,-2.1109,-2.1109,-2.1172,-2.1299,-2.1488,-2.1985,-2.2543,-2.323,-2.3736,-2.4293,-2.5288,-2.6205,-2.7047,-2.7762,-2.8549,-2.9272,-2.9608,-3.0079,-3.045,-3.0518,-3.0762,-3.0889,-3.0889,-3.0771,-3.0566,-3.0244,-2.9971,0.0,-2.9004,0.0,-2.8613,-2.833,-2.8291,-2.8291,-2.8291,-2.8291,0.0,0.0,0.0,0.0,0.0,0.0,0.0,0.0,-2.8848,0.0,-2.999,-3.0127,-3.043,-3.0889,-3.0889,-3.0889,-3.0889,-3.0995,-3.1054,-3.1054,-3.1334,-3.1556,-3.1777,-3.2457,-3.2913,-3.3367,-3.4278,-3.4936,-3.5477,-3.6363,-3.7024,-3.7453,-2.1943,-2.2247,-2.251,-2.2832,-2.2928,-2.2928,-2.2928,-2.2928,-2.2928,-2.2928,-2.2928,-2.2928,-2.2928,-2.2928,0.0,-2.2928,-2.2928,-2.2928,-2.2928,-2.2928,-2.2928,-2.2928,-2.2686,-2.2532,-2.2418,-2.2064,0.0,-2.1614,-2.1256,-2.1109,-2.1109,-2.1109,-2.1109,-2.1109,-2.1109,-2.1109,-2.1109,-2.1109,-2.1109,-2.1109,-2.1109,-2.1109,-2.1109,-2.1109,-2.1109,-2.1109,-2.1109,-2.1109,-2.1109,-2.1109,-2.1109,-2.1109,-2.1109,-2.1362,-2.1859,-2.2362,-2.2918,-2.3611,-2.4355,-2.5341,-2.638,-2.6987,-2.7822,-2.8609,-2.9144,-2.9667,-3.0079,-3.0216,-3.0401,-3.0587,-3.0704,-3.0704,-3.0665,-3.0498,-3.0312,-3.001,-2.9473,0.0,-2.9004,0.0,0.0,0.0,0.0,-2.8291,-2.8291,0.0,0.0,0.0,0.0,0.0,0.0,-2.8916,-2.9228,-2.9658,-3.0185,-3.0371,-3.0605,-3.0889,-3.0889,-3.0889,-3.0889,-3.0889,-3.0889,-3.0889,-3.1054,-3.1218,-3.1325,-3.195,-3.2399,-3.2799,-3.3547,-3.4166,-3.4714,-3.5477,-3.6091,-3.658,-2.2035,-2.2242,-2.2379,0.0,-2.2859,0.0,-2.2928,-2.2928,-2.2928,-2.2928,-2.2928,-2.2928,-2.2928,-2.2928,-2.2928,-2.2928,0.0,0.0,0.0,-2.2928,-2.2928,-2.2928,-2.2928,-2.2732,-2.2452,-2.2432,-2.2131,-2.1614,-2.1276,-2.1129,-2.1109,-2.1109,-2.1109,-2.1109,-2.1109,-2.1109,-2.1109,-2.1109,-2.1109,-2.1109,-2.1109,-2.1109,-2.1109,-2.1109,-2.1109,-2.1109,-2.1109,-2.1109,-2.1109,-2.1109,-2.1109,-2.1109,-2.1109,-2.1109,-2.1172,-2.1481,-2.223,-2.3113,-2.3487,-2.4471,-2.5639,-2.6327,-2.6987,-2.7702,-2.8677,-2.9085,-2.9372,-2.9745,-2.9863,-2.9981,-3.0265,-3.0333,-3.045,-3.0762,-3.046,-3.0177,-3.0205,-2.9863,-2.9453,0.0,0.0,0.0,-2.8418,-2.8379,-2.8379,0.0,0.0,0.0,0.0,0.0,-2.9004,-2.9004,-2.9775,-3.0215,-3.0244,-3.0674,-3.0889,-3.0889,-3.0889,-3.0889,-3.0889,-3.0889,-3.0889,-3.0889,-3.0889,-3.1054,-3.1267,-3.1267,-3.1835,-3.2628,-3.2685,-3.3208,-3.4086,-3.4647,-3.5035,-3.5433,0.0,0.0,-2.2035,-2.2379,-2.2448,-2.2516,-2.2866,-2.2928,-2.2928,-2.2928,-2.2928,-2.2928,-2.2928,-2.2928,-2.2928,-2.2928,-2.2928,-2.2928,-2.2928,-2.2928,-2.2928,-2.2928,-2.2928,-2.2826,-2.2759,-2.2532,-2.2131,-2.1614,-2.1547,-2.1329,-2.1109,-2.1109,-2.1109,-2.1109,-2.1109,-2.1109,-2.1109,-2.1109,-2.1109,-2.1109,-2.1109,-2.1109,-2.1109,-2.1109,-2.1109,-2.1109,-2.1109,-2.1109,-2.1109,-2.1109,-2.1109,-2.1109,-2.1109,-2.1109,-2.1172,-2.1481,-2.1796,-2.2174,-2.2981,-2.3666,-2.4286,-2.5226,-2.6144,-2.6995,-2.7702,-2.8131,-2.843,-2.8778,-2.9194,-2.9549,-2.9599,-2.9853,-3.0039,-3.0108,-3.0247,-3.0238,-2.992,-3.0013,-2.9893,0.0,-2.9414,-2.9375,-2.9277,-2.9268,-2.9268,0.0,0.0,0.0,0.0,-2.9717,-2.9893,-2.9893,-3.0088,-3.0361,-3.0723,-3.083,-3.0889,-3.0889,-3.0889,-3.0889,-3.0889,-3.0889,-3.0889,-3.0889,-3.0889,-3.0947,-3.1005,-3.1218,-3.1441,-3.172,-3.2399,-3.2856,-3.3151,-3.3952,-3.4356,-3.4524,-2.0104,-2.0798,-2.1421,-2.176,-2.1966,-2.2179,-2.2379,-2.2516,-2.2654,-2.2654,-2.2791,-2.2928,-2.2928,-2.2928,-2.2928,-2.2928,-2.2928,-2.2928,-2.2928,-2.2928,-2.2928,-2.2928,-2.2928,-2.2928,-2.2928,-2.2706,-2.2398,-2.1951,-2.1748,-2.1534,-2.1309,-2.1169,-2.1109,-2.1109,-2.1109,-2.1109,-2.1109,-2.1109,-2.1109,-2.1109,-2.1109,-2.1109,-2.1109,-2.1109,-2.1109,-2.1109,-2.1109,-2.1109,-2.1109,-2.1109,-2.1109,-2.1109,-2.1109,-2.1109,-2.1109,-2.1299,-2.1488,-2.1734,-2.2299,-2.2863,-2.3604,-2.461,-2.541,-2.6083,-2.6736,-2.6978,-2.7289,-2.7702,-2.8182,-2.8591,-2.8719,-2.9016,-2.9322,-2.9618,-2.9844,-2.9944,-3.0084,-3.0219,-3.017,-2.9912,-2.9853,-2.9785,-2.9646,-2.9626,-2.9626,-2.9626,-2.9626,0.0,-2.9844,-3.0068,-3.0195,-3.0195,-3.04,-3.0635,-3.0889,-3.0889,-3.0889,-3.0889,-3.0889,-3.0889,-3.0889,-3.0889,-3.0889,-3.0889,-3.0889,-3.0889,-3.0889,-3.1054,-3.1218,-3.1325,-3.1835,-3.2123,-3.2352,-3.298,-3.3332,-3.3558,-1.9047,-1.9889,-2.0527,-2.0861,-2.1283,-2.1559,-2.1697,-2.1966,-2.2173,-2.2242,-2.2516,-2.2722,-2.2722,-2.2791,-2.2791,-2.2791,-2.2859,-2.2928,-2.2928,-2.2928,-2.2928,-2.2928,-2.2928,-2.2928,-2.2928,-2.2928,-2.2719,-2.2418,-2.1924,-2.1702,-2.1614,-2.1296,-2.1156,-2.1109,-2.1109,-2.1109,-2.1109,-2.1109,-2.1109,-2.1109,-2.1109,-2.1109,-2.1109,-2.1109,-2.1109,-2.1109,-2.1109,-2.1109,-2.1109,-2.1109,-2.1109,-2.1109,-2.1109,-2.1109,-2.1109,-2.1109,-2.1299,-2.1551,-2.1614,-2.2299,-2.3238,-2.4108,-2.461,-2.5042,-2.5647,-2.5831,-2.6014,-2.6571,-2.7047,-2.7401,-2.765,-2.8071,-2.854,-2.9007,-2.9244,-2.9549,-3.0089,0.0,-3.0364,-3.0227,-3.0293,-3.0166,-2.9805,-2.9832,-2.9832,-2.9832,-2.9832,-2.9922,-3.0283,-3.0303,-3.0303,-3.0303,-3.0684,-3.0889,-3.0889,-3.0889,-3.0889,-3.0889,-3.0889,-3.0889,-3.0889,-3.0889,-3.0889,-3.0889,-3.0889,-3.0889,-3.0889,-3.0889,-3.1054,-3.1218,-3.1267,-3.1441,-3.1787,-3.2065,-3.2342,-3.2628,-1.7635,-1.8487,-1.9407,-1.9675,-2.0104,-2.0596,-2.1214,-2.1352,-2.149,-2.1829,-2.1904,-2.1973,-2.1973,-2.2242,-2.2379,-2.2379,-2.2722,-2.2928,-2.2928,-2.2928,-2.2928,-2.2928,-2.2928,-2.2928,-2.2928,-2.2928,-2.2719,-2.2418,-2.2331,-2.2031,-2.1614,-2.1568,-2.1349,-2.1109,-2.1109,-2.1109,-2.1109,-2.1109,-2.1109,-2.1109,-2.1109,-2.1109,-2.1109,-2.1109,-2.1109,-2.1109,-2.1109,-2.1109,-2.1109,-2.1109,-2.1109,-2.1109,-2.1109,-2.1109,-2.1109,-2.1109,-2.1109,-2.1235,-2.1544,-2.2111,-2.2731,-2.2856,-2.3362,-2.3922,-2.4293,-2.4602,-2.4919,-2.5349,-2.5892,-2.6311,-2.638,-2.7099,-2.7702,-2.7753,-2.8489,-2.9103,-2.9213,0.0,-3.0363,-3.0354,-3.0597,-3.0762,-3.0693,-3.0684,-3.0684,-3.0684,-3.0684,-3.0713,-3.0781,-3.0781,-3.0781,-3.0781,-3.085,-3.0889,-3.0889,-3.0889,-3.0889,-3.0889,-3.0889,-3.0889,-3.0889,-3.0889,-3.0889,-3.0889,-3.0889,-3.0889,-3.0889,-3.0889,-3.0947,-3.1005,-3.1218,-3.1325,-3.1441,-3.173,-3.1903,-3.2018,-1.6376,-1.7288,-1.8137,-1.8266,-1.8982,-1.9616,-1.9965,-2.0382,-2.0659,-2.0873,-2.1081,-2.1289,-2.149,-2.1622,-2.176,-2.2035,-2.2173,-2.2379,-2.2585,-2.2791,-2.2928,-2.2928,-2.2928,-2.2928,-2.2928,-2.2928,-2.2792,-2.2659,-2.2498,-2.2278,-2.2011,-2.1769,-2.1541,-2.1343,-2.1182,-2.1109,-2.1109,-2.1109,-2.1109,-2.1109,-2.1109,-2.1109,-2.1109,-2.1109,-2.1109,-2.1109,-2.1109,-2.1109,-2.1109,-2.1109,-2.1109,-2.1109,-2.1109,-2.1109,-2.1109,-2.1109,-2.1109,-2.1172,-2.1488,-2.1859,-2.2111,-2.2299,-2.2543,-2.2863,-2.323,-2.3425,-2.3673,-2.417,-2.4664,-2.5087,-2.528,-2.5953,-2.6562,-2.6736,-2.7409,0.0,-2.8677,-2.9263,-2.9853,-3.0323,-3.0518,-3.0704,-3.0889,-3.0889,-3.0889,-3.0889,-3.0889,-3.0889,-3.0889,-3.0889,-3.0889,-3.0889,-3.0889,-3.0889,-3.0889,-3.0889,-3.0889,-3.0889,-3.0889,-3.0889,-3.0889,-3.0889,-3.0889,-3.0889,-3.0889,-3.0889,-3.0889,-3.0889,-3.0889,-3.0889,-3.1054,-3.1112,-3.1112,-3.1286,-3.1392,-3.1556,-1.5106,-1.6018,-1.679,-1.6866,-1.7786,-1.8493,-1.8563,-1.9128,-1.9622,-1.9686,-1.9965,-2.0312,-2.0659,-2.0792,-2.1,-2.1352,-2.1559,-2.176,-2.2035,-2.2448,-2.2729,-2.2859,-2.2928,-2.2928,-2.2928,-2.2928,-2.2928,-2.2928,-2.2632,-2.2485,-2.2405,-2.1891,-2.1681,-2.1601,-2.1243,-2.1109,-2.1109,-2.1109,-2.1109,-2.1109,-2.1109,-2.1109,-2.1109,-2.1109,-2.1109,-2.1109,-2.1109,-2.1109,-2.1109,-2.1109,-2.1109,-2.1109,-2.1109,-2.1109,-2.1109,-2.1109,-2.1109,-2.1172,-2.1418,-2.1488,-2.1544,-2.1796,-2.1922,-2.2048,-2.2299,-2.2425,-2.2613,-2.3168,-2.3549,-2.386,-2.417,-2.4795,-2.5418,-2.577,0.0,-2.7246,-2.8071,-2.8677,-2.9272,-3.0089,-3.0323,-3.0509,-3.0889,-3.0889,-3.0889,-3.0889,-3.0889,-3.0889,-3.0889,-3.0889,-3.0889,-3.0889,-3.0889,-3.0889,-3.0889,-3.0889,-3.0889,-3.0889,-3.0889,-3.0889,-3.0889,-3.0889,-3.0889,-3.0889,-3.0889,-3.0889,-3.0889,-3.0889,-3.0889,-3.0889,-3.0889,-3.0889,-3.0889,-3.0889,-3.1054,-3.1218,-1.3971,-1.4604,-1.5314,-1.5673,-1.6376,-1.7012,-1.7359,-1.7786,-1.8142,-1.8482,-1.8552,-1.8692,-1.9128,-1.9471,-1.982,-2.0179,-2.0867,-2.1283,-2.1283,-2.1697,-2.2179,-2.2859,-2.2928,-2.2928,-2.2928,-2.2928,-2.2928,-2.2928,-2.2908,-2.2686,-2.2412,-2.2104,-2.181,-2.1601,-2.1243,-2.1109,-2.1109,-2.1109,-2.1109,-2.1109,-2.1109,-2.1109,-2.1109,-2.1109,-2.1109,-2.1109,-2.1109,-2.1109,-2.1109,-2.1109,-2.1109,-2.1109,-2.1109,-2.1109,-2.1109,-2.1109,-2.1109,-2.1109,-2.1109,-2.1109,-2.1172,-2.1172,-2.1425,-2.167,-2.167,-2.1922,-2.2174,-2.2174,-2.2487,-2.2793,-2.3168,-2.3736,-2.4417,-2.505,0.0,0.0,-2.7133,-2.8268,-2.9094,-2.9431,-3.002,-3.0509,-3.0889,-3.0889,-3.0889,-3.0889,-3.0889,-3.0889,-3.0889,-3.0889,-3.0889,-3.0889,-3.0889,-3.0889,-3.0889,-3.0889,-3.0889,-3.0889,-3.0889,-3.0889,-3.0889,-3.0889,-3.0889,-3.0889,-3.0889,-3.0889,-3.0889,-3.0889,-3.0889,-3.0889,-3.0889,-3.0889,-3.0889,-3.0889,-3.0889,-3.0947,-1.3114,-1.3611,-1.4039,-1.447,-1.5172,-1.581,-1.6164,-1.6593,-1.688,-1.7017,-1.7017,-1.7298,-1.7856,-1.8061,-1.8412,-1.8977,-1.9541,-1.9889,-2.0162,-2.0729,-2.1559,-2.2516,-2.2791,-2.2928,-2.2928,-2.2928,-2.2928,-2.2928,-2.2928,-2.2806,-2.2686,-2.2205,-2.1931,-2.1804,-2.1323,-2.1109,-2.1109,-2.1109,-2.1109,-2.1109,-2.1109,-2.1109,-2.1109,-2.1109,-2.1109,-2.1109,-2.1109,-2.1109,-2.1109,-2.1109,-2.1109,-2.1109,-2.1109,-2.1109,-2.1109,-2.1109,-2.1109,-2.1109,-2.1109,-2.1109,-2.1109,-2.1109,-2.1172,-2.1292,-2.1292,-2.1418,-2.1544,-2.1734,-2.1922,-2.2111,-2.2418,-2.305,-2.3542,-2.3798,0.0,-2.5839,-2.6388,-2.7409,-2.837,-2.9085,-2.9558,-3.0039,-3.0518,-3.0577,-3.0704,-3.0889,-3.0889,-3.0889,-3.0889,-3.0889,-3.0889,-3.0889,-3.0889,-3.0889,-3.0889,-3.0889,-3.0889,-3.0889,-3.0889,-3.0889,-3.0889,-3.0889,-3.0889,-3.0889,-3.0889,-3.0889,-3.0889,-3.0889,-3.0889,-3.0889,-3.0889,-3.0889,-3.0889,-3.0889,-3.0889,-3.0889,-1.2545,-1.2832,-1.3114,-1.3472,-1.4034,-1.4533,-1.4822,-1.5252,-1.5541,-1.5687,-1.5687,-1.5961,-1.6725,-1.6795,-1.7007,-1.764,-1.8137,-1.8557,-1.8762,-1.975,-2.0867,-2.2104,-2.2379,-2.2592,-2.2722,-2.2722,-2.2791,-2.2928,-2.2928,-2.2928,-2.2914,-2.2258,-2.1984,-2.1957,-2.137,-2.1109,-2.1109,-2.1109,-2.1109,-2.1109,-2.1109,-2.1109,-2.1109,-2.1109,-2.1109,-2.1109,-2.1109,-2.1109,-2.1109,-2.1109,-2.1109,-2.1109,-2.1109,-2.1109,-2.1109,-2.1109,-2.1109,-2.1109,-2.1109,-2.1109,-2.1109,-2.1109,-2.1109,-2.1109,-2.1109,-2.1109,-2.1172,-2.1425,-2.1418,-2.1544,-2.1859,-2.2292,-2.2738,-2.3043,-2.3984,-2.4911,-2.5647,-2.6614,-2.7521,-2.843,-2.9035,-2.9568,-3.003,-3.0206,-3.0392,-3.0704,-3.0762,-3.0762,-3.0889,-3.0889,-3.0889,-3.0889,-3.0889,-3.0889,-3.0889,-3.0889,-3.0889,-3.0889,-3.0889,-3.0889,-3.0889,-3.0889,-3.0889,-3.0889,-3.0889,-3.0889,-3.0889,-3.0889,-3.0889,-3.0889,-3.0889,-3.0889,-3.0889,-3.0889,-3.0889,-3.0889,-1.2122,-1.2194,-1.2334,-1.2753,-1.3039,-1.3325,-1.3325,-1.3611,-1.4047,-1.4407,-1.4479,-1.4759,-1.5536,-1.5603,-1.5749,-1.6183,-1.6871,-1.7283,-1.7283,-1.8692,-2.0162,-2.1697,-2.1766,-2.1973,-2.231,-2.231,-2.2516,-2.2859,-2.2859,-2.2928,-2.2853,-2.2258,-2.1984,-2.1957,-2.137,-2.1109,-2.1109,-2.1109,-2.1109,-2.1109,-2.1109,-2.1109,-2.1109,-2.1109,-2.1109,-2.1109,-2.1109,-2.1109,-2.1109,-2.1109,-2.1109,-2.1109,-2.1109,-2.1109,-2.1109,-2.1109,-2.1109,-2.1109,-2.1109,-2.1109,-2.1109,-2.1109,-2.1109,-2.1109,-2.1109,-2.1109,-2.1109,-2.1109,-2.1109,-2.1172,-2.1544,-2.1607,-2.1922,-2.2926,-2.3355,-2.3922,-2.4919,-2.5961,-2.6813,-2.7401,-2.837,-2.9094,-2.9362,-2.9677,-3.0039,-3.0392,-3.0382,-3.0577,-3.0889,-3.0889,-3.0889,-3.0889,-3.0889,-3.0889,-3.0889,-3.0889,-3.0889,-3.0889,-3.0889,-3.0889,-3.0889,-3.0889,-3.0889,-3.0889,-3.0889,-3.0889,-3.0889,-3.0889,-3.0889,-3.0889,-3.0889,-3.0889,-3.0889,-3.0889,-3.0889,-3.0889,-1.1763,-1.1763,-1.1907,-1.2334,-1.2477,-1.2617,-1.2896,-1.3039,-1.3182,-1.3253,-1.3329,-1.3468,-1.3967,-1.4252,-1.4541,-1.4977,-1.5673,-1.6447,-1.7213,-1.7705,-1.8552,-1.975,-2.0798,-2.1559,-2.1966,-2.1973,-2.2042,-2.211,-2.2379,-2.2448,-2.2503,-2.2125,-2.1984,-2.1957,-2.137,-2.1109,-2.1109,-2.1109,-2.1109,-2.1109,-2.1109,-2.1109,-2.1109,-2.1109,-2.1109,-2.1109,-2.1109,-2.1109,-2.1109,-2.1109,-2.1109,-2.1109,-2.1109,-2.1109,-2.1109,-2.1109,-2.1109,-2.1109,-2.1109,-2.1109,-2.1109,-2.1109,-2.1109,-2.1109,-2.1109,-2.1109,-2.1109,-2.1109,-2.1109,-2.1109,-2.1235,-2.1418,-2.167,-2.1985,-2.2731,-2.3425,-2.3984,-2.5087,-2.6128,-2.6805,-2.753,-2.8182,-2.8719,-2.9085,-2.939,-2.9667,-3.0138,-3.045,-3.0509,-3.0762,-3.0889,-3.0889,-3.0889,-3.0889,-3.0889,-3.0889,-3.0889,-3.0889,-3.0889,-3.0889,-3.0889,-3.0889,-3.0889,-3.0889,-3.0889,-3.0889,-3.0889,-3.0889,-3.0889,-3.0889,-3.0889,-3.0889,-3.0889,-3.0889,-3.0889,-3.0889,-1.1619,-1.1619,-1.1691,-1.1907,-1.1979,-1.2047,-1.2259,-1.233,-1.2402,-1.2545,-1.2545,-1.2685,-1.3039,-1.3325,-1.3543,-1.3829,-1.447,-1.5314,-1.6301,-1.6513,-1.7147,-1.8277,-1.9181,-2.0092,-2.1075,-2.1289,-2.1421,-2.1559,-2.1897,-2.2052,-2.193,-2.1805,-2.1727,-2.1594,-2.1252,-2.1109,-2.1109,-2.1109,-2.1109,-2.1109,-2.1109,-2.1109,-2.1109,-2.1109,-2.1109,-2.1109,-2.1109,-2.1109,-2.1109,-2.1109,-2.1109,-2.1109,-2.1109,-2.1109,-2.1109,-2.1109,-2.1109,-2.1109,-2.1109,-2.1109,-2.1109,-2.1109,-2.1109,-2.1109,-2.1109,-2.1109,-2.1109,-2.1109,-2.1109,-2.1109,-2.1109,-2.1299,-2.1418,-2.1607,-2.2111,-2.2731,-2.3293,-2.4224,-2.5087,-2.59,-2.6562,-2.722,-2.7891,-2.825,-2.8668,-2.9194,-2.9736,-3.0079,-3.0216,-3.0518,-3.0704,-3.0704,-3.083,-3.0889,-3.0889,-3.0889,-3.0889,-3.0889,-3.0889,-3.0889,-3.0889,-3.0889,-3.0889,-3.0889,-3.0889,-3.0889,-3.0889,-3.0889,-3.0889,-3.0889,-3.0889,-3.0889,-3.0889,-3.0889,-3.0889,-3.0889,-1.1619,-1.1619,-1.1619,-1.1619,-1.1619,-1.1619,-1.1619,-1.1619,-1.1763,-1.2122,-1.2122,-1.2262,-1.2685,-1.2753,-1.2757,-1.2757,-1.34,-1.411,-1.4817,-1.5248,-1.5952,-1.7072,-1.7142,-1.7991,-1.9692,-2.0249,-2.0729,-2.1,-2.1421,-2.1558,-2.1279,-2.1327,-2.1168,-2.1019,-2.1052,-2.1046,-2.1109,-2.1109,-2.1109,-2.1109,-2.1109,-2.1109,-2.1109,-2.1109,-2.1109,-2.1109,-2.1109,-2.1109,-2.1109,-2.1109,-2.1109,-2.1109,-2.1109,-2.1109,-2.1109,-2.1109,-2.1109,-2.1109,-2.1109,-2.1109,-2.1109,-2.1109,-2.1109,-2.1109,-2.1109,-2.1109,-2.1109,-2.1109,-2.1109,-2.1109,-2.1109,-2.1109,-2.1172,-2.1488,-2.1607,-2.1922,-2.2863,-2.33,-2.3922,-2.4857,-2.5586,-2.6205,-2.6891,-2.7297,-2.7822,-2.8806,-2.9144,-2.949,-2.9804,-3.0147,-3.0323,-3.0382,-3.0704,-3.0889,-3.0889,-3.0889,-3.0889,-3.0889,-3.0889,-3.0889,-3.0889,-3.0889,-3.0889,-3.0889,-3.0889,-3.0889,-3.0889,-3.0889,-3.0889,-3.0889,-3.0889,-3.0889,-3.0889,-3.0889,-3.0889,-3.0889,-1.1619,-1.1619,-1.1619,-1.1619,-1.1619,-1.1619,-1.1619,-1.1619,-1.1619,-1.1691,-1.1763,-1.1763,-1.1832,-1.2119,-1.2338,-1.2338,-1.2757,-1.3253,-1.3611,-1.4039,-1.4608,-1.5452,-1.581,-1.631,-1.7021,-1.8568,-1.9407,-1.9477,-2.0104,-2.0464,-2.0539,-2.0599,-2.0715,-2.1019,-2.0796,-2.0856,-2.1109,-2.1109,-2.1109,-2.1109,-2.1109,-2.1109,-2.1109,-2.1109,-2.1109,-2.1109,-2.1109,-2.1109,-2.1109,-2.1109,-2.1109,-2.1109,-2.1109,-2.1109,-2.1109,-2.1109,-2.1109,-2.1109,-2.1109,-2.1109,-2.1109,-2.1109,-2.1109,-2.1109,-2.1109,-2.1109,-2.1109,-2.1109,-2.1109,-2.1109,-2.1109,-2.1109,-2.1109,-2.1172,-2.1425,-2.167,-2.1922,-2.2668,-2.3362,-2.386,-2.4541,-2.5165,-2.5847,-2.67,-2.7358,-2.7762,-2.8361,-2.8838,-2.9163,-2.9431,-2.9844,-3.0382,-3.045,-3.0635,-3.0889,-3.0889,-3.0889,-3.0889,-3.0889,-3.0889,-3.0889,-3.0889,-3.0889,-3.0889,-3.0889,-3.0889,-3.0889,-3.0889,-3.0889,-3.0889,-3.0889,-3.0889,-3.0889,-3.0889,-3.0889,-3.0889,-1.1619,-1.1619,-1.1619,-1.1619,-1.1619,-1.1619,-1.1619,-1.1619,-1.1619,-1.1619,-1.1619,-1.1619,-1.1619,-1.1763,-1.1907,-1.1907,-1.2262,-1.2617,-1.276,-1.3114,-1.3611,-1.4177,-1.4395,-1.475,-1.5399,-1.6518,-1.7429,-1.8207,-1.8912,-1.9283,-1.9325,-1.9661,-1.9921,-2.011,-2.0298,-2.0545,-2.0862,-2.0862,-2.0919,-2.1109,-2.1109,-2.1109,-2.1109,-2.1109,-2.1109,-2.1109,-2.1109,-2.1109,-2.1109,-2.1109,-2.1109,-2.1109,-2.1109,-2.1109,-2.1109,-2.1109,-2.1109,-2.1109,-2.1109,-2.1109,-2.1109,-2.1109,-2.1109,-2.1109,-2.1109,-2.1109,-2.1109,-2.1109,-2.1109,-2.1109,-2.1109,-2.1109,-2.1109,-2.1109,-2.1235,-2.1418,-2.1607,-2.2048,-2.2543,-2.3043,-2.3549,-2.4232,-2.5042,-2.5908,-2.6518,-2.6796,-2.747,-2.7951,-2.825,-2.8847,-2.9381,-2.9745,-3.0039,-3.0333,-3.0645,-3.0645,-3.0762,-3.0889,-3.0889,-3.0889,-3.0889,-3.0889,-3.0889,-3.0889,-3.0889,-3.0889,-3.0889,-3.0889,-3.0889,-3.0889,-3.0889,-3.0889,-3.0889,-3.0889,-3.0889,-3.0889,-1.1619,-1.1619,-1.1619,-1.1619,-1.1619,-1.1619,-1.1619,-1.1619,-1.1619,-1.1619,-1.1619,-1.1619,-1.1619,-1.1619,-1.1619,-1.1619,-1.1907,-1.2122,-1.2122,-1.2474,-1.2828,-1.3114,-1.3182,-1.3543,-1.4189,-1.4537,-1.5452,-1.7007,-1.7775,-1.8031,-1.7908,-1.8653,-1.8987,-1.8944,-1.959,-2.0106,-2.0418,-2.0545,-2.0736,-2.1046,-2.1109,-2.1109,-2.1109,-2.1109,-2.1109,-2.1109,-2.1109,-2.1109,-2.1109,-2.1109,-2.1109,-2.1109,-2.1109,-2.1109,-2.1109,-2.1109,-2.1109,-2.1109,-2.1109,-2.1109,-2.1109,-2.1109,-2.1109,-2.1109,-2.1109,-2.1109,-2.1109,-2.1109,-2.1109,-2.1109,-2.1109,-2.1109,-2.1109,-2.1109,-2.1109,-2.1172,-2.1488,-2.1544,-2.1796,-2.2355,-2.2801,-2.3355,-2.4232,-2.4919,-2.5472,-2.5831,-2.6457,-2.6943,-2.728,-2.814,-2.8737,-2.8806,-2.945,-2.9922,-3.0206,-3.0265,-3.046,-3.0713,-3.0772,-3.083,-3.0889,-3.0889,-3.0889,-3.0889,-3.0889,-3.0889,-3.0889,-3.0889,-3.0889,-3.0889,-3.0889,-3.0889,-3.0889,-3.0889,-3.0889,-3.0889,-1.1619,-1.1619,-1.1619,-1.1619,-1.1619,-1.1619,-1.1619,-1.1619,-1.1619,-1.1619,-1.1619,-1.1619,-1.1619,-1.1619,-1.1619,-1.1619,-1.1619,-1.1691,-1.1691,-1.2051,-1.2266,-1.2338,-1.2685,-1.2896,-1.3039,-1.3396,-1.4319,-1.5815,-1.6588,-1.6857,-1.6839,-1.7582,-1.7995,-1.8168,-1.888,-1.9392,-1.9769,-2.0348,-2.0609,-2.0672,-2.0982,-2.1109,-2.1109,-2.1109,-2.1109,-2.1109,-2.1109,-2.1109,-2.1109,-2.1109,-2.1109,-2.1109,-2.1109,-2.1109,-2.1109,-2.1109,-2.1109,-2.1109,-2.1109,-2.1109,-2.1109,-2.1109,-2.1109,-2.1109,-2.1109,-2.1109,-2.1109,-2.1109,-2.1109,-2.1109,-2.1109,-2.1109,-2.1109,-2.1109,-2.1109,-2.1109,-2.1172,-2.1418,-2.1607,-2.1734,-2.2299,-2.2863,-2.3238,-2.3922,-2.4417,-2.4795,-2.5418,-2.597,-2.6258,-2.6943,-2.7608,-2.814,-2.8806,-2.9272,-2.954,-2.9795,-2.9981,-3.0049,-3.0333,-3.0635,-3.0889,-3.0889,-3.0889,-3.0889,-3.0889,-3.0889,-3.0889,-3.0889,-3.0889,-3.0889,-3.0889,-3.0889,-3.0889,-3.0889,-3.0889,-3.0889,-1.1619,-1.1619,-1.1619,-1.1619,-1.1619,-1.1619,-1.1619,-1.1619,-1.1619,-1.1619,-1.1619,-1.1619,-1.1619,-1.1619,-1.1619,-1.1619,-1.1619,-1.1619,-1.1619,-1.1763,-1.1835,-1.1835,-1.2047,-1.2259,-1.2474,-1.2617,-1.3114,-1.4039,-1.5035,-1.5537,-1.5754,-1.6428,-1.6922,-1.719,-1.791,-1.8623,-1.9328,-1.9647,-1.9973,-2.0361,-2.0482,-2.0672,-2.0792,-2.0792,-2.0926,-2.1109,-2.1109,-2.1109,-2.1109,-2.1109,-2.1109,-2.1109,-2.1109,-2.1109,-2.1109,-2.1109,-2.1109,-2.1109,-2.1109,-2.1109,-2.1109,-2.1109,-2.1109,-2.1109,-2.1109,-2.1109,-2.1109,-2.1109,-2.1109,-2.1109,-2.1109,-2.1109,-2.1109,-2.1109,-2.1109,-2.1109,-2.1109,-2.1235,-2.1418,-2.1607,-2.1859,-2.2174,-2.2487,-2.2988,-2.3425,-2.3736,-2.4363,-2.4919,-2.5218,-2.6083,-2.6631,-2.6926,-2.7702,-2.831,-2.86,-2.8966,-2.9263,-2.9608,-2.9785,-3.0147,-3.0635,-3.082,-3.0889,-3.0889,-3.0889,-3.0889,-3.0889,-3.0889,-3.0889,-3.0889,-3.0889,-3.0889,-3.0889,-3.0889,-3.0889,-3.0889]}]]